[[[{"header":{"parameterUnit":"kt","parameterCategory":2,"dx":1,"dy":1,"la1":29.587661999999998,"la2":31.0,"lo1":-88.76705300000003,"lo2":-86.6583820000003,"nx":115,"ny":88,"refTime":"2022-10-08T12:00:00:Z","depth":0,"parameterNumber":1,"parameterNumberName":"U-component_of_WINDS"},"data":[17.426,17.3262,17.3498,17.4457,17.5706,17.6073,17.7454,17.9426,17.9952,18.0676,18.1719,18.1945,18.1945,18.1945,18.1945,18.1945,18.1945,18.1945,18.1945,18.1945,18.1945,18.1945,18.1945,18.1945,18.1945,18.1851,18.1653,18.1164,18.0573,18.015,17.9295,17.7876,17.6599,17.6298,17.7087,17.7087,17.7416,17.7942,17.8374,17.89,17.9545,18.1382,18.2665,18.4733,18.6791,18.8075,18.8441,18.8369,18.8227,18.8084,18.8013,18.8013,18.8013,18.8013,18.8013,18.8013,18.8013,18.8013,18.8013,18.8013,18.8013,18.8013,18.8013,18.8013,18.8013,18.8013,18.8031,18.8031,18.8013,18.8013,18.8013,18.8013,18.8013,18.8013,18.8013,18.8013,18.8013,18.8013,18.8013,18.8013,18.8013,18.8031,18.8031,18.8764,19.0319,19.1704,19.3171,19.472,19.6101,19.675,19.7256,19.7042,19.6971,19.638,19.5738,19.6666,19.6594,19.5239,19.3702,19.2151,19.0581,18.9207,18.8332,18.8137,18.8989,18.9911,19.061,19.149,19.2508,19.3954,19.4517,19.5022,19.5821,19.6477,19.7224,17.3432,17.3432,17.4523,17.5838,17.7285,17.844,17.9295,17.9821,18.1033,18.1785,18.1945,18.1945,18.1945,18.1945,18.1945,18.1945,18.1945,18.1945,18.1945,18.1945,18.1945,18.1945,18.1945,18.1945,18.1945,18.1945,18.1945,18.1653,18.139,18.123,18.0573,17.9295,17.798,17.6665,17.5904,17.5772,17.6336,17.7125,17.7783,17.798,17.989,18.2152,18.4275,18.6657,18.8988,19.1008,19.0367,18.9744,18.9102,18.8797,18.8369,18.8549,18.864,18.8673,18.8602,18.8655,18.8726,18.8673,18.8459,18.8602,18.8388,18.8103,18.8013,18.8013,18.8013,18.8031,18.8031,18.8031,18.8013,18.8013,18.8013,18.8013,18.8013,18.8013,18.8013,18.8013,18.8013,18.8013,18.8013,18.8013,18.8013,18.8013,18.8013,18.8013,18.9135,19.0449,19.194,19.347,19.4895,19.5939,19.6841,19.7074,19.7237,19.7308,19.7023,19.7185,19.7094,19.5952,19.5096,19.3103,19.1375,19.0232,18.9267,18.864,18.8369,18.9027,18.9706,19.0225,19.208,19.3792,19.4231,19.4598,19.536,19.6082,19.6828,17.3262,17.3366,17.472,17.6167,17.7548,17.9032,18.015,18.0901,18.1588,18.1945,18.1945,18.1945,18.1945,18.1945,18.1945,18.1945,18.1945,18.1945,18.2059,18.2002,18.1945,18.2088,18.1945,18.1945,18.2193,18.1945,18.1945,18.2031,18.1851,18.1851,18.1719,18.0836,17.9492,17.844,17.8046,17.7848,17.7914,17.7651,17.844,18.016,18.291,18.5877,18.8208,18.8773,19.0635,19.1592,19.1633,19.149,19.0653,18.9796,19.0082,19.0262,19.0251,19.0229,19.0439,19.042,19.0367,19.0529,19.0638,19.0638,19.0405,18.9714,18.9323,18.8587,18.8515,18.9161,18.9233,18.8583,18.8512,18.8583,18.8583,18.8583,18.8583,18.8422,18.8422,18.8317,18.8264,18.8174,18.8013,18.8013,18.8013,18.8013,18.8013,18.8013,18.8617,18.9968,19.0476,19.1975,19.3994,19.5543,19.6354,19.6912,19.7165,19.7308,19.7308,19.7308,19.7308,19.7113,19.6614,19.4972,19.3455,19.1732,19.0202,18.9465,18.9052,18.8996,18.8602,18.8797,19.0367,19.217,19.3108,19.4012,19.4912,19.5667,19.6594,17.3262,17.3394,17.5115,17.689,17.86,17.9755,18.0901,18.1916,18.1945,18.1945,18.1945,18.1945,18.1945,18.1945,18.1945,18.1945,18.1945,18.1974,18.2307,18.288,18.3132,18.3665,18.3967,18.465,18.3665,18.3132,18.2665,18.274,18.2108,18.1945,18.1851,18.1682,18.1458,18.0025,17.9304,17.9751,17.9625,17.9323,18.1204,18.4308,18.6312,18.9347,19.1675,19.1973,19.3007,19.378,19.3273,19.3131,19.2222,19.1223,19.2151,19.2498,19.2673,19.2551,19.2579,19.2631,19.2275,19.2132,19.2132,19.1984,19.1661,19.1062,19.0646,18.9823,18.9627,19.0363,19.0487,18.9658,18.9278,18.9278,18.9349,18.9349,18.9349,18.9188,18.8955,18.8797,18.8658,18.8335,18.8031,18.8013,18.8013,18.8013,18.8013,18.8227,18.8689,18.9192,18.9751,19.1093,19.326,19.4921,19.5751,19.6912,19.7237,19.7308,19.7308,19.7308,19.7308,19.7185,19.7042,19.6536,19.5673,19.3863,19.2122,19.0946,18.977,18.9465,18.9124,18.8568,18.8602,18.9815,19.1089,19.2845,19.3946,19.4966,19.6127,17.3262,17.3459,17.6194,17.8628,18.1324,18.1522,18.1719,18.1945,18.1945,18.1945,18.1945,18.1945,18.1945,18.1945,18.1945,18.1945,18.1974,18.2477,18.3399,18.5265,18.5173,18.6213,18.7534,18.8572,18.6716,18.5742,18.5093,18.4406,18.2806,18.2002,18.1993,18.1985,18.2568,18.2642,18.1572,18.1906,18.2213,18.248,18.5382,18.8112,18.9792,19.152,19.3332,19.371,19.5022,19.6166,19.5148,19.4506,19.4078,19.3007,19.2703,19.2845,19.2941,19.3007,19.3007,19.3059,19.3345,19.3416,19.341,19.3437,19.3003,19.2711,19.2427,19.1665,19.1435,19.1849,19.2022,19.1352,19.099,19.099,19.0971,19.0971,19.0986,19.0857,19.052,19.022,18.9996,18.9627,18.9161,18.8515,18.8425,18.8013,18.8013,18.8013,18.8422,18.8549,18.9323,19.0848,19.2698,19.4253,19.5557,19.7003,19.7237,19.7308,19.7308,19.7308,19.7308,19.7308,19.7256,19.6841,19.6516,19.5394,19.4006,19.2584,19.1232,19.0537,18.9661,18.9015,18.8816,18.9263,19.0176,19.177,19.3031,19.4124,19.507,17.3262,17.3432,17.5378,17.735,17.9351,18.1193,18.1945,18.1945,18.1945,18.1945,18.1945,18.1945,18.1945,18.1945,18.1945,18.1945,18.2116,18.3188,18.4542,18.625,18.7229,18.8763,18.9155,18.9276,18.894,18.8517,18.7617,18.669,18.4406,18.3149,18.3104,18.4025,18.4476,18.4986,18.5462,18.5699,18.5818,18.7312,18.9061,19.1174,19.2853,19.434,19.5363,19.6048,19.6461,19.6821,19.638,19.638,19.5524,19.433,19.5239,19.5096,19.4116,19.4953,19.5362,19.5219,19.5219,19.5109,19.507,19.5258,19.4824,19.4344,19.3981,19.3641,19.3593,19.3455,19.3322,19.3207,19.2936,19.2755,19.2736,19.2626,19.2692,19.2738,19.2225,19.1784,19.1423,19.1006,19.0254,18.9447,18.8891,18.8407,18.8155,18.8013,18.8174,18.8782,18.9823,19.1401,19.2969,19.4706,19.6309,19.7165,19.7237,19.7308,19.7308,19.7308,19.7308,19.7308,19.7308,19.7308,19.7237,19.6361,19.5394,19.4097,19.2836,19.1513,19.0457,18.9725,18.9244,18.9015,18.9552,19.0894,19.2051,19.2911,19.3468,17.3262,17.3432,17.518,17.6561,17.7876,18.0667,18.1945,18.1945,18.1945,18.1945,18.1945,18.1945,18.1945,18.1945,18.1945,18.1945,18.2918,18.4256,18.5689,18.7617,18.9591,19.0872,19.1726,19.2205,19.1313,19.0966,19.0332,18.9281,18.6845,18.5465,18.5583,18.67,18.7939,18.8287,18.9385,19.0943,19.1427,19.2245,19.3311,19.434,19.5217,19.6098,19.6572,19.6961,19.7249,19.7197,19.7094,19.7094,19.6757,19.5848,19.6757,19.6899,19.5705,19.6614,19.7308,19.7308,19.7308,19.7308,19.7308,19.7237,19.675,19.5796,19.5602,19.5667,19.5601,19.5464,19.5121,19.492,19.4648,19.4843,19.4824,19.4824,19.4785,19.4474,19.3845,19.3405,19.3054,19.2422,19.1062,19.0453,19.048,19.0138,19.0082,18.9992,19.0239,18.9905,19.0589,19.2293,19.3989,19.5906,19.7276,19.7256,19.7308,19.7308,19.7308,19.7308,19.7308,19.7308,19.7308,19.7308,19.7237,19.7074,19.6678,19.5985,19.5187,19.3649,19.1808,19.09,19.051,19.0067,18.9691,19.0338,19.0804,19.1043,19.1504,17.3262,17.3629,17.626,17.7416,17.8008,18.0732,18.1945,18.1945,18.1945,18.1945,18.1945,18.1945,18.1945,18.1945,18.2051,18.2221,18.2852,18.5279,18.7364,18.9643,19.2137,19.4191,19.566,19.6078,19.4707,19.3712,19.2964,19.1977,18.9643,18.8689,18.8566,18.9474,19.0733,19.1383,19.2159,19.376,19.5619,19.5486,19.6199,19.624,19.63,19.708,19.7269,19.7308,19.7308,19.7308,19.7308,19.7308,19.7185,19.7113,19.7185,19.7185,19.7185,19.7237,19.7308,19.7308,19.7308,19.7308,19.7308,19.7308,19.7003,19.6841,19.6912,19.7146,19.7062,19.6796,19.6491,19.6328,19.6075,19.6504,19.6718,19.6575,19.6504,19.5997,19.5381,19.5044,19.4655,19.3871,19.253,19.1751,19.1851,19.1566,19.1509,19.2483,19.2854,19.2983,19.3825,19.5225,19.6231,19.8007,19.7905,19.7795,19.7328,19.7328,19.7308,19.7308,19.7308,19.7308,19.7308,19.7308,19.7308,19.7237,19.7003,19.6841,19.6951,19.6238,19.4415,19.3221,19.2151,19.1452,19.1057,19.1399,19.1656,19.1219,19.0543,17.3761,17.4786,17.6693,17.8008,17.9126,18.1061,18.1945,18.1945,18.1945,18.1945,18.1945,18.1945,18.2002,18.2467,18.3416,18.4325,18.4865,18.8498,19.1704,19.218,19.4707,19.6139,19.6961,19.7021,19.6532,19.6341,19.5681,19.4623,19.2227,19.2022,19.1336,19.0966,19.2024,19.3407,19.4854,19.5598,19.7308,19.7308,19.7308,19.7308,19.7308,19.7308,19.7308,19.7308,19.7308,19.7308,19.7308,19.7308,19.7328,19.7256,19.7328,19.7256,19.7256,19.7308,19.7308,19.7308,19.7308,19.7308,19.7308,19.7308,19.7308,19.7308,19.7308,19.7308,19.7308,19.7308,19.7308,19.7308,19.7165,19.7165,19.7094,19.7094,19.7023,19.7023,19.6588,19.6588,19.627,19.6199,19.509,19.3707,19.3322,19.2727,19.2508,19.3748,19.5452,19.6379,19.7286,19.7982,19.8838,19.8933,19.886,19.8048,19.7328,19.7379,19.7379,19.7308,19.7308,19.7308,19.7308,19.7308,19.7308,19.7308,19.7308,19.7256,19.7165,19.688,19.6095,19.531,19.3792,19.295,19.2497,19.2445,19.2541,19.1652,19.0386,17.4024,17.5416,17.689,17.86,18.0413,18.1588,18.1945,18.1945,18.1945,18.1945,18.1945,18.1945,18.2221,18.3388,18.4879,18.6068,18.744,19.1772,19.3407,19.3647,19.5885,19.7001,19.7308,19.7308,19.7269,19.7288,19.723,19.6058,19.4644,19.4728,19.3451,19.2831,19.4496,19.5701,19.6862,19.7308,19.7308,19.7308,19.7308,19.7308,19.7308,19.7308,19.7308,19.7308,19.7308,19.7308,19.7308,19.7308,19.7308,19.7308,19.7308,19.7308,19.7308,19.7308,19.7308,19.7308,19.7308,19.7308,19.7308,19.7308,19.7308,19.7308,19.7308,19.7308,19.7308,19.7308,19.7308,19.7308,19.7308,19.7308,19.7308,19.7308,19.7308,19.7308,19.7308,19.7308,19.7328,19.7256,19.6847,19.5374,19.4374,19.3759,19.3507,19.4286,19.7476,19.9116,20.0585,20.14,20.1197,20.0887,20.0121,19.8983,19.7898,19.7736,19.7451,19.7379,19.7308,19.7308,19.7308,19.7308,19.7308,19.7308,19.7308,19.7308,19.7308,19.7328,19.688,19.6309,19.5219,19.4538,19.4137,19.4046,19.3676,19.2612,19.1385,17.409,17.5509,17.689,17.9154,18.1456,18.1916,18.1945,18.1945,18.1945,18.1945,18.1945,18.2363,18.3483,18.5132,18.6494,18.7976,19.0049,19.2474,19.3955,19.4446,19.6432,19.7099,19.7308,19.7308,19.7308,19.7308,19.7288,19.7269,19.6942,19.6632,19.6771,19.6612,19.624,19.6981,19.7249,19.7308,19.7308,19.7308,19.7308,19.7308,19.7308,19.7308,19.7308,19.7308,19.7308,19.7308,19.7308,19.7308,19.7308,19.7308,19.7308,19.7308,19.7308,19.7308,19.7308,19.7308,19.7308,19.7308,19.7308,19.7308,19.7308,19.7308,19.7308,19.7308,19.7308,19.7308,19.7308,19.7308,19.7308,19.7308,19.7308,19.7308,19.7308,19.7308,19.7308,19.7308,19.7308,19.7256,19.6867,19.5854,19.5154,19.4791,19.4791,19.5771,19.95,20.1795,20.3599,20.4149,20.3721,20.3077,20.2006,20.0764,19.9242,19.8846,19.8164,19.7736,19.7379,19.7308,19.7308,19.7308,19.7308,19.7308,19.7308,19.7308,19.7308,19.7308,19.7308,19.7237,19.6666,19.6004,19.5725,19.5239,19.4688,19.4014,19.3158,17.4616,17.6824,17.7313,17.86,18.0347,18.1427,18.1945,18.1945,18.1945,18.1945,18.2088,18.383,18.5039,18.6613,18.8964,19.1589,19.2675,19.4601,19.5722,19.63,19.6692,19.7139,19.7308,19.7308,19.7308,19.7308,19.7308,19.7308,19.7308,19.7308,19.7308,19.7308,19.7308,19.7308,19.7308,19.7308,19.7308,19.7308,19.7308,19.7308,19.7308,19.7308,19.7308,19.7308,19.7308,19.7308,19.7308,19.7308,19.7308,19.7308,19.7308,19.7308,19.7308,19.7308,19.7308,19.7308,19.7308,19.7308,19.7308,19.7308,19.7308,19.7308,19.7308,19.7308,19.7308,19.7308,19.7308,19.7308,19.7308,19.7308,19.7308,19.7308,19.7308,19.7308,19.7308,19.7308,19.7308,19.7256,19.6796,19.6477,19.699,19.7023,19.7146,19.8002,20.0785,20.214,20.3711,20.4505,20.4495,20.4097,20.3293,20.2174,20.0761,19.9936,19.8969,19.8236,19.7665,19.7593,19.7308,19.7308,19.7308,19.7308,19.7308,19.7308,19.7308,19.7308,19.7308,19.7308,19.7308,19.7308,19.7003,19.6516,19.5946,19.5245,19.4565,17.455,17.6693,17.7285,17.8337,17.9755,18.1296,18.1945,18.1945,18.1945,18.1945,18.2088,18.4554,18.624,18.8069,19.1589,19.382,19.5134,19.6803,19.7021,19.7308,19.7308,19.7308,19.7308,19.7308,19.7308,19.7308,19.7308,19.7308,19.7308,19.7308,19.7308,19.7308,19.7308,19.7308,19.7308,19.7308,19.7308,19.7308,19.7308,19.7308,19.7308,19.7308,19.7308,19.7308,19.7308,19.7308,19.7308,19.7308,19.7308,19.7308,19.7308,19.7308,19.7308,19.7308,19.7308,19.7308,19.7308,19.7308,19.7308,19.7308,19.7308,19.7308,19.7308,19.7308,19.7308,19.7308,19.7308,19.7308,19.7308,19.7308,19.7308,19.7308,19.7308,19.7308,19.7308,19.7308,19.7308,19.7308,19.7062,19.701,19.7613,19.8592,19.9377,20.0214,20.1375,20.2517,20.3751,20.479,20.4801,20.4505,20.4269,20.3351,20.2689,20.1864,19.9663,19.8735,19.8022,19.7665,19.7308,19.7308,19.7308,19.7308,19.7308,19.7308,19.7308,19.7308,19.7308,19.7308,19.7308,19.7308,19.7308,19.7308,19.7003,19.6445,19.6069,17.4024,17.535,17.6693,17.798,17.9295,18.0996,18.1653,18.1588,18.1653,18.1719,18.2221,18.4377,18.6707,18.9687,19.2452,19.5238,19.7119,19.7288,19.7308,19.7308,19.7308,19.7308,19.7308,19.7308,19.7308,19.7308,19.7308,19.7308,19.7308,19.7308,19.7308,19.7308,19.7308,19.7308,19.7308,19.7308,19.7308,19.7308,19.7308,19.7308,19.7308,19.7308,19.7308,19.7308,19.7308,19.7308,19.7308,19.7308,19.7308,19.7308,19.7308,19.7308,19.7308,19.7308,19.7308,19.7308,19.7308,19.7308,19.7308,19.7308,19.7308,19.7308,19.7308,19.7308,19.7308,19.7308,19.7308,19.7308,19.7308,19.7308,19.7308,19.7308,19.7308,19.747,19.7724,19.7633,19.747,19.747,19.7724,19.7542,19.8164,19.9235,20.0091,20.1855,20.3159,20.4047,20.5259,20.478,20.4862,20.5463,20.5167,20.4882,20.4382,20.2883,20.059,19.9389,19.8799,19.8391,19.7645,19.7379,19.7308,19.7308,19.7308,19.7308,19.7308,19.7308,19.7308,19.7308,19.7308,19.7308,19.7308,19.7308,19.7074,19.6912,19.6912,17.3432,17.3893,17.5246,17.6035,17.6533,17.797,17.9257,18.015,18.0281,18.0901,18.191,18.2862,18.5598,18.9639,19.3998,19.6472,19.7308,19.7308,19.7308,19.7308,19.7308,19.7308,19.7308,19.7308,19.7308,19.7308,19.7308,19.7308,19.7308,19.7308,19.7308,19.7308,19.7308,19.7308,19.7308,19.7308,19.7308,19.7308,19.7308,19.7308,19.7308,19.7308,19.7308,19.7308,19.7308,19.7308,19.7308,19.7308,19.7308,19.7308,19.7308,19.7308,19.7308,19.7308,19.7308,19.7308,19.7308,19.7308,19.7308,19.7308,19.7308,19.7308,19.7308,19.7308,19.7308,19.7308,19.7308,19.7308,19.7308,19.7308,19.7308,19.7308,19.7308,19.7633,19.8048,19.7886,19.7795,19.8444,19.884,19.9028,19.9683,20.0448,20.2344,20.388,20.476,20.5555,20.5412,20.4933,20.5443,20.633,20.6187,20.6034,20.529,20.3994,20.2252,20.103,19.9809,19.9025,19.7963,19.7431,19.7379,19.7308,19.7308,19.7308,19.7308,19.7308,19.7308,19.7308,19.7308,19.7308,19.7308,19.7308,19.7308,19.7308,19.7237,17.3761,17.3366,17.472,17.5378,17.5575,17.689,17.8271,17.9398,17.9661,18.0478,18.189,18.2964,18.5663,18.9906,19.4938,19.7249,19.7308,19.7308,19.7308,19.7308,19.7308,19.7308,19.7308,19.7308,19.7308,19.7308,19.7308,19.7308,19.7308,19.7308,19.7308,19.7308,19.7308,19.7308,19.7308,19.7308,19.7308,19.7308,19.7308,19.7308,19.7308,19.7308,19.7308,19.7308,19.7308,19.7308,19.7308,19.7308,19.7308,19.7308,19.7308,19.7308,19.7308,19.7308,19.7308,19.7308,19.7308,19.7308,19.7308,19.7308,19.7308,19.7308,19.7308,19.7308,19.7308,19.7308,19.7308,19.7308,19.7308,19.7308,19.7308,19.7308,19.7308,19.7399,19.7795,19.7638,19.7777,19.8838,20.0114,20.071,20.1475,20.3751,20.5782,20.609,20.5973,20.6177,20.5586,20.5341,20.5922,20.6259,20.6228,20.6472,20.5698,20.4851,20.3679,20.2477,20.1113,19.9647,19.8656,19.7665,19.7451,19.7308,19.7308,19.7308,19.749,19.749,19.7308,19.7406,19.758,19.7483,19.7347,19.7308,19.7308,19.7308,19.7308,17.4654,17.3301,17.4523,17.5115,17.518,17.6298,17.7745,17.8985,17.9659,18.0686,18.2399,18.4905,18.7592,19.0616,19.5001,19.6732,19.7249,19.7308,19.7308,19.7308,19.7308,19.7308,19.7308,19.7308,19.7308,19.7308,19.7308,19.7308,19.7308,19.7308,19.7308,19.7308,19.7308,19.7308,19.7308,19.7308,19.7308,19.7308,19.7308,19.7308,19.7308,19.7308,19.7308,19.7308,19.7308,19.7308,19.7308,19.7308,19.7308,19.7308,19.7308,19.7308,19.7308,19.7308,19.7237,19.7094,19.7237,19.7308,19.7308,19.7308,19.7308,19.7308,19.7308,19.7308,19.7308,19.7308,19.7308,19.7308,19.7308,19.7308,19.7308,19.7308,19.7308,19.7399,19.7886,19.7979,19.8115,19.9528,20.1114,20.1951,20.4258,20.6642,20.8597,20.7801,20.7002,20.636,20.5902,20.5962,20.5962,20.5239,20.5004,20.5534,20.5208,20.5269,20.4424,20.3425,20.206,20.0411,19.9136,19.7807,19.7522,19.7308,19.7328,19.7561,19.7814,19.7886,19.8365,19.8342,19.7979,19.8007,19.8168,19.794,19.7501,19.7308,19.7308,17.5537,17.3262,17.3498,17.3629,17.3695,17.3986,17.4972,17.6664,17.9637,18.1821,18.3586,18.703,19.0099,19.2407,19.3998,19.5445,19.7308,19.7308,19.7308,19.7308,19.7308,19.7308,19.7308,19.7308,19.7308,19.7308,19.7308,19.7308,19.7308,19.7308,19.7308,19.7308,19.7308,19.7308,19.7308,19.7308,19.7308,19.7308,19.7308,19.7308,19.7308,19.7308,19.7308,19.7308,19.7308,19.7256,19.7094,19.6951,19.6951,19.6951,19.7023,19.7165,19.7237,19.7308,19.6737,19.5952,19.6666,19.7165,19.7308,19.7237,19.7308,19.7308,19.7308,19.7308,19.7308,19.7308,19.7308,19.7308,19.7308,19.7308,19.7308,19.7308,19.7308,19.749,19.8282,19.9198,19.9365,20.0487,20.2094,20.4911,20.6934,20.8814,21.0297,20.9951,20.8625,20.7893,20.6679,20.6693,20.6167,20.5208,20.4464,20.4923,20.5005,20.5208,20.4872,20.3781,20.1775,20.0533,19.9575,19.8073,19.7593,19.7328,19.7724,19.7977,19.8373,19.9311,19.9738,20.003,19.9678,19.9384,19.9186,19.895,19.8547,19.8302,19.7772,17.5115,17.3262,17.3262,17.3262,17.3414,17.4436,17.5801,17.7529,18.0581,18.3228,18.5789,18.8694,19.146,19.3289,19.458,19.5885,19.706,19.7308,19.7308,19.7308,19.7308,19.7308,19.7308,19.7308,19.7308,19.7308,19.7308,19.7308,19.7308,19.7308,19.7308,19.7308,19.7308,19.7308,19.7308,19.7308,19.7308,19.7308,19.7308,19.7308,19.7308,19.7308,19.7308,19.7042,19.6685,19.6238,19.6004,19.5647,19.5076,19.5096,19.5096,19.507,19.5012,19.4889,19.4668,19.4292,19.5239,19.6166,19.6166,19.6951,19.7185,19.7256,19.7308,19.7308,19.7308,19.7308,19.7308,19.7308,19.7308,19.7308,19.7308,19.7308,19.7308,19.7561,19.8607,19.9419,20.0042,20.182,20.4972,20.8504,20.9622,21.0699,21.2156,21.1609,21.0322,20.8987,20.771,20.7143,20.6748,20.5585,20.4281,20.4261,20.3761,20.4158,20.4281,20.262,20.0633,20.0656,20.0014,19.8319,19.7522,19.747,19.7724,19.8961,19.9839,20.0849,20.1295,20.1634,20.132,20.1068,20.0833,20.0517,19.982,19.9006,19.8249,17.4457,17.3224,17.3619,17.3834,17.4223,17.6454,17.819,17.9627,18.2171,18.4966,18.7639,19.043,19.2704,19.4291,19.6532,19.7249,19.723,19.7308,19.7308,19.7308,19.7308,19.7308,19.7308,19.7308,19.7308,19.7308,19.7308,19.7308,19.7308,19.7308,19.7308,19.7308,19.7308,19.7308,19.7308,19.7308,19.7308,19.7308,19.7308,19.7308,19.7308,19.7308,19.7308,19.7165,19.5952,19.5291,19.4791,19.3649,19.2579,19.2636,19.2598,19.2354,19.2116,19.225,19.2346,19.2579,19.3721,19.4577,19.4648,19.5719,19.6432,19.6828,19.6393,19.6354,19.7074,19.7074,19.6912,19.7074,19.7308,19.7308,19.7308,19.7724,19.7724,19.812,19.9165,20.0296,20.1229,20.3547,20.7134,21.0906,21.1849,21.2629,21.3272,21.3286,21.2172,21.1149,20.9311,20.803,20.6987,20.5633,20.4043,20.313,20.2649,20.3157,20.3577,20.1487,20.0894,20.1252,20.079,19.9033,19.878,19.821,19.8903,20.0972,20.2282,20.2533,20.2751,20.308,20.2901,20.266,20.2352,20.2146,20.1164,20.0155,19.9209,17.4523,17.336,17.5484,17.6301,17.6732,17.898,18.0227,18.0919,18.4328,18.6884,18.9107,19.2765,19.4646,19.6367,19.7067,19.7308,19.7308,19.7308,19.7308,19.7308,19.7308,19.7308,19.7308,19.7308,19.7308,19.7308,19.7308,19.7308,19.7308,19.7308,19.7308,19.7308,19.7308,19.7308,19.7308,19.7308,19.7308,19.7308,19.7308,19.7308,19.7308,19.7308,19.7308,19.7023,19.579,19.5005,19.4434,19.3383,19.2479,19.262,19.2589,19.1204,18.9864,18.9725,19.0672,19.0743,19.2151,19.2865,19.3131,19.3449,19.4201,19.5198,19.4318,19.4629,19.6211,19.6088,19.6049,19.6588,19.7165,19.7165,19.7399,19.8477,19.9146,19.9685,20.0751,20.2134,20.3802,20.6493,20.9618,21.298,21.3766,21.4333,21.4881,21.4906,21.4127,21.3088,21.0658,20.862,20.6982,20.5342,20.3053,20.1689,20.1682,20.2071,20.1883,20.0394,20.1746,20.2093,20.1825,20.1199,20.1165,20.1169,20.1861,20.3575,20.4107,20.4168,20.4243,20.4602,20.4553,20.4242,20.3921,20.3602,20.2645,20.1277,20.0428,17.4563,17.525,17.6378,17.7663,17.9103,18.1508,18.2549,18.3213,18.6025,18.8151,19.0059,19.2433,19.4577,19.6095,19.688,19.7328,19.7308,19.7308,19.7308,19.7308,19.7308,19.7308,19.7308,19.7308,19.7308,19.7308,19.7237,19.7308,19.7308,19.7308,19.7308,19.7308,19.7308,19.7308,19.7308,19.7308,19.7308,19.7308,19.7308,19.7308,19.7308,19.7308,19.7308,19.7023,19.579,19.4506,19.3721,19.2222,19.1033,19.0375,19.0086,18.9349,18.8441,18.8655,18.9012,18.9316,19.051,19.1295,19.1671,19.217,19.2889,19.3674,19.3146,19.3698,19.4036,19.4208,19.4538,19.5634,19.6179,19.688,19.845,19.9944,20.1364,20.1986,20.2843,20.4331,20.6839,20.9857,21.2647,21.3708,21.496,21.5936,21.6215,21.5974,21.528,21.354,21.1149,20.9367,20.7684,20.4853,20.2437,20.1109,20.0993,20.0893,20.059,20.1165,20.2488,20.2518,20.2402,20.2476,20.2864,20.3721,20.4621,20.517,20.564,20.5707,20.551,20.6127,20.6244,20.5748,20.5339,20.5061,20.4389,20.3063,20.2004,17.4634,17.6958,17.7397,17.9079,18.1551,18.3946,18.5058,18.518,18.7099,18.8752,19.0348,19.1542,19.3221,19.5096,19.6166,19.7023,19.7237,19.7308,19.7308,19.7308,19.7308,19.7094,19.6238,19.6095,19.638,19.6666,19.6737,19.6951,19.7256,19.7308,19.7308,19.7308,19.7308,19.7308,19.7308,19.7308,19.7308,19.7308,19.7308,19.7308,19.7308,19.7308,19.7308,19.7165,19.579,19.4149,19.2294,19.0672,18.9244,18.8298,18.8155,18.8369,18.8084,18.8084,18.8155,18.8441,18.9316,18.9815,18.9958,19.0728,19.1736,19.1905,19.1653,19.1889,19.2319,19.2431,19.2893,19.4079,19.459,19.5865,19.8494,20.1303,20.3432,20.4724,20.565,20.7401,21.0411,21.2819,21.4022,21.4861,21.5874,21.6621,21.6161,21.6067,21.5488,21.3818,21.2021,21.0203,20.7497,20.46,20.2684,20.118,20.1185,20.1289,20.1195,20.1723,20.254,20.2704,20.2921,20.3188,20.4099,20.5,20.5597,20.622,20.6825,20.669,20.6295,20.6805,20.6805,20.6815,20.6595,20.6117,20.5543,20.4741,20.3708,17.4634,17.7041,17.9269,18.1596,18.3995,18.6487,18.7342,18.7532,18.7829,18.8797,19.001,19.0457,19.217,19.4934,19.4934,19.5933,19.7094,19.6808,19.6951,19.688,19.6737,19.5738,19.3863,19.3702,19.422,19.5076,19.5219,19.5952,19.6737,19.7165,19.7256,19.7308,19.7308,19.7308,19.7308,19.7308,19.7308,19.7308,19.7308,19.7308,19.7308,19.7308,19.7165,19.688,19.5576,19.3649,19.1295,18.9387,18.8298,18.8013,18.8013,18.8013,18.8013,18.8013,18.8013,18.8155,18.8227,18.8441,18.8388,18.8673,18.9124,19.0093,18.9323,18.9556,19.142,19.1171,19.1261,19.2983,19.2898,19.4722,19.7851,20.2962,20.5742,20.7299,20.9393,21.22,21.4847,21.4913,21.4838,21.6226,21.6535,21.5948,21.5509,21.5414,21.5586,21.3509,21.1794,20.9839,20.7302,20.4914,20.3212,20.1768,20.1666,20.1755,20.2121,20.247,20.3076,20.3578,20.4068,20.4483,20.5355,20.5823,20.6516,20.6825,20.6825,20.6825,20.6825,20.6825,20.6815,20.6825,20.6825,20.6666,20.6441,20.5589,20.513,17.4634,17.7091,17.9553,18.2043,18.4433,18.6946,18.8013,18.8013,18.8013,18.8369,18.903,18.9887,19.1028,19.2313,19.3221,19.4006,19.4577,19.4577,19.4648,19.4648,19.4648,19.3863,19.2917,19.2631,19.2988,19.363,19.3649,19.4506,19.5667,19.5952,19.6452,19.7094,19.7308,19.7308,19.7308,19.7308,19.7308,19.7308,19.7308,19.7308,19.7308,19.7308,19.688,19.5881,19.5362,19.4006,19.1866,19.0153,18.8869,18.8174,18.8013,18.8013,18.8013,18.8013,18.8013,18.8013,18.8013,18.8013,18.8013,18.8013,18.8335,18.8677,18.8497,18.8748,18.9518,18.9406,19.0182,19.2183,19.257,19.4646,19.8269,20.2649,20.6845,21.0012,21.2256,21.4071,21.6354,21.5916,21.6076,21.645,21.677,21.6396,21.5948,21.536,21.4537,21.3106,21.1281,20.9298,20.7309,20.5572,20.3895,20.2941,20.2512,20.3206,20.3639,20.4415,20.5124,20.5362,20.5729,20.5888,20.6357,20.6441,20.6825,20.6825,20.6825,20.6825,20.6825,20.6825,20.6825,20.6825,20.6825,20.674,20.674,20.6207,20.6132,17.4456,17.7421,17.9674,18.2396,18.5372,18.7099,18.8013,18.8013,18.8013,18.8013,18.8227,18.9226,18.9887,19.0386,19.158,19.2294,19.2774,19.2774,19.2631,19.256,19.1918,19.1419,19.1419,19.1347,19.1561,19.1989,19.208,19.2865,19.4292,19.4862,19.5595,19.6666,19.7023,19.7308,19.7308,19.7308,19.7308,19.7308,19.7308,19.7308,19.7237,19.688,19.6095,19.4934,19.4078,19.3026,19.2008,19.051,18.9083,18.8084,18.8013,18.8013,18.8013,18.8013,18.8013,18.8013,18.8013,18.8013,18.8013,18.8013,18.8013,18.8013,18.8425,18.8515,18.8587,18.891,19.0263,19.1798,19.2673,19.4246,19.8173,20.1419,20.5727,21.1105,21.2629,21.3758,21.4859,21.5457,21.5393,21.5403,21.5264,21.4826,21.4303,21.3779,21.3031,21.1855,21.0295,20.8627,20.7256,20.5788,20.5363,20.4367,20.3974,20.4678,20.5262,20.6256,20.674,20.6825,20.675,20.674,20.674,20.6825,20.6825,20.6825,20.6825,20.6825,20.6825,20.6825,20.6825,20.6825,20.6825,20.6825,20.6825,20.6825,20.6666,17.396,17.8307,17.9934,18.3106,18.7157,18.781,18.8013,18.8013,18.8013,18.8013,18.8013,18.8227,18.8959,19.001,19.0315,19.1081,19.2275,19.2275,19.2132,19.149,18.992,18.8726,18.8797,18.8797,18.944,19.0296,19.0457,19.1295,19.2793,19.3863,19.5005,19.5148,19.6238,19.7165,19.6808,19.7165,19.6951,19.6808,19.7023,19.6951,19.688,19.5809,19.4934,19.4577,19.2294,19.0743,19.0296,18.9083,18.8155,18.8013,18.8013,18.8013,18.8013,18.8013,18.8013,18.8013,18.8013,18.8013,18.8013,18.8013,18.8013,18.8103,18.9,18.9987,18.9968,19.0809,19.1985,19.2635,19.2875,19.4055,19.6985,19.9773,20.2742,20.6847,21.024,21.1716,21.1946,21.2224,21.2565,21.2382,21.1964,21.1621,21.0863,21.1515,21.0394,20.8994,20.8809,20.8136,20.7143,20.6633,20.6514,20.628,20.5876,20.6141,20.594,20.674,20.674,20.6825,20.6825,20.675,20.6825,20.6825,20.6825,20.6825,20.6825,20.6825,20.6825,20.6825,20.6825,20.6825,20.6825,20.6825,20.6825,20.6825,20.674,17.2199,17.6251,17.8328,18.171,18.5633,18.738,18.8013,18.8013,18.8013,18.8013,18.8013,18.8013,18.8298,18.8726,18.8869,18.9154,18.9654,18.9725,18.9725,18.9421,18.8298,18.8013,18.8013,18.8013,18.8369,18.8797,18.8816,18.9654,19.1152,19.1813,19.2598,19.3435,19.4078,19.4434,19.4363,19.4363,19.4363,19.4363,19.4434,19.4363,19.422,19.3792,19.3007,19.2027,19.0957,18.9887,18.8869,18.8298,18.8013,18.8013,18.8013,18.8013,18.8013,18.7941,18.8013,18.8013,18.7941,18.7941,18.8013,18.7889,18.8013,18.8193,18.9323,19.0077,19.0376,19.154,19.2962,19.389,19.4778,19.6218,19.866,20.1759,20.4134,20.5345,20.8286,21.0026,21.036,21.1057,21.158,21.143,21.1536,21.1397,21.0734,21.0798,20.9547,20.8725,20.8051,20.7359,20.7134,20.6825,20.672,20.671,20.6825,20.6825,20.6825,20.6825,20.6825,20.6825,20.6825,20.6825,20.6825,20.6825,20.6825,20.6825,20.6825,20.6825,20.6825,20.6825,20.6825,20.6825,20.6825,20.6825,20.6825,20.6825,20.6825,17.1616,17.5432,17.8371,18.1829,18.5462,18.7176,18.8013,18.8013,18.8013,18.8013,18.8013,18.8013,18.8013,18.8013,18.8013,18.8013,18.8013,18.8013,18.8013,18.8084,18.8013,18.8013,18.8013,18.8013,18.8013,18.8013,18.8013,18.8583,18.953,19.0101,19.0814,19.1866,19.2417,19.2631,19.2774,19.2631,19.2631,19.2631,19.2631,19.2631,19.2631,19.2132,19.1438,19.0386,18.9815,18.9083,18.8084,18.8013,18.8013,18.7941,18.7529,18.6973,18.6598,18.653,18.6514,18.6514,18.6514,18.6675,18.7104,18.7212,18.7373,18.8211,18.9807,19.0733,19.0958,19.276,19.4626,19.6144,19.7148,19.85,20.0378,20.3844,20.5514,20.5205,20.7134,20.8595,20.8725,20.9452,21.0115,21.02,21.0125,21.02,20.9901,20.9313,20.851,20.8211,20.7518,20.6975,20.6825,20.6825,20.6825,20.6825,20.6825,20.6825,20.6825,20.6825,20.6825,20.6825,20.6825,20.6825,20.6825,20.6825,20.6825,20.6825,20.6825,20.6825,20.6825,20.6825,20.6825,20.6825,20.6825,20.6825,20.6825,20.6825,20.6825,17.2505,17.6488,18.0266,18.39,18.7404,18.7867,18.8013,18.8013,18.8013,18.8013,18.8013,18.8013,18.8013,18.8013,18.8013,18.8013,18.8013,18.8013,18.8013,18.8013,18.8013,18.8013,18.8013,18.8013,18.8013,18.8013,18.8013,18.8013,18.8298,18.9458,19.0101,19.0529,19.158,19.2061,19.2489,19.2203,19.2346,19.2203,19.2132,19.2275,19.2417,19.1009,19.0243,19.0029,18.8888,18.8084,18.8013,18.787,18.7799,18.7637,18.6437,18.4949,18.3915,18.3709,18.3536,18.375,18.3645,18.4269,18.5627,18.6097,18.7011,18.8479,19.0798,19.2409,19.2809,19.4901,19.7002,19.8272,19.9027,19.9943,20.1571,20.333,20.4741,20.6376,20.6461,20.6835,20.6825,20.69,20.69,20.7199,20.7349,20.6975,20.6975,20.7134,20.7209,20.7209,20.6975,20.6825,20.6825,20.6825,20.6825,20.6825,20.6825,20.6825,20.6825,20.675,20.6676,20.6526,20.6152,20.5843,20.5544,20.6057,20.5983,20.6048,20.6048,20.6048,20.5973,20.5993,20.6152,20.6825,20.6825,20.6825,20.6825,20.6825,20.6825,17.0198,17.6233,17.9324,18.3402,18.7795,18.8013,18.8013,18.8013,18.8013,18.8013,18.8013,18.8013,18.8013,18.8013,18.8013,18.8013,18.8013,18.8013,18.8013,18.8013,18.8013,18.8013,18.8013,18.8013,18.8013,18.8013,18.8013,18.8013,18.8084,18.8441,18.8745,18.8726,18.9226,18.944,18.9511,18.9511,18.9511,18.9492,18.944,18.9511,18.9421,18.894,18.8726,18.8655,18.8227,18.8013,18.7941,18.6924,18.6424,18.621,18.4889,18.3836,18.3353,18.332,18.3322,18.3395,18.4153,18.546,18.6926,18.7984,18.9245,19.0899,19.2855,19.3991,19.4105,19.5795,19.702,19.7777,19.8675,20.0105,20.161,20.2358,20.2956,20.348,20.4472,20.5135,20.514,20.6057,20.6591,20.6666,20.6666,20.675,20.6825,20.6825,20.6825,20.6825,20.6825,20.6825,20.6825,20.6825,20.6825,20.6825,20.6825,20.6825,20.6376,20.5479,20.5115,20.4293,20.3694,20.3386,20.3301,20.4393,20.4906,20.5046,20.5121,20.5121,20.5066,20.5086,20.5619,20.6601,20.6376,20.5853,20.6302,20.6526,20.6282,16.9192,17.4896,17.9257,18.3728,18.7833,18.8013,18.8013,18.8013,18.8013,18.8013,18.8013,18.8013,18.8013,18.8013,18.8013,18.8013,18.8013,18.8013,18.8013,18.8013,18.8013,18.8013,18.8013,18.8013,18.8013,18.8013,18.8013,18.8013,18.8013,18.8013,18.8013,18.8013,18.8013,18.8013,18.8013,18.8013,18.8013,18.8013,18.8013,18.8013,18.8084,18.8013,18.7637,18.7138,18.6586,18.63,18.6229,18.5373,18.4783,18.4783,18.3323,18.2448,18.2394,18.1894,18.1609,18.1699,18.2949,18.4493,18.6051,18.7938,18.9764,19.1462,19.3486,19.4719,19.502,19.602,19.7179,19.7852,19.8909,19.9731,20.0853,20.1002,20.1321,20.1873,20.2875,20.3444,20.37,20.4353,20.528,20.5748,20.5898,20.6207,20.6516,20.6825,20.6825,20.6825,20.6825,20.6825,20.6825,20.6825,20.6825,20.6825,20.6825,20.6451,20.5554,20.4068,20.3256,20.2274,20.1844,20.1854,20.2088,20.3125,20.3411,20.3486,20.3511,20.3511,20.3441,20.347,20.362,20.4517,20.4592,20.4367,20.5115,20.4383,20.4587,16.9408,17.2624,17.9805,18.4652,18.787,18.7941,18.8013,18.8013,18.8013,18.8013,18.8013,18.8013,18.8013,18.8013,18.8013,18.8013,18.8013,18.8013,18.8013,18.8013,18.8013,18.8013,18.8013,18.8013,18.8013,18.8013,18.8013,18.8013,18.8013,18.8013,18.8013,18.8013,18.8013,18.8013,18.8013,18.8013,18.8013,18.8013,18.8013,18.8013,18.7941,18.7799,18.6852,18.5568,18.416,18.3536,18.3446,18.3322,18.3179,18.325,18.1681,18.0842,18.0753,17.9379,17.8754,17.8944,18.0321,18.1885,18.3728,18.639,18.8591,19.0279,19.3035,19.4784,19.4851,19.6095,19.7404,19.9058,19.9049,19.9133,19.9357,19.9348,19.991,20.1173,20.1651,20.1873,20.1857,20.2166,20.2679,20.383,20.4214,20.4672,20.6142,20.6601,20.6526,20.675,20.6825,20.6825,20.6825,20.6666,20.6516,20.6516,20.6142,20.5479,20.2648,20.1825,20.1825,20.1087,20.0592,20.1332,20.1651,20.1866,20.1835,20.1831,20.1812,20.1831,20.1806,20.1909,20.1975,20.2134,20.2283,20.2667,20.3181,20.2335,20.2484,17.1435,17.4412,17.767,18.1874,18.6334,18.7513,18.8013,18.8013,18.8013,18.8013,18.8013,18.8013,18.8013,18.8013,18.8013,18.8013,18.8013,18.8013,18.8013,18.8013,18.8013,18.8013,18.8013,18.8013,18.8013,18.8013,18.8013,18.8013,18.8013,18.8013,18.8013,18.8013,18.8013,18.8013,18.8013,18.8013,18.8013,18.8013,18.8013,18.8013,18.7656,18.5729,18.4392,18.3946,18.3517,18.3322,18.3232,18.2162,18.1591,18.1591,18.0075,17.9165,17.9094,17.8737,17.892,18.0192,18.2499,18.4556,18.6082,18.7914,18.9665,19.1347,19.3402,19.4636,19.487,19.602,19.7095,19.7553,19.7628,19.7628,19.7628,19.7628,19.7787,19.8255,19.9489,20.0097,20.0189,20.134,20.2078,20.2478,20.2634,20.2838,20.3301,20.4322,20.5444,20.6376,20.6666,20.6825,20.674,20.5739,20.4971,20.4971,20.3974,20.2498,20.0629,20.017,19.9413,19.8909,19.8544,19.8573,19.8339,19.9489,20.0124,20.0086,20.0115,20.0124,20.0124,20.0095,20.0161,20.0414,20.1125,20.1912,20.148,20.1883,20.1873,17.4011,17.63,17.8821,18.214,18.5618,18.7281,18.8013,18.8013,18.8013,18.8013,18.7941,18.7299,18.6995,18.7066,18.7727,18.8013,18.8013,18.8013,18.8013,18.8013,18.8013,18.8013,18.8013,18.8013,18.8013,18.8013,18.8013,18.8013,18.8013,18.8013,18.8013,18.8013,18.8013,18.8013,18.8013,18.8013,18.8013,18.7941,18.737,18.6995,18.6728,18.4588,18.3018,18.2376,18.1662,18.1324,18.1252,18.0449,17.995,17.9878,17.904,17.8166,17.7524,17.7525,17.7839,17.8762,18.0414,18.2482,18.5222,18.8022,18.9963,19.0918,19.2609,19.3571,19.3646,19.5019,19.5665,19.516,19.5544,19.5992,19.5992,19.6506,19.6871,19.703,19.7722,19.8414,19.8414,19.934,20.0237,20.0843,20.0925,20.1149,20.1965,20.2751,20.3724,20.4517,20.4767,20.4662,20.4737,20.4044,20.3371,20.3037,20.1357,19.9656,19.8675,19.8441,19.7992,19.7245,19.6871,19.6871,19.7179,19.7946,19.8414,19.8404,19.8404,19.8404,19.8489,19.8376,19.8431,19.8525,19.9405,19.9873,19.991,19.9929,19.9873,17.6715,17.8281,18.1196,18.3803,18.5211,18.7014,18.7727,18.7727,18.7727,18.7727,18.7299,18.621,18.5711,18.5782,18.6514,18.68,18.68,18.6443,18.63,18.6728,18.7085,18.7442,18.7941,18.8013,18.8013,18.8013,18.8013,18.8013,18.8013,18.8013,18.8013,18.8013,18.8013,18.8013,18.8013,18.8013,18.8013,18.7941,18.6424,18.5568,18.5354,18.3874,18.2394,18.0788,17.9236,17.8469,17.8683,17.8469,17.8451,17.8469,17.8469,17.7667,17.6151,17.5868,17.5787,17.5543,17.5819,17.775,18.2106,18.6708,18.9242,18.94,19.0849,19.1776,19.1908,19.3188,19.3394,19.2543,19.3384,19.4282,19.4441,19.5693,19.6506,19.6487,19.6871,19.6871,19.703,19.6871,19.7534,19.9075,19.9234,19.9712,20.0853,20.1461,20.176,20.1984,20.2309,20.2494,20.241,20.2026,20.1672,20.0908,19.9058,19.7329,19.7104,19.6945,19.702,19.702,19.6871,19.6871,19.6871,19.702,19.6945,19.7413,19.7104,19.7179,19.7104,19.6945,19.703,19.7329,19.7254,19.7104,19.6945,19.7179,19.7329,17.7587,18.008,17.9789,18.0521,18.2215,18.4963,18.6157,18.6139,18.6139,18.5497,18.4588,18.5283,18.564,18.5283,18.218,18.0753,17.9968,17.558,17.6079,18.0235,18.0592,18.3232,18.7584,18.8013,18.8013,18.8013,18.8013,18.8013,18.8013,18.8013,18.8013,18.8013,18.8013,18.8013,18.8013,18.8013,18.8013,18.787,18.6461,18.5034,18.3892,18.2304,18.0663,17.9094,17.8612,17.8469,17.8469,17.8469,17.8469,17.8469,17.8469,17.7131,17.4542,17.4298,17.3705,17.264,17.4444,17.7199,18.0548,18.5057,18.7701,18.7776,18.9167,19.0121,19.0086,19.045,19.0478,19.0375,19.158,19.2637,19.2786,19.4132,19.5086,19.5178,19.6179,19.6721,19.6871,19.6871,19.7095,19.7319,19.7469,19.7618,19.8151,19.9208,19.9965,20.0218,20.121,20.1893,20.1818,20.0742,19.9432,19.8385,19.7478,19.6945,19.6871,19.6871,19.6871,19.6871,19.6871,19.6871,19.6871,19.6871,19.6871,19.6871,19.6871,19.6871,19.6871,19.6871,19.6871,19.6871,19.6871,19.6871,19.6871,19.6871,19.6871,17.7989,18.0715,17.995,18.0164,18.1163,18.3536,18.4963,18.5211,18.036,17.7167,17.6257,18.0449,18.2786,18.3285,18.1609,18.1109,18.1591,17.822,17.8505,18.1716,18.2447,18.4659,18.7799,18.8013,18.8013,18.8013,18.8013,18.8013,18.8013,18.8013,18.8013,18.8013,18.8013,18.8013,18.8013,18.8013,18.8013,18.787,18.3536,18.0539,17.8951,17.5312,17.2655,17.1031,17.1673,17.203,17.203,17.1316,17.0983,17.1028,17.0259,16.9469,16.8566,16.8991,16.9216,16.8979,17.1579,17.4243,17.6497,18.1134,18.4758,18.7019,18.8009,18.8449,18.8478,18.8469,18.8478,18.8515,18.9935,19.0917,19.0944,19.2421,19.3431,19.3412,19.4151,19.5001,19.5655,19.587,19.6179,19.6796,19.6871,19.6871,19.6871,19.7703,19.8245,19.8329,19.8956,19.9564,19.9564,19.8797,19.7946,19.7179,19.6871,19.6871,19.6871,19.6871,19.6871,19.6871,19.6871,19.6871,19.6871,19.6871,19.6871,19.6871,19.6871,19.6871,19.6871,19.6871,19.6871,19.6871,19.6871,19.6871,19.6871,19.6871,19.6871,17.7472,18.0592,18.036,17.9789,17.9076,18.0663,18.1662,18.1626,17.3422,16.8874,16.7908,17.4758,17.8951,18.0931,18.1163,18.2376,18.4141,18.291,18.3071,18.4355,18.564,18.6871,18.7941,18.8013,18.8013,18.8013,18.8013,18.8013,18.8013,18.8013,18.8013,18.8013,18.8013,18.8013,18.8013,18.8013,18.7513,18.6514,17.9878,17.6079,17.542,17.0015,16.5806,16.3095,16.445,16.4681,16.3539,16.2452,16.1562,16.1148,15.9462,15.8732,15.9458,16.0333,16.1544,16.2741,16.5521,16.82,17.0316,17.4954,18.0183,18.5484,18.6804,18.6543,18.5311,18.631,18.716,18.7234,18.844,18.9131,18.8934,19.0318,19.1254,19.1282,19.1553,19.2403,19.4011,19.4207,19.4786,19.6254,19.6572,19.6581,19.6805,19.6945,19.703,19.6945,19.7338,19.7104,19.7254,19.6871,19.6871,19.6871,19.6871,19.6871,19.6871,19.6871,19.6871,19.6871,19.6871,19.6871,19.6871,19.6871,19.6871,19.6871,19.6871,19.6871,19.6871,19.6871,19.6871,19.6871,19.6871,19.6871,19.6871,19.6871,19.6871,17.4866,17.8701,17.7524,17.4028,16.9407,17.0942,16.957,16.6574,0.0,0.0,0.0,17.344,17.6989,18.0503,17.4438,17.3868,17.715,16.9801,17.0426,17.772,17.8077,18.1662,18.787,18.8013,18.8013,18.8013,18.8013,18.8013,18.8013,18.8013,18.8013,18.8013,18.8013,18.8013,18.8013,18.8013,18.5373,18.0307,17.8737,17.9807,18.3357,18.1234,17.5526,16.6195,16.7463,16.5235,15.9028,15.9615,15.8993,15.646,15.3525,15.0286,14.6866,14.6408,14.6437,14.6809,15.0176,15.4693,16.0204,16.4972,17.1516,18.0493,18.4846,18.3771,17.5585,18.2456,18.716,18.716,18.7459,18.7019,18.5691,18.7049,18.8057,18.8028,18.923,19.0597,19.2186,19.2515,19.3104,19.4646,19.5001,19.5478,19.6656,19.6796,19.6871,19.6871,19.6871,19.6871,19.6871,19.6871,19.6871,19.6871,19.6871,19.6871,19.6871,19.6871,19.6871,19.6871,19.6871,19.6871,19.6871,19.6871,19.6871,19.6796,19.6871,19.6796,19.6871,19.6646,19.6871,19.6871,19.6871,19.6871,19.6871,19.6871,19.6796,17.1423,0.0,17.4028,17.153,0.0,17.0443,16.5235,15.5175,15.8243,16.0455,16.2326,16.6947,17.1228,17.4795,17.0871,17.1656,17.5794,17.0497,17.1442,17.7399,17.9022,18.1876,18.5658,18.7228,18.7584,18.6852,18.7584,18.8013,18.8013,18.8013,18.63,18.3179,18.3161,18.1163,17.7381,17.8006,17.6864,17.3742,17.6097,17.8434,18.0503,17.6953,17.2332,16.7123,16.8319,0.0,0.0,0.0,0.0,0.0,0.0,0.0,0.0,0.0,0.0,13.6179,13.4858,13.5421,13.7847,14.3186,15.026,15.9124,16.4393,16.4049,15.6756,16.5229,17.1612,17.3293,17.655,17.9475,18.1903,18.3654,18.4323,18.363,18.4798,18.6851,18.9074,18.9572,19.0563,19.2721,19.33,19.3908,19.5544,19.5693,19.5992,19.6731,19.6871,19.6871,19.6871,19.6871,19.6871,19.6871,19.6871,19.6871,19.6871,19.6871,19.6871,19.6871,19.6871,19.6871,19.6871,19.6254,19.5711,19.5636,19.5019,19.4477,19.4487,19.4459,19.4712,19.5506,19.574,19.5544,19.4646,19.517,19.5768,16.779,17.0141,17.0103,16.8534,16.6234,16.8731,16.181,14.8769,14.747,14.9182,15.3208,15.9472,16.4307,16.7661,16.7161,16.9587,17.4224,17.2709,17.3868,17.7399,18.0182,18.2108,18.3393,18.5587,18.6424,18.6139,18.7085,18.7656,18.8013,18.8013,18.5301,18.0378,18.0235,17.6542,16.9407,0.0,0.0,0.0,17.3885,17.715,17.8077,17.31,16.9478,16.7765,16.9159,0.0,16.7875,16.6821,16.6043,16.547,16.3918,0.0,0.0,0.0,0.0,0.0,0.0,0.0,0.0,0.0,0.0,0.0,13.8228,13.9718,13.9619,14.7042,15.2924,15.5776,16.4137,17.0659,17.3542,17.5421,17.6792,17.7337,17.8537,18.1204,18.5673,18.6507,18.7816,19.0805,19.1431,19.2188,19.3758,19.4067,19.4581,19.5618,19.6282,19.6357,19.5983,19.5833,19.5899,19.6029,19.573,19.5899,19.5983,19.5908,19.5684,19.5983,19.5983,19.5899,19.573,19.4786,19.4094,19.4085,19.2982,19.2132,19.2132,19.2048,19.2618,19.3842,19.4104,19.3693,19.2356,19.3179,19.4123,16.4536,16.5378,16.5323,16.124,15.4921,15.5262,15.4263,15.2138,15.1908,15.2194,15.2851,15.3835,15.753,16.2722,16.0169,16.2255,16.7765,16.6322,16.8034,17.2387,17.4224,17.7934,18.3179,18.2304,18.3946,18.7513,18.6496,18.6638,18.7941,18.8013,18.7584,18.68,18.6728,18.3536,17.7185,17.1744,16.8445,16.7194,17.4402,18.0806,18.6229,18.4355,17.929,17.1405,17.2369,16.9998,16.3451,16.4093,16.3511,16.0829,15.9141,15.2922,14.1712,13.8838,13.0088,0.0,10.9665,0.0,0.0,0.0,0.0,0.0,0.0,0.0,0.0,13.8499,14.0209,14.0623,15.71,16.3314,15.2778,15.4569,15.9723,16.7829,16.9155,17.2858,18.1563,18.4103,18.5723,18.7648,18.8992,19.0459,19.1814,19.2403,19.2347,19.2879,19.3459,19.2926,19.2637,19.2253,19.2441,19.2646,19.2683,19.3039,19.3001,19.2852,19.2852,19.2786,19.2861,19.2674,19.2739,19.2487,19.231,19.2234,19.1832,19.1786,19.202,19.187,19.2029,19.2244,19.2179,19.2057,19.1887,19.2093,19.2403,16.0284,15.9258,15.9274,15.3208,14.3646,14.3646,14.4574,14.6058,14.4345,14.4631,14.6129,14.4431,14.6628,15.148,15.0196,15.2979,15.8758,15.7316,15.9599,16.4966,16.7447,17.1014,17.5526,17.9236,18.1591,18.2804,18.5587,18.6852,18.671,18.7584,18.6157,18.2822,18.2822,17.6614,16.484,16.5822,16.8819,17.3348,17.6757,18.1538,18.7656,18.7299,18.4944,18.0806,18.1288,18.0003,17.665,17.7167,17.6831,17.5529,17.549,16.77,15.0741,13.9357,12.582,0.0,0.0,0.0,0.0,0.0,0.0,0.0,0.0,0.0,0.0,0.0,12.0382,12.7785,15.1308,16.1811,15.1432,15.258,15.3151,15.114,14.9379,15.2864,16.4473,16.8053,17.0312,17.1899,17.752,18.2,18.3654,18.4701,18.6804,19.1449,18.561,18.0294,17.9061,18.3262,18.6546,18.6715,18.9703,19.2011,19.2029,19.2038,19.2057,19.1944,19.1261,19.0636,19.0581,18.9189,18.7975,18.7907,18.7207,18.6872,18.7796,18.7946,18.8628,18.9767,18.9262,18.8458,18.9167,18.999,19.0654,15.4983,15.1995,14.8284,14.0934,13.1872,13.18,13.3571,13.6198,13.3928,13.4213,13.6269,13.3928,13.4213,13.6568,13.6153,13.9721,14.6072,14.59,14.9682,15.6475,16.0043,16.3879,16.8231,17.4581,17.8095,17.9308,18.3589,18.5872,18.6139,18.4374,18.0521,17.4973,17.4911,16.7153,15.2577,15.9941,16.87,17.7815,17.9771,18.3107,18.7799,18.8013,18.8013,18.8013,18.8013,18.8013,18.8013,18.8013,18.8013,18.7926,18.5577,17.5317,15.5624,13.6793,0.0,0.0,0.0,0.0,0.0,0.0,0.0,0.0,0.0,9.0954,7.7316,0.0,10.5103,0.0,14.2967,15.5156,14.9637,14.7775,0.0,0.0,13.1429,13.3205,14.5378,15.0797,15.4294,15.6227,16.4797,17.1299,17.2961,17.498,17.9093,18.6065,17.7872,17.0032,16.7431,17.4922,18.0451,17.9285,18.2531,18.6124,18.5696,18.7404,18.8691,19.0083,18.8877,18.7671,18.7231,18.5383,18.3768,18.2994,18.2342,18.2549,18.3416,18.3798,18.4937,18.646,18.5897,18.5084,18.6289,18.7878,18.8934,14.8264,14.2932,12.8589,12.1168,11.8932,11.8944,12.0716,12.3486,12.3343,12.3343,12.3557,12.3272,12.106,11.7268,11.5804,0.0,12.7019,13.1171,13.7923,14.6885,15.1552,15.7617,16.4807,16.698,17.2404,18.0735,17.9664,18.2162,18.6942,17.6365,16.8231,16.361,16.4048,15.9006,14.9586,15.8212,16.7295,17.5489,18.3216,18.7442,18.7941,18.8013,18.8013,18.8013,18.8013,18.8013,18.8013,18.8013,18.8013,18.7535,17.4754,15.9974,14.3727,0.0,0.0,0.0,0.0,0.0,0.0,0.0,0.0,0.0,0.0,0.0,0.0,0.0,0.0,0.0,12.9721,0.0,13.8787,12.9625,0.0,0.0,0.0,11.8848,12.8934,13.6947,14.292,14.6004,0.0,0.0,16.1146,16.4212,16.8167,17.3268,17.4262,17.2151,16.6094,17.1838,17.5427,16.9838,16.9242,16.9469,17.141,17.4915,17.9308,18.317,18.3861,18.1894,18.0557,18.0965,18.0974,17.8253,18.0193,18.1643,18.036,18.0976,18.1956,18.0804,18.2616,18.4578,18.4912,18.6232,18.7402,13.3201,11.7172,11.0025,10.6661,10.6172,10.6161,10.9515,11.5008,11.4009,11.3093,11.2083,11.0228,10.6233,10.0862,10.022,0.0,0.0,0.0,12.0644,13.1618,13.7366,14.563,15.5873,16.1454,16.6964,17.2546,17.7524,18.0806,18.2251,18.102,16.1701,12.545,0.0,0.0,12.4101,14.2247,15.7422,16.9423,18.1677,18.8013,18.8013,18.8013,18.8013,18.8013,18.8013,18.8013,18.8013,18.8013,18.2838,17.1912,16.469,14.8985,0.0,0.0,0.0,0.0,0.0,0.0,0.0,0.0,0.0,0.0,0.0,7.3969,6.5262,0.0,0.0,0.0,10.5483,11.1258,11.6578,12.3752,0.0,0.0,0.0,0.0,0.0,0.0,0.0,12.1113,13.8352,15.0745,15.2397,15.381,15.4924,15.5874,15.4867,15.3049,15.0539,0.0,16.3232,16.5621,16.5074,16.5825,16.9688,16.6756,16.4869,16.7918,17.0158,17.1155,16.9812,17.331,17.4964,17.2478,17.3159,17.4846,17.5248,17.409,17.3517,17.5071,17.7979,18.0838,18.2778,18.4481,18.6008,11.3795,0.0,0.0,0.0,0.0,9.134,9.5255,10.1514,10.0045,9.869,9.7538,9.4836,0.0,0.0,0.0,0.0,0.0,0.0,10.6079,11.6994,12.6579,13.6354,14.6385,15.252,15.7458,16.1486,16.6448,16.8034,16.664,16.7617,14.3798,9.7202,0.0,0.0,0.0,0.0,14.7688,16.1458,17.9316,18.837,18.796,18.8013,18.8013,18.8013,18.8013,18.813,18.8534,18.311,17.3841,16.0341,14.8267,0.0,0.0,0.0,0.0,0.0,0.0,0.0,0.0,0.0,0.0,0.0,0.0,0.0,0.0,0.0,0.0,0.0,0.0,0.0,9.937,11.3897,11.4276,0.0,0.0,0.0,0.0,0.0,0.0,0.0,0.0,0.0,13.8129,14.2754,14.6653,0.0,0.0,14.6732,14.2948,14.9467,15.516,15.6319,15.5581,0.0,15.9867,15.5829,15.2988,15.5171,16.0876,16.3663,15.9658,16.2517,16.3817,15.8904,16.2277,16.4629,16.2509,15.9125,15.7976,16.1161,16.4436,16.7542,17.0406,17.345,17.5644,0.0,0.0,0.0,0.0,0.0,0.0,0.0,0.0,7.9494,7.8931,0.0,7.7132,0.0,0.0,0.0,0.0,0.0,8.613,0.0,0.0,12.0942,13.1859,13.6439,13.8409,14.2533,14.7913,14.2761,13.9136,13.6707,12.6176,0.0,0.0,0.0,0.0,0.0,0.0,13.9305,15.1494,17.6806,18.9339,18.8016,18.8013,18.8013,18.8013,18.8013,18.8444,18.9091,17.1471,16.0392,15.7481,12.2976,0.0,0.0,0.0,0.0,0.0,0.0,0.0,0.0,0.0,0.0,0.0,0.0,0.0,0.0,0.0,0.0,0.0,0.0,0.0,0.0,9.6408,0.0,0.0,0.0,0.0,0.0,0.0,0.0,0.0,0.0,0.0,11.5935,13.1202,14.5407,15.1306,0.0,0.0,0.0,0.0,15.4206,13.95,13.6576,13.5725,13.3022,13.9745,14.6564,14.9637,0.0,0.0,15.2122,14.9382,14.6168,13.8228,14.7232,15.1553,13.9058,13.4209,13.3185,13.632,13.9902,14.2139,14.417,14.9949,15.3966,0.0,0.0,0.0,0.0,0.0,0.0,0.0,0.0,0.0,7.1787,0.0,6.8199,0.0,0.0,0.0,0.0,0.0,0.0,0.0,0.0,9.8846,10.8539,11.4937,12.0632,12.4401,0.0,12.4601,11.2973,0.0,0.0,0.0,0.0,0.0,0.0,0.0,0.0,13.4669,14.4991,17.4458,18.9407,18.8053,18.8013,18.8013,18.8013,18.8013,18.2108,16.968,15.3312,13.9233,0.0,0.0,0.0,0.0,0.0,0.0,0.0,0.0,0.0,0.0,0.0,0.0,0.0,0.0,0.0,0.0,0.0,0.0,0.0,0.0,0.0,0.0,0.0,8.3952,0.0,0.0,0.0,0.0,0.0,0.0,0.0,0.0,0.0,10.593,12.0145,13.4184,14.3966,14.8008,15.0764,15.2651,0.0,0.0,0.0,0.0,0.0,0.0,0.0,13.3777,12.8549,12.7116,12.7069,12.9008,13.4182,13.6482,13.1577,0.0,0.0,11.6734,11.4723,11.6763,11.8954,12.3923,12.7908,12.8362,13.2864,13.6673,0.0,0.0,0.0,0.0,0.0,0.0,0.0,0.0,0.0,6.2237,6.0162,0.0,0.0,0.0,0.0,0.0,0.0,0.0,0.0,0.0,0.0,0.0,9.8245,10.3439,0.0,0.0,0.0,0.0,0.0,0.0,0.0,0.0,0.0,0.0,0.0,0.0,13.0877,14.0923,17.3499,19.0149,18.8784,18.9169,18.9204,18.8713,18.8193,17.8808,15.9523,0.0,0.0,0.0,0.0,0.0,0.0,0.0,0.0,0.0,0.0,0.0,0.0,0.0,0.0,0.0,0.0,0.0,0.0,0.0,0.0,0.0,0.0,0.0,0.0,0.0,7.3599,0.0,0.0,0.0,0.0,0.0,0.0,0.0,0.0,0.0,0.0,0.0,12.1628,13.3091,14.0045,14.6218,15.2279,15.3833,15.5972,0.0,0.0,0.0,0.0,0.0,0.0,0.0,0.0,0.0,0.0,0.0,0.0,0.0,0.0,11.4127,9.8427,9.6763,9.8187,9.9194,0.0,0.0,0.0,0.0,0.0,0.0,0.0,0.0,0.0,0.0,0.0,0.0,0.0,0.0,0.0,0.0,0.0,0.0,4.7168,0.0,0.0,0.0,0.0,0.0,0.0,0.0,0.0,0.0,0.0,0.0,0.0,0.0,0.0,0.0,0.0,0.0,0.0,0.0,0.0,0.0,0.0,12.8118,13.8198,17.3695,19.1467,19.0056,19.1454,19.1409,18.9933,18.8212,17.8627,16.0077,0.0,0.0,0.0,0.0,0.0,0.0,0.0,0.0,0.0,0.0,0.0,0.0,0.0,0.0,0.0,0.0,0.0,0.0,0.0,0.0,0.0,0.0,0.0,0.0,0.0,0.0,6.9508,7.3626,7.5229,0.0,0.0,0.0,0.0,0.0,0.0,0.0,0.0,0.0,0.0,13.7965,14.9763,14.8832,14.8268,14.8147,14.664,13.9449,13.5546,14.0303,14.4592,14.3797,0.0,0.0,0.0,0.0,0.0,0.0,0.0,0.0,0.0,0.0,0.0,0.0,0.0,0.0,0.0,0.0,0.0,0.0,0.0,0.0,0.0,0.0,0.0,0.0,0.0,0.0,0.0,0.0,0.0,0.0,0.0,0.0,0.0,0.0,0.0,0.0,0.0,0.0,0.0,0.0,0.0,0.0,0.0,0.0,0.0,0.0,0.0,0.0,0.0,0.0,0.0,0.0,0.0,0.0,12.8614,13.6435,17.2219,18.9961,18.8387,18.7808,18.782,18.8179,17.9423,16.5738,0.0,0.0,0.0,0.0,0.0,0.0,0.0,0.0,0.0,0.0,0.0,0.0,0.0,0.0,0.0,0.0,0.0,0.0,0.0,0.0,0.0,0.0,0.0,0.0,0.0,0.0,0.0,0.0,7.5788,7.6256,7.1903,0.0,0.0,0.0,0.0,0.0,0.0,0.0,0.0,0.0,0.0,14.7582,15.6046,15.5986,15.5738,15.7341,15.3416,14.9196,14.626,14.7878,14.4029,12.7864,0.0,0.0,0.0,0.0,0.0,0.0,0.0,0.0,0.0,0.0,0.0,0.0,0.0,0.0,0.0,0.0,0.0,0.0,0.0,0.0,0.0,0.0,0.0,0.0,0.0,0.0,0.0,0.0,0.0,0.0,0.0,0.0,0.0,0.0,0.0,0.0,0.0,0.0,0.0,0.0,0.0,0.0,0.0,0.0,0.0,0.0,0.0,0.0,0.0,0.0,0.0,0.0,0.0,12.6059,13.6729,17.1161,18.9444,19.024,19.001,18.9402,18.8561,17.6697,15.9505,0.0,0.0,0.0,0.0,0.0,0.0,0.0,0.0,0.0,0.0,0.0,0.0,0.0,0.0,0.0,0.0,0.0,0.0,0.0,0.0,0.0,0.0,0.0,0.0,0.0,0.0,0.0,0.0,7.0363,7.2442,7.0656,0.0,0.0,0.0,0.0,0.0,0.0,0.0,0.0,0.0,0.0,13.7214,14.814,14.7994,0.0,0.0,15.1021,14.644,14.7042,14.9394,14.3879,12.2698,11.3912,0.0,0.0,0.0,0.0,0.0,0.0,0.0,0.0,0.0,0.0,0.0,0.0,0.0,0.0,0.0,0.0,0.0,0.0,0.0,0.0,0.0,0.0,0.0,0.0,0.0,0.0,0.0,0.0,0.0,0.0,0.0,0.0,0.0,0.0,0.0,0.0,0.0,0.0,0.0,0.0,0.0,0.0,0.0,0.0,0.0,0.0,0.0,0.0,0.0,0.0,0.0,0.0,0.0,13.7441,16.9597,18.8671,19.3531,19.5113,19.3611,18.9012,17.7373,15.7244,0.0,0.0,0.0,0.0,0.0,0.0,0.0,0.0,0.0,0.0,0.0,0.0,0.0,0.0,0.0,0.0,0.0,0.0,0.0,0.0,0.0,0.0,0.0,0.0,0.0,0.0,0.0,0.0,0.0,0.0,0.0,0.0,0.0,0.0,0.0,0.0,0.0,0.0,0.0,0.0,0.0,12.2325,13.0298,12.948,13.2562,0.0,13.5856,13.1252,14.2104,14.769,14.239,11.7251,0.0,0.0,0.0,0.0,0.0,0.0,0.0,0.0,0.0,0.0,0.0,0.0,0.0,0.0,0.0,0.0,0.0,0.0,0.0,0.0,0.0,0.0,0.0,0.0,0.0,0.0,0.0,0.0,0.0,0.0,0.0,0.0,0.0,0.0,0.0,0.0,0.0,0.0,0.0,0.0,0.0,0.0,0.0,0.0,0.0,0.0,0.0,0.0,0.0,0.0,0.0,0.0,0.0,0.0,12.8904,16.1284,17.9896,18.3383,18.3975,18.3663,18.2178,16.4438,0.0,0.0,0.0,0.0,0.0,0.0,0.0,0.0,0.0,0.0,0.0,0.0,0.0,0.0,0.0,0.0,0.0,0.0,0.0,0.0,0.0,0.0,0.0,0.0,0.0,0.0,0.0,5.1083,0.0,0.0,0.0,0.0,0.0,0.0,0.0,0.0,0.0,0.0,0.0,0.0,0.0,0.0,12.3009,13.1893,12.7684,12.6039,0.0,0.0,12.2067,12.5178,13.0443,12.9085,0.0,0.0,0.0,0.0,0.0,0.0,0.0,0.0,0.0,0.0,0.0,0.0,0.0,0.0,0.0,0.0,0.0,0.0,0.0,0.0,0.0,0.0,0.0,0.0,0.0,0.0,0.0,0.0,0.0,0.0,0.0,0.0,0.0,0.0,0.0,0.0,0.0,0.0,0.0,0.0,0.0,0.0,0.0,0.0,0.0,0.0,0.0,0.0,0.0,0.0,0.0,0.0,0.0,0.0,10.8508,12.5758,15.1832,17.0363,18.0329,18.0863,18.0233,17.8834,15.98,14.0264,0.0,0.0,0.0,0.0,0.0,0.0,0.0,0.0,0.0,0.0,0.0,0.0,0.0,0.0,0.0,0.0,0.0,0.0,0.0,0.0,0.0,0.0,0.0,0.0,0.0,0.0,0.0,0.0,0.0,0.0,0.0,0.0,0.0,0.0,0.0,0.0,0.0,0.0,0.0,0.0,0.0,0.0,12.5059,11.8378,0.0,0.0,0.0,11.3861,11.5677,0.0,0.0,0.0,0.0,0.0,0.0,0.0,0.0,0.0,0.0,0.0,0.0,0.0,0.0,0.0,0.0,0.0,0.0,0.0,0.0,0.0,0.0,0.0,0.0,0.0,0.0,0.0,0.0,0.0,0.0,0.0,0.0,0.0,0.0,0.0,0.0,0.0,0.0,0.0,0.0,0.0,0.0,0.0,0.0,0.0,0.0,0.0,0.0,0.0,0.0,0.0,0.0,0.0,0.0,0.0,0.0,0.0,12.3981,14.2764,16.1528,17.9625,18.0896,17.9466,17.6018,15.9508,13.9976,0.0,0.0,0.0,0.0,0.0,0.0,0.0,0.0,0.0,0.0,0.0,0.0,0.0,0.0,0.0,0.0,0.0,0.0,0.0,0.0,0.0,0.0,0.0,0.0,0.0,0.0,0.0,0.0,0.0,0.0,0.0,0.0,0.0,0.0,0.0,0.0,0.0,0.0,0.0,0.0,0.0,10.4861,11.4428,10.6083,10.0289,0.0,0.0,10.5292,10.9063,10.9774,0.0,0.0,0.0,0.0,0.0,0.0,0.0,0.0,0.0,0.0,0.0,0.0,0.0,0.0,0.0,0.0,0.0,0.0,0.0,0.0,0.0,0.0,0.0,0.0,0.0,0.0,0.0,0.0,0.0,0.0,0.0,0.0,0.0,0.0,0.0,0.0,0.0,0.0,0.0,0.0,0.0,0.0,0.0,0.0,0.0,0.0,0.0,0.0,0.0,0.0,0.0,0.0,0.0,0.0,0.0,0.0,11.7625,13.9467,15.7788,17.1623,17.3642,17.282,16.9289,15.817,14.0573,0.0,0.0,0.0,0.0,0.0,0.0,0.0,0.0,0.0,0.0,0.0,0.0,0.0,0.0,0.0,0.0,0.0,0.0,0.0,0.0,0.0,0.0,0.0,0.0,0.0,0.0,0.0,0.0,0.0,0.0,0.0,0.0,0.0,0.0,0.0,0.0,0.0,0.0,0.0,0.0,0.0,9.8483,10.9189,10.1205,0.0,0.0,0.0,0.0,9.5574,9.1705,0.0,0.0,0.0,0.0,0.0,0.0,0.0,0.0,0.0,0.0,0.0,0.0,0.0,0.0,0.0,0.0,0.0,0.0,0.0,0.0,0.0,0.0,0.0,0.0,0.0,0.0,0.0,0.0,0.0,0.0,0.0,0.0,0.0,0.0,0.0,0.0,0.0,0.0,0.0,0.0,0.0,0.0,0.0,0.0,0.0,0.0,0.0,0.0,0.0,0.0,0.0,0.0,0.0,0.0,0.0,0.0,11.6285,13.2587,14.9406,16.6829,16.9147,16.8773,16.6148,15.5837,13.8774,0.0,0.0,0.0,0.0,0.0,0.0,0.0,0.0,0.0,0.0,0.0,0.0,0.0,0.0,0.0,0.0,0.0,0.0,0.0,0.0,0.0,0.0,0.0,0.0,0.0,0.0,0.0,0.0,0.0,0.0,0.0,0.0,0.0,0.0,0.0,0.0,0.0,0.0,0.0,0.0,8.6486,9.1497,10.2052,0.0,0.0,0.0,0.0,0.0,0.0,8.5107,8.0451,0.0,0.0,0.0,0.0,0.0,0.0,0.0,0.0,0.0,0.0,0.0,0.0,0.0,0.0,0.0,0.0,0.0,0.0,0.0,0.0,0.0,0.0,0.0,0.0,0.0,0.0,0.0,0.0,0.0,0.0,0.0,0.0,0.0,0.0,0.0,0.0,0.0,0.0,0.0,0.0,0.0,0.0,0.0,0.0,0.0,0.0,0.0,0.0,0.0,0.0,0.0,0.0,0.0,0.0,0.0,11.457,12.519,14.1112,16.2775,16.5998,16.6372,16.398,15.3212,13.618,11.2788,0.0,0.0,0.0,0.0,0.0,0.0,0.0,0.0,0.0,0.0,0.0,0.0,0.0,0.0,0.0,0.0,0.0,0.0,0.0,0.0,0.0,0.0,0.0,0.0,0.0,0.0,0.0,0.0,0.0,0.0,0.0,0.0,0.0,0.0,0.0,0.0,0.0,0.0,0.0,8.1095,8.4739,0.0,0.0,0.0,0.0,0.0,0.0,0.0,0.0,7.8057,0.0,0.0,0.0,0.0,0.0,0.0,0.0,0.0,0.0,0.0,0.0,0.0,0.0,0.0,0.0,0.0,0.0,0.0,0.0,0.0,0.0,0.0,0.0,0.0,0.0,0.0,0.0,0.0,0.0,0.0,0.0,0.0,0.0,0.0,0.0,0.0,0.0,0.0,0.0,0.0,0.0,0.0,0.0,0.0,0.0,0.0,0.0,0.0,0.0,0.0,0.0,0.0,0.0,0.0,0.0,0.0,12.0628,13.8944,15.5971,16.368,16.5251,16.0772,15.0901,13.4044,10.9774,0.0,0.0,0.0,0.0,0.0,0.0,0.0,0.0,0.0,0.0,0.0,0.0,0.0,0.0,0.0,0.0,0.0,0.0,0.0,0.0,0.0,0.0,0.0,0.0,0.0,0.0,0.0,0.0,0.0,0.0,0.0,0.0,0.0,0.0,0.0,0.0,0.0,0.0,6.2947,7.0996,0.0,0.0,0.0,0.0,0.0,0.0,0.0,0.0,7.7374,0.0,0.0,0.0,0.0,0.0,0.0,0.0,0.0,0.0,0.0,0.0,0.0,0.0,0.0,0.0,0.0,0.0,0.0,0.0,0.0,0.0,0.0,0.0,0.0,0.0,0.0,0.0,0.0,0.0,0.0,0.0,0.0,0.0,0.0,0.0,0.0,0.0,0.0,0.0,0.0,0.0,0.0,0.0,0.0,0.0,0.0,0.0,0.0,0.0,0.0,0.0,0.0,0.0,0.0,0.0,0.0,0.0,0.0,13.4519,15.0752,16.0099,16.3248,15.9508,14.1935,12.3464,0.0,0.0,0.0,0.0,0.0,0.0,0.0,0.0,0.0,0.0,0.0,0.0,0.0,0.0,0.0,0.0,0.0,0.0,0.0,0.0,0.0,0.0,0.0,0.0,0.0,0.0,0.0,0.0,0.0,0.0,0.0,0.0,0.0,0.0,0.0,0.0,0.0,0.0,0.0,0.0,0.0,0.0,0.0,0.0,0.0,0.0,0.0,0.0,0.0,0.0,0.0,0.0,0.0,0.0,0.0,0.0,0.0,0.0,0.0,0.0,0.0,0.0,0.0,0.0,0.0,0.0,0.0,0.0,0.0,0.0,0.0,0.0,0.0,0.0,0.0,0.0,0.0,0.0,0.0,0.0,0.0,0.0,0.0,0.0,0.0,0.0,0.0,0.0,0.0,0.0,0.0,0.0,0.0,0.0,0.0,0.0,0.0,0.0,0.0,0.0,0.0,0.0,0.0,0.0,0.0,0.0,0.0,0.0,12.9365,14.4246,15.562,16.0181,15.734,13.2213,11.2022,0.0,0.0,0.0,0.0,0.0,0.0,0.0,0.0,0.0,0.0,0.0,0.0,0.0,0.0,0.0,0.0,0.0,0.0,0.0,0.0,0.0,0.0,0.0,0.0,0.0,0.0,0.0,0.0,0.0,0.0,0.0,0.0,0.0,0.0,0.0,0.0,0.0,0.0,0.0,0.0,0.0,0.0,0.0,0.0,0.0,0.0,0.0,0.0,6.887,0.0,0.0,0.0,0.0,0.0,0.0,0.0,0.0,0.0,0.0,0.0,0.0,0.0,0.0,0.0,0.0,0.0,0.0,0.0,0.0,0.0,0.0,0.0,0.0,0.0,0.0,0.0,0.0,0.0,0.0,0.0,0.0,0.0,0.0,0.0,0.0,0.0,0.0,0.0,0.0,0.0,0.0,0.0,0.0,0.0,0.0,0.0,0.0,0.0,0.0,0.0,0.0,0.0,0.0,0.0,0.0,0.0,0.0,0.0,12.3832,13.4444,15.0004,15.5238,14.8583,12.4873,10.4235,0.0,0.0,0.0,0.0,0.0,0.0,0.0,0.0,0.0,0.0,0.0,0.0,0.0,0.0,0.0,0.0,0.0,0.0,0.0,0.0,0.0,0.0,0.0,0.0,0.0,0.0,0.0,0.0,0.0,0.0,0.0,0.0,0.0,0.0,0.0,0.0,0.0,0.0,0.0,0.0,0.0,0.0,0.0,0.0,0.0,0.0,0.0,0.0,0.0,0.0,0.0,0.0,0.0,0.0,0.0,0.0,0.0,0.0,0.0,0.0,0.0,0.0,0.0,0.0,0.0,0.0,0.0,0.0,0.0,0.0,0.0,0.0,0.0,0.0,0.0,0.0,0.0,0.0,0.0,0.0,0.0,0.0,0.0,0.0,0.0,0.0,0.0,0.0,0.0,0.0,0.0,0.0,0.0,0.0,0.0,0.0,0.0,0.0,0.0,0.0,0.0,0.0,0.0,0.0,0.0,0.0,0.0,0.0,11.0067,12.5633,13.8339,13.9386,12.8088,10.8428,9.3323,0.0,0.0,0.0,0.0,0.0,0.0,0.0,0.0,0.0,0.0,0.0,0.0,0.0,0.0,0.0,0.0,0.0,0.0,0.0,0.0,0.0,0.0,0.0,0.0,0.0,0.0,0.0,0.0,0.0,0.0,0.0,0.0,0.0,0.0,0.0,0.0,0.0,0.0,0.0,0.0,0.0,0.0,0.0,0.0,0.0,0.0,0.0,0.0,0.0,0.0,0.0,0.0,0.0,0.0,0.0,0.0,0.0,0.0,0.0,0.0,0.0,0.0,0.0,0.0,0.0,0.0,0.0,0.0,0.0,0.0,0.0,0.0,0.0,0.0,0.0,0.0,0.0,0.0,0.0,0.0,0.0,0.0,0.0,0.0,0.0,0.0,0.0,0.0,0.0,0.0,0.0,0.0,0.0,0.0,0.0,0.0,0.0,0.0,0.0,0.0,0.0,0.0,0.0,0.0,0.0,0.0,0.0,0.0,0.0,11.3748,12.2187,12.0611,10.8348,9.4224,8.3232,0.0,0.0,0.0,0.0,0.0,0.0,0.0,0.0,0.0,0.0,0.0,0.0,0.0,0.0,0.0,0.0,0.0,0.0,0.0,0.0,0.0,0.0,0.0,0.0,0.0,0.0,0.0,0.0,0.0,0.0,0.0,0.0,0.0,0.0,0.0,0.0,0.0,0.0,0.0,0.0,0.0,0.0,0.0,0.0,0.0,0.0,0.0,0.0,0.0,0.0,0.0,0.0,0.0,0.0,0.0,0.0,0.0,0.0,0.0,0.0,0.0,0.0,0.0,0.0,0.0,0.0,0.0,0.0,0.0,0.0,0.0,0.0,0.0,0.0,0.0,0.0,0.0,0.0,0.0,0.0,0.0,0.0,0.0,0.0,0.0,0.0,0.0,0.0,0.0,0.0,0.0,0.0,0.0,0.0,0.0,0.0,0.0,0.0,0.0,0.0,0.0,0.0,0.0,0.0,0.0,0.0,0.0,0.0,0.0,9.7365,10.094,10.0188,9.4659,8.6136,7.4991,0.0,0.0,0.0,0.0,0.0,0.0,0.0,0.0,0.0,0.0,0.0,0.0,0.0,0.0,0.0,0.0,0.0,0.0,0.0,0.0,0.0,0.0,0.0,0.0,0.0,0.0,0.0,0.0,0.0,0.0,0.0,0.0,0.0,0.0,0.0,0.0,0.0,0.0,0.0,0.0,0.0,0.0,0.0,0.0,0.0,0.0,0.0,0.0,0.0,0.0,0.0,0.0,0.0,0.0,0.0,0.0,0.0,0.0,0.0,0.0,0.0,0.0,0.0,0.0,0.0,0.0,0.0,0.0,0.0,0.0,0.0,0.0,0.0,0.0,0.0,0.0,0.0,0.0,0.0,0.0,0.0,0.0,0.0,0.0,0.0,0.0,0.0,0.0,0.0,0.0,0.0,0.0,0.0,0.0,0.0,0.0,0.0,0.0,0.0,0.0,0.0,0.0,0.0,0.0,0.0,0.0,0.0,0.0,0.0,7.3275,7.8131,8.15,8.2704,7.2755,6.5642,6.2062,0.0,0.0,0.0,0.0,0.0,0.0,0.0,0.0,0.0,0.0,0.0,0.0,0.0,0.0,0.0,0.0,0.0,0.0,0.0,0.0,0.0,0.0,0.0,0.0,0.0,0.0,0.0,0.0,0.0,0.0,0.0,0.0,0.0,0.0,0.0,0.0,0.0,0.0,0.0,0.0,0.0,0.0,0.0,0.0,0.0,0.0,0.0,0.0,0.0,0.0,0.0,0.0,0.0,0.0,0.0,0.0,0.0,0.0,0.0,0.0,0.0,0.0,0.0,0.0,0.0,0.0,0.0,0.0,0.0,0.0,0.0,0.0,0.0,0.0,0.0,0.0,0.0,0.0,0.0,0.0,0.0,0.0,0.0,0.0,0.0,0.0,0.0,0.0,0.0,0.0,0.0,0.0,0.0,0.0,0.0,0.0,0.0,0.0,0.0,0.0,0.0,0.0,0.0,0.0,0.0,0.0,0.0,0.0,6.1533,6.7895,7.1933,7.2994,6.5505,6.0788,0.0,0.0,0.0,0.0,0.0,0.0,0.0,0.0,0.0,0.0,0.0,0.0,0.0,0.0,0.0,0.0,0.0,0.0,0.0,0.0,0.0,0.0,0.0,0.0,0.0,0.0,0.0,0.0,0.0,0.0,0.0,0.0,0.0,0.0,0.0,0.0,0.0,0.0,0.0,0.0,0.0,0.0,0.0,0.0,0.0,0.0,0.0,0.0,0.0,0.0,0.0,0.0,0.0,0.0,0.0,0.0,0.0,0.0,0.0,0.0,0.0,0.0,0.0,0.0,0.0,0.0,0.0,0.0,0.0,0.0,0.0,0.0,0.0,0.0,0.0,0.0,0.0,0.0,0.0,0.0,0.0,0.0,0.0,0.0,0.0,0.0,0.0,0.0,0.0,0.0,0.0,0.0,0.0,0.0,0.0,0.0,0.0,0.0,0.0,0.0,0.0,0.0,0.0,0.0,0.0,0.0,0.0,0.0,5.5111,6.5814,7.2317,7.2545,6.6936,6.6185,6.0872,0.0,0.0,0.0,0.0,0.0,0.0,0.0,0.0,0.0,0.0,0.0,0.0,0.0,0.0,0.0,0.0,0.0,0.0,0.0,0.0,0.0,0.0,0.0,0.0,0.0,0.0,0.0,0.0,0.0,0.0,0.0,0.0,0.0,0.0,0.0,0.0,0.0,0.0,0.0,0.0,0.0,0.0,0.0,0.0,0.0,0.0,0.0,0.0,0.0,0.0,0.0,0.0,0.0,0.0,0.0,0.0,0.0,0.0,0.0,0.0,0.0,0.0,0.0,0.0,0.0,0.0,0.0,0.0,0.0,0.0,0.0,0.0,0.0,0.0,0.0,0.0,0.0,0.0,0.0,0.0,0.0,0.0,0.0,0.0,0.0,0.0,0.0,0.0,0.0,0.0,0.0,0.0,0.0,0.0,0.0,0.0,0.0,0.0,0.0,0.0,0.0,0.0,0.0,0.0,0.0,0.0,0.0,0.0,0.0,5.4884,0.0,6.4165,0.0,6.2296,5.8033,0.0,0.0,0.0,0.0,0.0,0.0,0.0,0.0,0.0,0.0,0.0,0.0,0.0,0.0,0.0,0.0,0.0,0.0,0.0,0.0,0.0,0.0,0.0,0.0,0.0,0.0,0.0,0.0,0.0,0.0,0.0,0.0,0.0,0.0,0.0,0.0,0.0,0.0,0.0,0.0,0.0,0.0,0.0,0.0,0.0,0.0,0.0,0.0,0.0,0.0,0.0,0.0,0.0,0.0,0.0,0.0,0.0,0.0,0.0,0.0,0.0,0.0,0.0,0.0,0.0,0.0,0.0,0.0,0.0,0.0,0.0,0.0,0.0,0.0,0.0,0.0,0.0,0.0,0.0,0.0,0.0,0.0,0.0,0.0,0.0,0.0,0.0,0.0,0.0,0.0,0.0,0.0,0.0,0.0,0.0,0.0,0.0,0.0,0.0,0.0,0.0,0.0,0.0,0.0,0.0,0.0,0.0,0.0,0.0,5.3718,5.4705,5.9198,6.7222,6.1318,5.8105,0.0,0.0,0.0,0.0,0.0,0.0,0.0,0.0,0.0,0.0,0.0,0.0,0.0,0.0,0.0,0.0,0.0,0.0,0.0,0.0,0.0,0.0,0.0,0.0,0.0,0.0,0.0,0.0,0.0,0.0,0.0,0.0,0.0,0.0,0.0,0.0,0.0,0.0,0.0,0.0,0.0,0.0,0.0,0.0,0.0,0.0,0.0,0.0,0.0,0.0,0.0,0.0,0.0,0.0,0.0,0.0,0.0,0.0,0.0,0.0,0.0,0.0,0.0,0.0,0.0,0.0,0.0,0.0,0.0,0.0,0.0,0.0,0.0,0.0,0.0,0.0,0.0,0.0,0.0,0.0,0.0,0.0,0.0,0.0,0.0,0.0,0.0,0.0,0.0,0.0,0.0,0.0,0.0,0.0,0.0,0.0,0.0,0.0,0.0,0.0,0.0,0.0,0.0,0.0,0.0,0.0,0.0,0.0,0.0,0.0,5.8154,5.8198,6.1237,6.2732,6.0648,0.0,0.0,0.0,0.0,0.0,0.0,0.0,0.0,0.0,0.0,0.0,0.0,0.0,0.0,0.0,0.0,0.0,0.0,0.0,0.0,0.0,0.0,0.0,0.0,0.0,0.0,0.0,0.0,0.0,0.0,0.0,0.0,0.0,0.0,0.0,0.0,0.0,0.0,0.0,0.0,0.0,0.0,0.0,0.0,0.0,0.0,0.0,0.0,0.0,0.0,0.0,0.0,0.0,0.0,0.0,0.0,0.0,0.0,0.0,0.0,0.0,0.0,0.0,0.0,0.0,0.0,0.0,0.0,0.0,0.0,0.0,0.0,0.0,0.0,0.0,0.0,0.0,0.0,0.0,0.0,0.0,0.0,0.0,0.0,0.0,0.0,0.0,0.0,0.0,0.0,0.0,0.0,0.0,0.0,0.0,0.0,0.0,0.0,0.0,0.0,0.0,0.0,0.0,0.0,0.0,0.0,0.0,0.0,0.0,0.0,5.5389,0.0,5.6416,5.6748,5.6612,5.5944,0.0,0.0,0.0,0.0,0.0,0.0,0.0,0.0,0.0,0.0,0.0,0.0,0.0,0.0,0.0,0.0,0.0,0.0,0.0,0.0,0.0,0.0,0.0,0.0,0.0,0.0,0.0,0.0,0.0,0.0,0.0,0.0,0.0,0.0,0.0,0.0,0.0,0.0,0.0,0.0,0.0,0.0,0.0,0.0,0.0,0.0,0.0,0.0,0.0,0.0,0.0,0.0,0.0,0.0,0.0,0.0,0.0,0.0,0.0,0.0,0.0,0.0,0.0,0.0,0.0,0.0,0.0,0.0,0.0,0.0,0.0,0.0,0.0,0.0,0.0,0.0,0.0,0.0,0.0,0.0,0.0,0.0,0.0,0.0,0.0,0.0,0.0,0.0,0.0,0.0,0.0,0.0,0.0,0.0,0.0,0.0,0.0,0.0,0.0,0.0,0.0,0.0,0.0,0.0,0.0,0.0,0.0,0.0,0.0,0.0,0.0,5.4388,5.4275,5.467,0.0,0.0,0.0,0.0,0.0,0.0,0.0,0.0,0.0,0.0,0.0,0.0,0.0,0.0,0.0,0.0,0.0,0.0,0.0,0.0,0.0,0.0,0.0,0.0,0.0,0.0,0.0,0.0,0.0,0.0,0.0,0.0,0.0,0.0,0.0,0.0,0.0,0.0,0.0,0.0,0.0,0.0,0.0,0.0,0.0,0.0,0.0,0.0,0.0,0.0,0.0,0.0,0.0,0.0,0.0,0.0,0.0,0.0,0.0,0.0,0.0,0.0,0.0,0.0,0.0,0.0,0.0,0.0,0.0,0.0,0.0,0.0,0.0,0.0,0.0,0.0,0.0,0.0,0.0,0.0,0.0,0.0,0.0,0.0,0.0,0.0,0.0,0.0,0.0,0.0,0.0,0.0,0.0,0.0,0.0,0.0,0.0,0.0,0.0,0.0,0.0,0.0,0.0,0.0,0.0,0.0,0.0,0.0,0.0,0.0,0.0,5.0988,5.3881,5.4129,0.0,5.3845,0.0,0.0,0.0,0.0,0.0,0.0,0.0,0.0,0.0,0.0,0.0,0.0,0.0,0.0,0.0,0.0,0.0,0.0,0.0,0.0,0.0,0.0,0.0,0.0,0.0,0.0,0.0,0.0,0.0,0.0,0.0,0.0,0.0,0.0,0.0,0.0,0.0,0.0,0.0,0.0,0.0,0.0,0.0,0.0,0.0,0.0,0.0,0.0,0.0,0.0,0.0,0.0,0.0,0.0,0.0,0.0,0.0,0.0,0.0,0.0,0.0,0.0,0.0,0.0,0.0,0.0,0.0,0.0,0.0,0.0,0.0,0.0,0.0,0.0,0.0,0.0,0.0,0.0,0.0,0.0,0.0,0.0,0.0,0.0,0.0,0.0,0.0,0.0,0.0,0.0,0.0,0.0,0.0,0.0,0.0,0.0,0.0,0.0,0.0,0.0,0.0,0.0,0.0,0.0,0.0,0.0,0.0,0.0,0.0,0.0,0.0,0.0,5.3112,5.3115,5.047,0.0,0.0,0.0,0.0,0.0,0.0,0.0,0.0,0.0,0.0,0.0,0.0,0.0,0.0,0.0,0.0,0.0,0.0,0.0,0.0,0.0,0.0,0.0,0.0,0.0,0.0,0.0,0.0,0.0,0.0,0.0,0.0,0.0,0.0,0.0,0.0,0.0,0.0,0.0,0.0,0.0,0.0,0.0,0.0,0.0,0.0,0.0,0.0,0.0,0.0,0.0,0.0,0.0,0.0,0.0,0.0,0.0,0.0,0.0,0.0,0.0,0.0,0.0,0.0,0.0,0.0,0.0,0.0,0.0,0.0,0.0,0.0,0.0,0.0,0.0,0.0,0.0,0.0,0.0,0.0,0.0,0.0,0.0,0.0,0.0,0.0,0.0,0.0,0.0,0.0,0.0,0.0,0.0,0.0,0.0,0.0,0.0,0.0,0.0,0.0,0.0,0.0,0.0,0.0,0.0,0.0,0.0,0.0,0.0,0.0,5.1026,4.9564,5.191,5.1611,4.8304,0.0,0.0,0.0,0.0,0.0,0.0,0.0,0.0,0.0,0.0,0.0,0.0,0.0,0.0,0.0,0.0,0.0,0.0,0.0,0.0,0.0,0.0,0.0,0.0,0.0,0.0,0.0,0.0,0.0,0.0,0.0,0.0,0.0,0.0,0.0,0.0,0.0,0.0,0.0,0.0,0.0,0.0,0.0,0.0,0.0,0.0,0.0,0.0,0.0,0.0,0.0,0.0,0.0,0.0,0.0,0.0,0.0,0.0,0.0,0.0,0.0,0.0,0.0,0.0,0.0,0.0,0.0,0.0,0.0,0.0,0.0,0.0,0.0,0.0,0.0,0.0,0.0,0.0,0.0,0.0,0.0,0.0,0.0,0.0,0.0,0.0,0.0,0.0,0.0,0.0,0.0,0.0,0.0,0.0,0.0,0.0,0.0,0.0,0.0,0.0,0.0,0.0,0.0,0.0,0.0,0.0,0.0,0.0,0.0,0.0,0.0,0.0,0.0,0.0,4.7729,0.0,0.0,0.0,0.0,0.0,0.0,0.0,0.0,0.0,0.0,0.0,0.0,0.0,0.0,0.0,0.0,0.0,0.0,0.0,0.0,0.0,0.0,0.0,0.0,0.0,0.0,0.0,0.0,0.0,0.0,0.0,0.0,0.0,0.0,0.0,0.0,0.0,0.0,0.0,0.0,0.0,0.0,0.0,0.0,0.0,0.0,0.0,0.0,0.0,0.0,0.0,0.0,0.0,0.0,0.0,0.0,0.0,0.0,0.0,0.0,0.0,0.0,0.0,0.0,0.0,0.0,0.0,0.0,0.0,0.0,0.0,0.0,0.0,0.0,0.0,0.0,0.0,0.0,0.0,0.0,0.0,0.0,0.0,0.0,0.0,0.0,0.0,0.0,0.0,0.0,0.0,0.0,0.0,0.0,0.0,0.0,0.0,0.0,0.0,0.0,0.0,0.0,0.0,0.0,0.0,0.0,0.0,0.0,0.0,0.0,0.0,0.0,0.0,0.0,0.0,0.0,0.0,0.0,0.0,0.0,0.0,0.0,0.0,0.0,0.0,0.0,0.0,0.0,0.0,0.0,0.0,0.0,0.0,0.0,0.0,0.0,0.0,0.0,0.0,0.0,0.0,0.0,0.0,0.0,0.0,0.0,0.0,0.0,0.0,0.0,0.0,0.0,0.0,0.0,0.0,0.0,0.0,0.0,0.0,0.0,0.0,0.0,0.0,0.0,0.0,0.0,0.0,0.0,0.0,0.0,0.0,0.0,0.0,0.0,0.0,0.0,0.0,0.0,0.0,0.0,0.0,0.0,0.0,0.0,0.0,0.0,0.0,0.0,0.0,0.0,0.0,0.0,0.0,0.0,0.0,0.0,0.0,0.0,0.0,0.0,0.0,0.0,0.0,0.0,0.0,0.0,0.0,0.0,0.0,0.0,0.0,0.0,0.0,0.0,0.0,0.0,0.0,0.0,0.0,0.0,0.0,0.0,0.0,0.0,0.0,0.0,0.0,0.0,0.0,0.0,0.0,0.0,0.0,0.0,0.0,0.0,0.0,0.0,0.0,0.0,0.0,0.0,0.0,0.0,0.0,0.0,0.0,0.0,0.0,0.0,0.0,0.0,0.0,0.0,0.0,0.0,0.0,0.0,0.0,0.0,0.0,0.0,0.0,0.0,0.0,0.0,0.0,0.0,0.0,0.0,0.0,0.0,0.0,0.0,0.0,0.0,0.0,0.0,0.0,0.0,0.0,0.0,0.0,0.0,0.0,0.0,0.0,0.0,0.0,0.0,0.0,0.0,0.0,0.0,0.0,0.0,0.0,0.0,0.0,0.0,0.0,0.0,0.0,0.0,0.0,0.0,0.0,0.0,0.0,0.0,0.0,0.0,0.0,0.0,0.0,0.0,0.0,0.0,0.0,0.0,0.0,0.0,0.0,0.0,0.0,0.0,0.0,0.0,0.0,0.0,0.0,0.0,0.0,0.0,0.0,0.0,0.0,0.0,0.0,0.0,0.0,0.0,0.0,0.0,0.0,0.0,0.0,0.0,0.0,0.0,0.0,0.0,0.0,0.0,0.0,0.0,0.0,0.0,0.0,0.0,0.0,0.0,0.0,0.0,0.0,0.0,0.0,0.0,0.0,0.0,0.0,0.0,0.0,0.0,0.0,0.0,0.0,0.0,0.0,0.0,0.0,0.0,0.0,0.0,0.0,0.0,0.0,0.0,0.0,0.0,0.0,0.0,0.0,0.0,0.0,0.0,0.0,0.0,0.0,0.0,0.0,0.0,0.0,0.0,0.0,0.0,0.0,0.0,0.0,0.0,0.0,0.0,0.0,0.0,0.0,0.0,0.0,0.0,0.0,0.0,0.0,0.0,0.0,0.0,0.0,0.0,0.0,0.0,0.0,0.0,0.0,0.0,0.0,0.0,0.0,0.0,0.0,0.0,0.0,0.0,0.0,0.0,0.0,0.0,0.0,0.0,0.0,0.0,0.0,0.0,0.0,0.0,0.0,0.0,0.0,0.0,0.0,0.0,0.0,0.0,0.0,0.0,0.0,0.0,0.0,0.0,0.0,0.0,0.0,0.0,0.0,0.0,0.0,0.0,0.0,0.0,0.0,0.0,0.0,0.0,0.0,0.0,0.0,0.0,0.0,0.0,0.0,0.0,0.0,0.0,0.0,0.0,0.0,0.0,0.0,0.0,0.0,0.0,0.0,0.0,0.0,0.0,0.0,0.0,0.0,0.0,0.0,0.0,0.0,0.0,0.0,0.0,0.0,0.0,0.0,0.0,0.0,0.0,0.0,0.0,0.0,0.0,0.0,0.0,0.0,0.0,0.0,0.0,0.0,0.0,0.0,0.0,0.0,0.0,0.0,0.0,0.0,0.0,0.0,0.0,0.0,0.0,0.0,0.0,0.0,0.0,0.0,0.0,0.0,0.0,0.0,0.0,0.0,0.0,0.0,0.0,0.0,0.0,0.0,0.0,0.0,0.0,0.0,0.0,0.0,0.0,0.0,0.0,0.0,0.0,0.0,0.0,0.0,0.0,0.0,0.0,0.0,0.0,0.0,0.0,0.0,0.0,0.0,0.0,0.0,0.0,0.0,0.0,0.0,0.0,0.0,0.0,0.0,0.0,0.0,0.0,0.0,0.0,0.0,0.0,0.0,0.0,0.0,0.0,0.0,0.0,0.0,0.0,0.0,0.0,0.0,0.0,0.0,0.0,0.0,0.0,0.0,0.0,0.0,0.0,0.0,0.0,0.0,0.0,0.0,0.0,0.0,0.0,0.0,0.0,0.0,0.0,0.0,0.0,0.0,0.0,0.0,0.0,0.0,0.0,0.0,0.0,0.0,0.0,0.0,0.0,0.0,0.0,0.0,0.0,0.0,0.0,0.0,0.0,0.0,0.0,0.0,0.0,0.0,0.0,0.0,0.0,0.0,0.0,0.0,0.0,0.0,0.0,0.0,0.0,0.0,0.0,0.0,0.0,0.0,0.0,0.0,0.0,0.0,0.0,0.0,0.0,0.0,0.0,0.0,0.0,0.0,0.0,0.0,0.0,0.0,0.0,0.0,0.0,0.0,0.0,0.0,0.0,0.0,0.0,0.0,0.0,0.0,0.0,0.0,0.0,0.0,0.0,0.0,0.0,0.0,0.0,0.0,0.0,0.0,0.0,0.0,0.0,0.0,0.0,0.0,0.0,0.0,0.0,0.0,0.0,0.0,0.0,0.0,0.0,0.0,0.0,0.0,0.0,0.0,0.0,0.0,0.0,0.0,0.0,0.0,0.0,0.0,0.0,0.0,0.0,0.0,0.0,0.0,0.0,0.0,0.0,0.0,0.0,0.0,0.0,0.0,0.0,0.0,0.0,0.0,0.0,0.0,0.0,0.0,0.0,0.0,0.0,0.0,0.0,0.0,0.0,0.0,0.0,0.0,0.0,0.0,0.0,0.0,0.0,0.0,0.0,0.0,0.0,0.0,0.0,0.0,0.0,0.0,0.0,0.0,0.0,0.0,0.0,0.0,0.0,0.0,0.0,0.0,0.0,0.0,0.0,0.0,0.0,0.0,0.0,0.0,0.0,0.0,0.0,0.0,0.0,0.0,0.0,0.0,0.0,0.0,0.0,0.0,0.0,0.0,0.0,0.0,0.0,0.0,0.0,0.0,0.0,0.0,0.0,0.0,0.0,0.0,0.0,0.0,0.0,0.0,0.0,0.0,0.0,0.0,0.0,0.0,0.0,0.0,0.0,0.0,0.0,0.0,0.0,0.0,0.0,0.0,0.0,0.0,0.0,0.0,0.0,0.0,0.0,0.0,0.0,0.0,0.0,0.0,0.0,0.0,0.0,0.0,0.0,0.0,0.0,0.0,0.0,0.0,0.0,0.0,0.0,0.0,0.0,0.0,0.0,0.0,0.0,0.0,0.0,0.0,0.0,0.0,0.0,0.0,0.0,0.0,0.0,0.0,0.0,0.0,0.0,0.0,0.0,0.0,0.0,0.0,0.0,0.0,0.0,0.0,0.0,0.0,0.0,0.0,0.0,0.0,0.0,0.0,0.0,0.0,0.0,0.0,0.0,0.0,0.0,0.0,0.0,0.0,0.0,0.0,0.0,0.0,0.0,0.0,0.0,0.0,0.0,0.0,0.0,0.0,0.0,0.0,0.0,0.0,0.0,0.0,0.0,0.0,0.0,0.0,0.0,0.0,0.0,0.0,0.0,0.0,0.0,0.0,0.0,0.0,0.0,0.0,0.0,0.0,0.0,0.0,0.0,0.0,0.0,0.0,0.0,0.0,0.0,0.0,0.0,0.0,0.0,0.0,0.0,0.0,0.0,0.0,0.0,0.0,0.0,0.0,0.0,0.0,0.0,0.0,0.0]}],[{"header":{"parameterUnit":"kt","parameterCategory":2,"dx":1,"dy":1,"la1":29.587661999999998,"la2":31.0,"lo1":-88.76705300000003,"lo2":-86.6583820000003,"nx":115,"ny":88,"refTime":"2022-10-08T12:00:00:Z","depth":0,"parameterNumber":2,"parameterNumberName":"V-component_of_WINDS"},"data":[10.0609,9.9907,10.0106,10.0723,10.1444,10.172,10.2518,10.3657,10.3961,10.4379,10.4849,10.4914,10.4914,10.4914,10.4914,10.4914,10.4914,10.4914,10.4914,10.4914,10.4914,10.4914,10.4914,10.4914,10.4914,10.4925,10.4812,10.4595,10.4254,10.4075,10.3581,10.2697,10.2024,10.1786,10.2241,10.2241,10.2431,10.2735,10.3049,10.3353,9.9908,9.3919,8.7249,8.1284,7.4818,7.0669,6.8587,6.8561,6.8509,6.8457,6.8431,6.8431,6.8431,6.8431,6.8431,6.8431,6.8431,6.8431,6.8431,6.8431,6.8431,6.8431,6.8431,6.8431,6.8431,6.8431,6.838,6.838,6.8431,6.8431,6.8431,6.8431,6.8431,6.8431,6.8431,6.8431,6.8431,6.8431,6.8431,6.8431,6.8431,6.838,6.838,6.8588,6.8977,6.9834,7.0906,7.1535,7.1739,7.1733,7.1674,7.1596,7.157,7.1416,7.1182,7.152,7.1494,7.1001,7.0561,6.9937,6.9366,6.8924,6.8664,6.8534,6.9078,6.965,6.973,6.9756,7.0067,7.0534,7.0318,7.026,7.0729,7.1148,7.154,10.0068,10.0068,10.0761,10.152,10.2355,10.3087,10.3581,10.3885,10.4519,10.4887,10.4914,10.4914,10.4914,10.4914,10.4914,10.4914,10.4914,10.4914,10.4914,10.4914,10.4914,10.4914,10.4914,10.4914,10.4914,10.4914,10.4914,10.4812,10.466,10.4633,10.4254,10.3581,10.2821,10.2062,10.1558,10.1482,10.1872,10.2328,10.2708,10.2821,9.8181,9.2249,8.7402,8.2192,7.6476,7.0408,6.9288,6.9003,6.8769,6.8717,6.8561,6.851,6.8484,6.8613,6.8587,6.8665,6.8691,6.8613,6.8535,6.8587,6.8509,6.8406,6.8431,6.8431,6.8431,6.838,6.838,6.838,6.8431,6.8431,6.8431,6.8431,6.8431,6.8431,6.8431,6.8431,6.8431,6.8431,6.8431,6.8431,6.8431,6.8431,6.8431,6.8431,6.8898,6.973,7.0513,7.1195,7.1719,7.174,7.1705,7.1729,7.1727,7.1753,7.1649,7.1648,7.1675,7.126,7.0949,6.9986,6.9182,6.8769,6.8537,6.8484,6.8561,6.8975,6.9106,6.9236,6.9911,7.0535,7.0215,6.9868,7.0442,7.1126,7.1518,9.9907,10.003,10.0875,10.171,10.2507,10.3429,10.4075,10.4443,10.4774,10.4914,10.4914,10.4914,10.4914,10.4914,10.4914,10.4914,10.4914,10.4914,10.4715,10.4814,10.4914,10.4666,10.4914,10.4914,10.433,10.4914,10.4914,10.4765,10.4925,10.4925,10.4849,10.4405,10.3695,10.3087,10.2859,10.2746,10.2784,10.2632,10.3087,10.1606,9.8024,8.9157,8.2814,8.0555,7.5634,7.1455,6.9808,6.9756,6.9392,6.908,6.9184,6.9132,6.8717,6.9003,6.9314,6.9366,6.9288,6.9288,6.921,6.921,6.9184,6.864,6.8382,6.8407,6.8381,6.8382,6.8408,6.8639,6.8613,6.8639,6.8639,6.8639,6.8639,6.8638,6.8638,6.8484,6.8406,6.8432,6.8431,6.8431,6.8431,6.8431,6.8431,6.8431,6.8768,6.9495,6.921,6.9755,7.1088,7.1716,7.171,7.1731,7.1701,7.1753,7.1753,7.1753,7.1753,7.1622,7.144,7.0844,7.0352,6.9311,6.8407,6.8434,6.8459,6.8614,6.8587,6.8717,6.9288,6.9885,6.9749,6.9478,7.0341,7.1156,7.1494,9.9907,9.9983,10.1102,10.2128,10.3115,10.3847,10.4443,10.4963,10.4914,10.4914,10.4914,10.4914,10.4914,10.4914,10.4914,10.4914,10.4914,10.4864,10.4131,10.2811,10.2362,10.1088,10.0537,9.8956,10.1088,10.2362,10.3347,10.306,10.4479,10.4914,10.4925,10.4762,10.1621,10.2307,10.3261,10.0473,10.1627,10.3076,10.0831,9.652,9.3781,8.5481,7.9333,7.7806,7.4572,7.1009,7.0405,7.0354,6.9963,6.96,6.9937,6.9648,6.8939,6.9726,7.0093,7.0172,7.0042,6.999,6.999,7.0173,7.0173,6.96,6.8742,6.8563,6.8434,6.8406,6.8509,6.8795,6.895,6.895,6.8976,6.8976,6.8976,6.8976,6.8949,6.8717,6.8433,6.8432,6.838,6.8431,6.8431,6.8431,6.8431,6.8509,6.8794,6.8743,6.8537,6.8845,7.0221,7.1427,7.1368,7.1731,7.1727,7.1753,7.1753,7.1753,7.1753,7.1648,7.1596,7.1655,7.1582,7.0561,6.9571,6.9027,6.8485,6.8434,6.8485,6.8459,6.8587,6.9028,6.9079,6.9357,7.0112,7.1082,7.1445,9.9907,10.0021,10.1662,10.3066,10.4622,10.4736,10.4849,10.4914,10.4914,10.4914,10.4914,10.4914,10.4914,10.4914,10.4914,10.4914,10.4864,10.3832,10.1725,9.7473,9.7811,9.5649,9.2863,9.0386,9.4496,9.6562,9.7963,9.9409,10.3098,10.4814,10.4677,10.454,9.9772,9.8201,10.0323,9.7486,9.7395,9.8821,9.4775,9.0292,8.7433,8.3959,7.9896,7.8571,7.5045,7.1338,7.1028,7.0794,7.0638,7.0249,7.0198,7.025,6.9987,7.0249,7.0249,7.0328,7.0431,7.0457,7.0694,7.1063,7.1143,7.0618,6.9622,6.9051,6.8791,6.8763,6.9179,6.9469,6.9574,6.9574,6.9626,6.9626,6.9808,6.9938,6.9756,6.947,6.8977,6.8434,6.8382,6.8381,6.8407,6.8431,6.8431,6.8431,6.8638,6.851,6.8382,6.8404,6.9542,7.0822,7.1237,7.1703,7.1727,7.1753,7.1753,7.1753,7.1753,7.1753,7.1674,7.1705,7.1708,7.1238,7.0612,6.9857,6.9131,6.8821,6.8563,6.8562,6.8665,6.8769,6.8925,6.9207,6.996,7.0955,7.1241,9.9907,10.0068,10.1254,10.2393,10.3483,10.4546,10.4914,10.4914,10.4914,10.4914,10.4914,10.4914,10.4914,10.4914,10.4914,10.4914,10.4616,10.2262,9.9158,9.5412,9.3476,9.0162,8.9337,8.9079,8.9614,9.0676,9.2523,9.4547,9.9409,10.2175,10.2412,10.0113,9.8152,9.6041,9.4116,9.246,9.2392,9.0727,8.8286,8.4555,8.1241,7.8026,7.585,7.4276,7.3393,7.1759,7.1416,7.1416,7.1105,7.061,7.1001,7.0949,7.0533,7.0897,7.1106,7.1054,7.1054,7.1134,7.1241,7.1611,7.1693,7.1457,7.0903,7.0061,6.9746,6.9457,6.9827,7.0143,7.0223,7.0276,7.0329,7.0408,7.067,7.0985,7.0618,7.0278,6.9495,6.8637,6.8484,6.8485,6.8459,6.8458,6.8483,6.8431,6.8432,6.8536,6.8563,6.8661,6.9461,7.0687,7.139,7.1701,7.1727,7.1753,7.1753,7.1753,7.1753,7.1753,7.1753,7.1753,7.1727,7.1469,7.1238,7.0586,6.983,6.9469,6.9262,6.9054,6.8821,6.8562,6.864,6.895,6.9545,7.0512,7.0536,9.9907,10.0068,10.114,10.1938,10.2697,10.4242,10.4914,10.4914,10.4914,10.4914,10.4914,10.4914,10.4914,10.4914,10.4914,10.4914,10.2898,9.9848,9.6664,9.2523,8.8408,8.5606,8.3676,8.2764,8.4616,8.5398,8.6802,8.8892,9.4241,9.7255,9.6866,9.436,9.1347,9.0629,8.8312,8.5263,8.3981,8.2285,7.9948,7.8026,7.6222,7.4356,7.3312,7.248,7.1915,7.1835,7.1675,7.1675,7.1492,7.1102,7.1492,7.1544,7.105,7.144,7.1753,7.1753,7.1753,7.1753,7.1753,7.1727,7.1733,7.1688,7.1556,7.1156,7.0891,7.06,7.0657,7.0765,7.0846,7.0977,7.103,7.103,7.1137,7.1324,7.1273,7.0932,7.0564,6.9858,6.96,6.9496,6.8976,6.9029,6.9184,6.921,6.9418,6.9003,6.8898,6.9099,6.9768,7.0941,7.162,7.1674,7.1753,7.1753,7.1753,7.1753,7.1753,7.1753,7.1753,7.1753,7.1727,7.1729,7.1707,7.1393,7.0922,7.0483,6.999,6.96,6.934,6.9003,6.8925,6.8925,6.8976,6.9652,6.9938,9.9907,10.0182,10.17,10.2431,10.2773,10.428,10.4914,10.4914,10.4914,10.4914,10.4914,10.4914,10.4914,10.4914,10.4578,10.428,10.2861,9.7609,9.3034,8.8117,8.2921,7.8397,7.5291,7.441,7.7311,7.9373,8.0978,8.3101,8.8117,9.0316,9.0573,8.8479,8.5731,8.446,8.2869,7.9455,7.5397,7.553,7.4089,7.3982,7.3821,7.2157,7.1861,7.1753,7.1753,7.1753,7.1753,7.1753,7.1648,7.1622,7.1648,7.1648,7.1648,7.1727,7.1753,7.1753,7.1753,7.1753,7.1753,7.1753,7.1703,7.1705,7.1731,7.1755,7.1542,7.1385,7.1335,7.1336,7.1366,7.1521,7.1599,7.1547,7.1521,7.1579,7.1717,7.1533,7.127,7.0983,7.067,7.0147,6.965,6.9547,6.9704,7.0356,7.067,7.0538,7.0666,7.0815,7.1604,7.2497,7.1665,7.1747,7.1699,7.1699,7.1753,7.1753,7.1753,7.1753,7.1753,7.1753,7.1753,7.1727,7.1703,7.1705,7.1624,7.1364,7.0821,7.0327,6.9937,6.986,6.9834,6.9782,6.952,6.9834,6.947,10.0258,10.0913,10.2014,10.2773,10.3418,10.447,10.4914,10.4914,10.4914,10.4914,10.4914,10.4914,10.4814,10.3695,10.1538,9.956,9.8553,9.0541,8.3728,8.2629,7.7311,7.4249,7.248,7.2319,7.3419,7.3714,7.5237,7.7524,8.2712,8.2996,8.4564,8.5398,8.3183,8.0112,7.6939,7.5451,7.1753,7.1753,7.1753,7.1753,7.1753,7.1753,7.1753,7.1753,7.1753,7.1753,7.1753,7.1753,7.1699,7.1674,7.1699,7.1674,7.1674,7.1753,7.1753,7.1753,7.1753,7.1753,7.1753,7.1753,7.1753,7.1753,7.1753,7.1753,7.1753,7.1753,7.1753,7.1753,7.1701,7.1701,7.1675,7.1675,7.1649,7.1649,7.1734,7.1734,7.1497,7.1471,7.1188,7.0324,6.9827,6.9909,7.0067,7.0878,7.1743,7.2083,7.2477,7.3223,7.3972,7.2836,7.1704,7.1717,7.1699,7.1779,7.1779,7.1753,7.1753,7.1753,7.1753,7.1753,7.1753,7.1753,7.1753,7.1674,7.1701,7.1598,7.1312,7.1027,7.0535,7.0407,7.0539,7.0461,7.0198,6.9755,6.9236,10.041,10.134,10.2128,10.3115,10.4227,10.4774,10.4914,10.4914,10.4914,10.4914,10.4914,10.4914,10.428,10.1588,9.8366,9.5767,9.2881,8.3571,8.0112,7.9531,7.4703,7.2372,7.1753,7.1753,7.1861,7.1807,7.1968,7.4463,7.747,7.7258,8.0006,8.1294,7.7842,7.5184,7.2748,7.1753,7.1753,7.1753,7.1753,7.1753,7.1753,7.1753,7.1753,7.1753,7.1753,7.1753,7.1753,7.1753,7.1753,7.1753,7.1753,7.1753,7.1753,7.1753,7.1753,7.1753,7.1753,7.1753,7.1753,7.1753,7.1753,7.1753,7.1753,7.1753,7.1753,7.1753,7.1753,7.1753,7.1753,7.1753,7.1753,7.1753,7.1753,7.1753,7.1753,7.1753,7.1699,7.1674,7.1464,7.0628,7.0266,7.0403,7.0431,7.0954,7.218,7.278,7.3627,7.4488,7.46,7.3241,7.1789,7.181,7.1907,7.1909,7.1805,7.1779,7.1753,7.1753,7.1753,7.1753,7.1753,7.1753,7.1753,7.1753,7.1753,7.1699,7.1598,7.139,7.1054,7.0926,7.114,7.1167,7.0852,7.0224,6.9599,10.0448,10.133,10.2128,10.337,10.4698,10.4963,10.4914,10.4914,10.4914,10.4914,10.4914,10.4031,10.1575,9.7725,9.4767,9.1619,8.7237,8.2135,7.8979,7.7761,7.3687,7.2104,7.1753,7.1753,7.1753,7.1753,7.1807,7.1861,7.2534,7.3151,7.2776,7.3205,7.3982,7.2426,7.1915,7.1753,7.1753,7.1753,7.1753,7.1753,7.1753,7.1753,7.1753,7.1753,7.1753,7.1753,7.1753,7.1753,7.1753,7.1753,7.1753,7.1753,7.1753,7.1753,7.1753,7.1753,7.1753,7.1753,7.1753,7.1753,7.1753,7.1753,7.1753,7.1753,7.1753,7.1753,7.1753,7.1753,7.1753,7.1753,7.1753,7.1753,7.1753,7.1753,7.1753,7.1753,7.1753,7.1674,7.1411,7.0862,7.0789,7.0898,7.0898,7.1315,7.2612,7.3634,7.467,7.4935,7.4778,7.3663,7.2155,7.202,7.2211,7.219,7.2065,7.1909,7.1779,7.1753,7.1753,7.1753,7.1753,7.1753,7.1753,7.1753,7.1753,7.1753,7.1753,7.1727,7.152,7.134,7.1661,7.1665,7.1402,7.1035,7.0722,10.0751,10.209,10.2307,10.3115,10.4189,10.4747,10.4914,10.4914,10.4914,10.4914,10.4666,10.0787,9.8064,9.47,8.9563,8.399,8.1662,7.7577,7.513,7.3821,7.299,7.1996,7.1753,7.1753,7.1753,7.1753,7.1753,7.1753,7.1753,7.1753,7.1753,7.1753,7.1753,7.1753,7.1753,7.1753,7.1753,7.1753,7.1753,7.1753,7.1753,7.1753,7.1753,7.1753,7.1753,7.1753,7.1753,7.1753,7.1753,7.1753,7.1753,7.1753,7.1753,7.1753,7.1753,7.1753,7.1753,7.1753,7.1753,7.1753,7.1753,7.1753,7.1753,7.1753,7.1753,7.1753,7.1753,7.1753,7.1753,7.1753,7.1753,7.1753,7.1753,7.1753,7.1753,7.1753,7.1753,7.1674,7.1385,7.1148,7.1516,7.1649,7.1755,7.2067,7.308,7.3573,7.4585,7.5066,7.4873,7.397,7.2614,7.2588,7.2699,7.2524,7.2296,7.2091,7.1883,7.1857,7.1753,7.1753,7.1753,7.1753,7.1753,7.1753,7.1753,7.1753,7.1753,7.1753,7.1753,7.1753,7.1703,7.1708,7.15,7.1425,7.1297,10.0713,10.2014,10.2355,10.2963,10.3847,10.4671,10.4914,10.4914,10.4914,10.4914,10.4666,9.9294,9.5599,9.1601,8.399,7.9109,7.6435,7.2909,7.2319,7.1753,7.1753,7.1753,7.1753,7.1753,7.1753,7.1753,7.1753,7.1753,7.1753,7.1753,7.1753,7.1753,7.1753,7.1753,7.1753,7.1753,7.1753,7.1753,7.1753,7.1753,7.1753,7.1753,7.1753,7.1753,7.1753,7.1753,7.1753,7.1753,7.1753,7.1753,7.1753,7.1753,7.1753,7.1753,7.1753,7.1753,7.1753,7.1753,7.1753,7.1753,7.1753,7.1753,7.1753,7.1753,7.1753,7.1753,7.1753,7.1753,7.1753,7.1753,7.1753,7.1753,7.1753,7.1753,7.1753,7.1753,7.1753,7.1753,7.1542,7.1462,7.1803,7.222,7.2506,7.2872,7.3232,7.3648,7.4474,7.5171,7.4921,7.4181,7.3717,7.3575,7.3397,7.3223,7.261,7.2272,7.2013,7.1883,7.1753,7.1753,7.1753,7.1753,7.1753,7.1753,7.1753,7.1753,7.1753,7.1753,7.1753,7.1753,7.1753,7.1753,7.1703,7.1682,7.1606,10.041,10.1302,10.2014,10.2821,10.3581,10.4432,10.4812,10.4774,10.4812,10.4849,10.428,9.9783,9.4683,8.8201,8.2187,7.6169,7.205,7.1807,7.1753,7.1753,7.1753,7.1753,7.1753,7.1753,7.1753,7.1753,7.1753,7.1753,7.1753,7.1753,7.1753,7.1753,7.1753,7.1753,7.1753,7.1753,7.1753,7.1753,7.1753,7.1753,7.1753,7.1753,7.1753,7.1753,7.1753,7.1753,7.1753,7.1753,7.1753,7.1753,7.1753,7.1753,7.1753,7.1753,7.1753,7.1753,7.1753,7.1753,7.1753,7.1753,7.1753,7.1753,7.1753,7.1753,7.1753,7.1753,7.1753,7.1753,7.1753,7.1753,7.1753,7.1753,7.1753,7.1751,7.1721,7.1749,7.1751,7.1751,7.1721,7.1777,7.2065,7.2454,7.2765,7.3469,7.3881,7.433,7.5216,7.4977,7.4754,7.4656,7.4358,7.4255,7.4074,7.353,7.2947,7.2695,7.2541,7.2331,7.1937,7.1779,7.1753,7.1753,7.1753,7.1753,7.1753,7.1753,7.1753,7.1753,7.1753,7.1753,7.1753,7.1753,7.1729,7.1731,7.1731,10.0068,10.0334,10.1178,10.1634,10.1986,10.2686,10.3494,10.4075,10.4151,10.4443,10.4365,10.2998,9.7002,8.8304,7.8873,7.358,7.1753,7.1753,7.1753,7.1753,7.1753,7.1753,7.1753,7.1753,7.1753,7.1753,7.1753,7.1753,7.1753,7.1753,7.1753,7.1753,7.1753,7.1753,7.1753,7.1753,7.1753,7.1753,7.1753,7.1753,7.1753,7.1753,7.1753,7.1753,7.1753,7.1753,7.1753,7.1753,7.1753,7.1753,7.1753,7.1753,7.1753,7.1753,7.1753,7.1753,7.1753,7.1753,7.1753,7.1753,7.1753,7.1753,7.1753,7.1753,7.1753,7.1753,7.1753,7.1753,7.1753,7.1753,7.1753,7.1753,7.1753,7.1749,7.1717,7.1719,7.1747,7.1738,7.1759,7.2133,7.2555,7.2895,7.2338,7.3452,7.459,7.507,7.5018,7.478,7.4712,7.4716,7.4664,7.4863,7.4466,7.3807,7.3489,7.3293,7.3095,7.2808,7.2175,7.1859,7.1779,7.1753,7.1753,7.1753,7.1753,7.1753,7.1753,7.1753,7.1753,7.1753,7.1753,7.1753,7.1753,7.1753,7.1727,10.0258,10.003,10.0875,10.1254,10.1368,10.2128,10.2925,10.3706,10.3858,10.4265,10.4552,10.2662,9.6714,8.7548,7.6727,7.1915,7.1753,7.1753,7.1753,7.1753,7.1753,7.1753,7.1753,7.1753,7.1753,7.1753,7.1753,7.1753,7.1753,7.1753,7.1753,7.1753,7.1753,7.1753,7.1753,7.1753,7.1753,7.1753,7.1753,7.1753,7.1753,7.1753,7.1753,7.1753,7.1753,7.1753,7.1753,7.1753,7.1753,7.1753,7.1753,7.1753,7.1753,7.1753,7.1753,7.1753,7.1753,7.1753,7.1753,7.1753,7.1753,7.1753,7.1753,7.1753,7.1753,7.1753,7.1753,7.1753,7.1753,7.1753,7.1753,7.1753,7.1753,7.1725,7.1747,7.2179,7.2902,7.2433,7.2033,7.2619,7.2958,7.1091,6.9854,7.2222,7.4587,7.4915,7.4764,7.4548,7.4505,7.469,7.4997,7.5214,7.4677,7.4117,7.4007,7.3758,7.351,7.3097,7.2489,7.1883,7.1805,7.1753,7.1753,7.1753,7.1697,7.1697,7.1753,7.1484,7.0999,7.1269,7.1646,7.1753,7.1753,7.1753,7.1753,10.0837,9.9992,10.0761,10.1102,10.114,10.1786,10.2621,10.3207,10.2489,10.314,10.2737,9.7993,9.2574,8.5991,7.6567,7.2883,7.1915,7.1753,7.1753,7.1753,7.1753,7.1753,7.1753,7.1753,7.1753,7.1753,7.1753,7.1753,7.1753,7.1753,7.1753,7.1753,7.1753,7.1753,7.1753,7.1753,7.1753,7.1753,7.1753,7.1753,7.1753,7.1753,7.1753,7.1753,7.1753,7.1753,7.1753,7.1753,7.1753,7.1753,7.1753,7.1753,7.1753,7.1753,7.1727,7.1675,7.1727,7.1753,7.1753,7.1753,7.1753,7.1753,7.1753,7.1753,7.1753,7.1753,7.1753,7.1753,7.1753,7.1753,7.1753,7.1753,7.1753,7.1725,7.1719,7.2793,7.3519,7.2314,7.2393,7.2757,7.1018,6.9204,6.5896,7.0286,7.4194,7.4409,7.4561,7.4392,7.4392,7.4828,7.5249,7.5126,7.469,7.4522,7.4404,7.4041,7.3794,7.3439,7.2726,7.1935,7.1831,7.1753,7.1699,7.1723,7.1693,7.1719,7.061,6.9993,7.0108,6.9572,6.8416,6.9305,7.0546,7.1753,7.1753,10.1282,9.9907,10.0106,10.0182,10.022,10.0324,10.0893,10.0844,9.7852,9.6676,9.6589,9.2169,8.6946,8.2292,7.8873,7.5637,7.1753,7.1753,7.1753,7.1753,7.1753,7.1753,7.1753,7.1753,7.1753,7.1753,7.1753,7.1753,7.1753,7.1753,7.1753,7.1753,7.1753,7.1753,7.1753,7.1753,7.1753,7.1753,7.1753,7.1753,7.1753,7.1753,7.1753,7.1753,7.1753,7.1674,7.1675,7.1624,7.1624,7.1624,7.1649,7.1701,7.1727,7.1753,7.1546,7.126,7.152,7.1701,7.1753,7.1727,7.1753,7.1753,7.1753,7.1753,7.1753,7.1753,7.1753,7.1753,7.1753,7.1753,7.1753,7.1753,7.1753,7.1697,7.174,7.1887,7.2317,7.2786,7.2808,7.0057,6.9051,6.5714,6.0799,6.3313,6.829,6.9056,7.0284,7.0477,7.472,7.5134,7.5177,7.5029,7.4806,7.469,7.4504,7.417,7.3689,7.3546,7.3071,7.2093,7.1857,7.1699,7.1721,7.1691,7.104,6.7657,6.8288,6.7901,6.5844,6.4543,6.466,6.4403,6.3675,6.4432,6.84,10.1102,9.9907,9.9907,9.9907,9.9491,9.7377,9.6635,9.6641,9.2321,9.0607,8.9864,8.6366,8.2381,8.0001,7.763,7.4703,7.2211,7.1753,7.1753,7.1753,7.1753,7.1753,7.1753,7.1753,7.1753,7.1753,7.1753,7.1753,7.1753,7.1753,7.1753,7.1753,7.1753,7.1753,7.1753,7.1753,7.1753,7.1753,7.1753,7.1753,7.1753,7.1753,7.1753,7.1596,7.1466,7.1364,7.134,7.121,7.1002,7.0949,7.0949,7.1241,7.14,7.1295,7.0793,7.0716,7.1001,7.1338,7.1338,7.1624,7.1648,7.1674,7.1753,7.1753,7.1753,7.1753,7.1753,7.1753,7.1753,7.1753,7.1753,7.1753,7.1753,7.1723,7.1735,7.1721,7.2007,7.2896,6.9641,6.5179,6.3089,5.9671,5.5176,5.6948,6.1801,6.4393,6.5678,6.9623,7.4676,7.5208,7.5237,7.485,7.4226,7.4245,7.4352,7.381,7.3273,7.3653,7.3418,7.2305,7.1831,7.1751,7.1721,6.8447,6.5354,6.1406,6.1242,6.0385,5.9574,5.8547,5.8538,5.8267,5.7121,5.883,6.4594,10.0723,9.9822,9.898,9.8601,9.7757,9.3021,9.116,9.0847,8.6343,8.4843,8.5018,8.0343,7.8224,7.733,7.3419,7.1915,7.1968,7.1753,7.1753,7.1753,7.1753,7.1753,7.1753,7.1753,7.1753,7.1753,7.1753,7.1753,7.1753,7.1753,7.1753,7.1753,7.1753,7.1753,7.1753,7.1753,7.1753,7.1753,7.1753,7.1753,7.1753,7.1753,7.1753,7.1701,7.126,7.108,7.0898,7.0483,7.0093,6.9936,7.0041,7.0487,7.0697,7.033,7.0068,7.0093,7.0509,7.082,7.0846,7.1236,7.1495,7.1518,7.1603,7.171,7.1729,7.1729,7.1731,7.1729,7.1753,7.1753,7.1753,7.1721,7.1721,7.1743,7.1753,7.1975,7.2745,7.258,7.0124,5.6635,5.4849,5.3323,5.1018,5.0959,5.481,5.7195,5.9834,6.4657,6.9131,7.0993,7.3447,7.4184,7.3508,7.3442,7.3844,7.3149,7.1881,7.2009,7.172,7.0543,7.0575,7.1043,6.6251,5.8875,5.4497,5.3854,5.3025,5.1753,5.153,5.247,5.2449,5.2337,5.2493,5.3339,5.9481,10.0761,9.9586,9.5156,9.331,9.2491,8.7718,8.5482,8.4905,8.0507,7.8787,7.8391,7.4358,7.3259,7.2992,7.197,7.1753,7.1753,7.1753,7.1753,7.1753,7.1753,7.1753,7.1753,7.1753,7.1753,7.1753,7.1753,7.1753,7.1753,7.1753,7.1753,7.1753,7.1753,7.1753,7.1753,7.1753,7.1753,7.1753,7.1753,7.1753,7.1753,7.1753,7.1753,7.1649,7.1262,7.0976,7.0768,7.0326,6.97,6.8861,6.9621,6.9652,6.9339,6.9054,6.934,6.9366,6.9937,7.0197,7.0354,7.0589,7.0743,7.0444,7.1086,7.1561,7.1658,7.1552,7.1659,7.1734,7.1701,7.1701,7.1725,7.1872,7.1807,7.1879,7.183,7.2698,7.4115,7.4711,6.2838,4.8254,4.6108,4.672,4.5246,4.5129,4.7655,5.0482,5.4602,5.8653,6.211,6.536,7.0785,7.3035,7.1481,7.1061,7.2049,7.1702,6.9221,6.8909,6.8756,6.8237,6.8103,6.4697,5.8539,5.0403,4.6185,4.6257,4.5923,4.5008,4.5231,4.6274,4.6318,4.5662,4.6784,4.8613,5.8301,9.87,9.5587,9.3166,9.0524,8.7294,8.236,8.0026,7.907,7.4687,7.2814,7.2719,7.1589,7.082,7.1312,7.1598,7.1699,7.1753,7.1753,7.1753,7.1753,7.1753,7.1753,7.1753,7.1753,7.1753,7.1753,7.1727,7.1753,7.1753,7.1753,7.1753,7.1753,7.1753,7.1753,7.1753,7.1753,7.1753,7.1753,7.1753,7.1753,7.1753,7.1753,7.1753,7.1649,7.1262,7.0794,7.0509,6.9963,6.9235,6.8821,6.8951,6.8976,6.8587,6.8665,6.8795,6.8847,6.934,6.9626,6.9703,6.9885,6.9908,6.9297,6.9644,6.9903,7.0085,7.1166,7.1588,7.1689,7.1525,7.1598,7.2169,7.228,7.3042,7.333,7.3641,7.3992,7.2611,6.3097,4.9705,4.3419,4.0994,4.0326,4.0073,4.0943,4.331,4.6791,5.0753,5.1655,5.5163,6.5143,7.0013,7.1958,7.0005,6.8194,6.9313,6.8103,6.5061,6.4218,6.1519,5.8597,5.835,5.4408,5.0603,4.5955,4.0788,4.0451,4.1053,3.9076,3.8865,4.0634,4.1136,3.9396,3.9671,4.241,5.1361,9.6864,9.2057,9.0876,8.7343,8.2081,7.6958,7.4651,7.4348,7.0244,6.9284,6.934,6.9834,7.0327,7.0949,7.1338,7.1649,7.1727,7.1753,7.1753,7.1753,7.1753,7.1675,7.1364,7.1312,7.1416,7.152,7.1546,7.1624,7.1674,7.1753,7.1753,7.1753,7.1753,7.1753,7.1753,7.1753,7.1753,7.1753,7.1753,7.1753,7.1753,7.1753,7.1753,7.1701,7.1262,7.0664,6.9989,6.934,6.8821,6.8535,6.8483,6.8561,6.8457,6.8457,6.8483,6.8587,6.8847,6.9028,6.908,6.9184,6.9076,6.8606,6.8634,6.8423,6.8576,7.0277,7.1222,7.1299,7.1005,7.0383,6.956,6.9806,6.8747,6.7755,6.6634,6.5145,6.389,5.0296,4.1844,3.8611,3.855,3.8257,3.8237,3.8767,4.0242,4.3259,4.4825,4.534,5.4085,6.5186,6.9295,7.1983,6.7804,6.1001,6.1571,6.0352,5.8376,5.7527,4.9244,4.3652,4.3383,4.0893,4.253,4.0202,3.6527,3.6852,3.8176,3.664,3.664,3.6583,3.6951,3.704,3.7226,3.6966,4.2661,9.6864,9.1733,8.6952,8.1982,7.7037,7.1644,6.9812,6.93,6.8712,6.8717,6.9158,6.9262,6.9885,7.095,7.095,7.1314,7.1675,7.1572,7.1624,7.1598,7.1546,7.1182,7.0561,7.0561,7.069,7.1002,7.1054,7.126,7.1546,7.1701,7.1674,7.1753,7.1753,7.1753,7.1753,7.1753,7.1753,7.1753,7.1753,7.1753,7.1753,7.1753,7.1701,7.1598,7.1184,7.0483,6.9626,6.8873,6.8535,6.8431,6.8431,6.8431,6.8431,6.8431,6.8431,6.8483,6.8509,6.8587,6.8509,6.8613,6.8485,6.8485,6.8382,6.8408,6.8609,6.9522,7.0382,7.0538,7.0328,6.7464,6.4345,6.018,5.9056,5.6881,4.8944,4.3595,4.158,4.0014,3.8305,3.8309,3.8303,3.8138,3.8,3.8104,3.8438,4.0898,4.057,4.2633,5.0188,6.0273,6.5783,6.6777,6.0275,5.3824,5.3332,5.2598,5.1457,4.9756,4.0129,3.6689,3.6556,3.6524,3.6531,3.6527,3.6527,3.6527,3.6527,3.6527,3.6583,3.6527,3.6527,3.6557,3.6517,3.654,3.6516,9.6864,9.1636,8.6365,8.117,7.5982,7.0653,6.8431,6.8431,6.8431,6.8561,6.8743,6.9054,6.947,6.9937,7.0327,7.0612,7.082,7.082,7.0846,7.0846,7.0846,7.0561,7.0276,7.0172,7.0302,7.0535,7.0483,7.0794,7.1156,7.126,7.1442,7.1675,7.1753,7.1753,7.1753,7.1753,7.1753,7.1753,7.1753,7.1753,7.1753,7.1753,7.1598,7.1234,7.1106,7.0612,6.9833,6.921,6.8743,6.8432,6.8431,6.8431,6.8431,6.8431,6.8431,6.8431,6.8431,6.8431,6.8431,6.8431,6.8432,6.8382,6.8433,6.8407,6.8511,6.8821,6.9573,6.9178,6.6483,6.2658,5.8377,5.6319,5.2352,4.6919,4.1379,3.871,3.8453,3.8315,3.8282,3.8349,3.8283,3.8217,3.8138,3.7974,3.7829,3.7636,3.7492,4.0683,4.507,5.3943,5.943,5.2898,4.6347,4.569,4.5495,4.4441,4.3308,4.254,3.6623,3.6593,3.656,3.6517,3.6527,3.6527,3.6527,3.6527,3.6527,3.6527,3.6527,3.6527,3.6527,3.657,3.657,3.6534,3.6521,9.5772,8.9488,8.576,8.0375,7.4073,7.0244,6.8431,6.8431,6.8431,6.8431,6.8509,6.8872,6.9054,6.9236,6.9729,6.9989,7.0224,7.0224,7.0172,7.0146,6.9912,6.973,6.973,6.9704,6.9782,6.9938,6.9911,7.0197,7.0716,7.0924,7.113,7.152,7.1649,7.1753,7.1753,7.1753,7.1753,7.1753,7.1753,7.1753,7.1727,7.1598,7.1312,7.095,7.0638,7.0196,6.9885,6.934,6.8821,6.8457,6.8431,6.8431,6.8431,6.8431,6.8431,6.8431,6.8431,6.8431,6.8431,6.8431,6.8431,6.8431,6.8407,6.8381,6.8407,6.8408,6.7785,6.5457,6.1849,5.6445,5.2521,5.1505,4.7614,3.9722,3.815,3.7872,3.8188,3.8294,3.8222,3.8163,3.8078,3.794,3.7848,3.7755,3.7623,3.7296,3.6962,3.7667,3.9642,4.5975,4.883,4.1347,3.9418,3.8975,3.8333,3.7123,3.657,3.6527,3.6514,3.657,3.657,3.6527,3.6527,3.6527,3.6527,3.6527,3.6527,3.6527,3.6527,3.6527,3.6527,3.6527,3.6527,3.6527,3.6557,9.2861,8.4036,8.3964,7.855,7.0091,6.8764,6.8431,6.8431,6.8431,6.8431,6.8431,6.8509,6.8717,6.9158,6.921,6.9548,7.0042,7.0042,6.999,6.9756,6.9184,6.8691,6.8717,6.8717,6.895,6.9262,6.9262,6.9626,7.0171,7.0561,7.0976,7.1028,7.1364,7.1701,7.1572,7.1701,7.1624,7.1572,7.1649,7.1624,7.1598,7.1208,7.095,7.082,6.9989,6.9366,6.9262,6.8821,6.8483,6.8431,6.8431,6.8431,6.8431,6.8431,6.8431,6.8431,6.8431,6.8431,6.8431,6.8431,6.8431,6.8406,6.8382,6.8329,6.5875,6.4829,6.3714,5.7347,5.4056,4.996,4.5647,4.4689,4.2459,3.7695,3.6835,3.7212,3.8087,3.8257,3.8079,3.7807,3.7554,3.7314,3.724,3.7474,3.7276,3.691,3.6643,3.6524,3.7341,3.7598,3.7402,3.7418,3.7518,3.7334,3.7588,3.657,3.657,3.6527,3.6527,3.6514,3.6527,3.6527,3.6527,3.6527,3.6527,3.6527,3.6527,3.6527,3.6527,3.6527,3.6527,3.6527,3.6527,3.6527,3.657,9.4044,8.7756,8.47,7.9481,7.3415,6.9709,6.8431,6.8431,6.8431,6.8431,6.8431,6.8431,6.8535,6.8691,6.8743,6.8847,6.9028,6.9054,6.9054,6.9002,6.8535,6.8431,6.8431,6.8431,6.8561,6.8717,6.8665,6.9028,6.9574,6.9755,7.0041,7.0405,7.0638,7.0768,7.0742,7.0742,7.0742,7.0742,7.0768,7.0742,7.069,7.0535,7.0249,6.9833,6.9444,6.9054,6.8743,6.8535,6.8431,6.8431,6.8431,6.8431,6.8431,6.8405,6.8431,6.8431,6.8405,6.8405,6.8431,6.8328,6.8431,6.838,6.8382,6.3195,5.1401,5.4867,5.289,4.5878,4.508,4.4231,3.9685,3.8875,3.8583,3.6612,3.6551,3.6738,3.7033,3.7452,3.7545,3.7519,3.7359,3.7275,3.7099,3.7169,3.6831,3.6686,3.6568,3.6563,3.6523,3.6527,3.6683,3.6739,3.6527,3.6527,3.6527,3.6527,3.6527,3.6527,3.6527,3.6527,3.6527,3.6527,3.6527,3.6527,3.6527,3.6527,3.6527,3.6527,3.6527,3.6527,3.6527,3.6527,3.6527,3.6527,3.6527,9.2092,8.7527,8.2643,7.8061,7.364,7.004,6.8431,6.8431,6.8431,6.8431,6.8431,6.8431,6.8431,6.8431,6.8431,6.8431,6.8431,6.8431,6.8431,6.8457,6.8431,6.8431,6.8431,6.8431,6.8431,6.8431,6.8431,6.8639,6.8925,6.9132,6.9392,6.9833,7.0094,7.0172,7.0224,7.0172,7.0172,7.0172,7.0172,7.0172,7.0172,6.999,6.9678,6.9236,6.9028,6.8821,6.8457,6.8431,6.8431,6.8405,6.8429,6.8399,6.832,6.8064,6.7886,6.7886,6.7886,6.7887,6.8042,6.7966,6.7967,6.8329,6.8382,5.7347,3.9828,4.2293,4.2647,3.7516,3.8322,3.9709,3.6347,3.5943,3.6527,3.653,3.6523,3.6546,3.6686,3.6932,3.7108,3.7064,3.7051,3.7064,3.7011,3.6849,3.659,3.6538,3.6533,3.6553,3.6527,3.6527,3.6527,3.6527,3.6527,3.6527,3.6527,3.6527,3.6527,3.6527,3.6527,3.6527,3.6527,3.6527,3.6527,3.6527,3.6527,3.6527,3.6527,3.6527,3.6527,3.6527,3.6527,3.6527,3.6527,3.6527,3.6527,8.6419,8.183,7.7274,7.3253,6.9427,6.861,6.8431,6.8431,6.8431,6.8431,6.8431,6.8431,6.8431,6.8431,6.8431,6.8431,6.8431,6.8431,6.8431,6.8431,6.8431,6.8431,6.8431,6.8431,6.8431,6.8431,6.8431,6.8431,6.8535,6.8899,6.9132,6.9288,6.9729,6.9964,7.012,7.0016,7.0068,7.0016,6.999,7.0042,7.0094,6.9522,6.9184,6.9106,6.8691,6.8457,6.8431,6.8379,6.8353,6.8352,6.8319,6.8403,6.8135,6.7376,6.6745,6.6823,6.6444,6.6727,6.699,6.6129,6.5593,6.6455,6.8093,5.8883,3.9501,3.5903,3.6234,3.5184,3.571,3.5762,3.5713,3.5795,3.6101,3.6448,3.6405,3.6471,3.6527,3.654,3.654,3.6593,3.6619,3.6553,3.6553,3.6523,3.6537,3.6537,3.6553,3.6527,3.6527,3.6527,3.6527,3.6527,3.6527,3.6527,3.6527,3.6514,3.6501,3.6474,3.6408,3.6411,3.6359,3.6507,3.6494,3.6564,3.6564,3.6564,3.655,3.6438,3.6408,3.6527,3.6527,3.6527,3.6527,3.6527,3.6527,8.86,8.1478,7.6581,7.2244,6.8584,6.8431,6.8431,6.8431,6.8431,6.8431,6.8431,6.8431,6.8431,6.8431,6.8431,6.8431,6.8431,6.8431,6.8431,6.8431,6.8431,6.8431,6.8431,6.8431,6.8431,6.8431,6.8431,6.8431,6.8457,6.8587,6.8639,6.8691,6.8872,6.895,6.8976,6.8976,6.8976,6.9028,6.895,6.8976,6.9002,6.8769,6.8691,6.8665,6.8509,6.8431,6.8405,6.8092,6.791,6.7833,6.7466,6.7252,6.7245,6.6893,6.6667,6.6241,6.3409,6.1436,6.1356,5.8033,5.6226,5.7057,6.3012,5.8904,3.806,3.4799,3.4851,3.4929,3.5088,3.5284,3.5493,3.5624,3.573,3.5822,3.5881,3.6055,3.646,3.6507,3.6544,3.6557,3.6557,3.6514,3.6527,3.6527,3.6527,3.6527,3.6527,3.6527,3.6527,3.6527,3.6527,3.6527,3.6527,3.6527,3.6448,3.6289,3.6167,3.6022,3.5917,3.592,3.5962,3.6327,3.6476,3.6559,3.6572,3.6572,3.6447,3.6335,3.6372,3.6487,3.6448,3.6355,3.6435,3.6474,3.6547,8.79,8.057,7.4193,7.0354,6.8482,6.8431,6.8431,6.8431,6.8431,6.8431,6.8431,6.8431,6.8431,6.8431,6.8431,6.8431,6.8431,6.8431,6.8431,6.8431,6.8431,6.8431,6.8431,6.8431,6.8431,6.8431,6.8431,6.8431,6.8431,6.8431,6.8431,6.8431,6.8431,6.8431,6.8431,6.8431,6.8431,6.8431,6.8431,6.8431,6.8457,6.8431,6.8352,6.817,6.7912,6.7808,6.7782,6.747,6.7313,6.7313,6.6441,6.618,6.633,6.6148,6.6044,6.5572,6.1047,5.8005,5.6826,4.9644,4.4847,4.5911,5.241,4.8887,3.8129,3.4839,3.4823,3.4942,3.5073,3.5218,3.5416,3.5442,3.5385,3.5312,3.5316,3.5587,3.6319,3.655,3.6543,3.651,3.6537,3.6534,3.6531,3.6527,3.6527,3.6527,3.6527,3.6527,3.6527,3.6527,3.6527,3.6527,3.6527,3.6461,3.6303,3.5983,3.5782,3.5666,3.5477,3.5422,3.5406,3.5645,3.621,3.6223,3.6514,3.6514,3.6044,3.5877,3.5904,3.6062,3.6075,3.6035,3.6167,3.6383,3.6535,8.4464,7.8783,7.0601,6.7893,6.8379,6.8405,6.8431,6.8431,6.8431,6.8431,6.8431,6.8431,6.8431,6.8431,6.8431,6.8431,6.8431,6.8431,6.8431,6.8431,6.8431,6.8431,6.8431,6.8431,6.8431,6.8431,6.8431,6.8431,6.8431,6.8431,6.8431,6.8431,6.8431,6.8431,6.8431,6.8431,6.8431,6.8431,6.8431,6.8431,6.8405,6.8353,6.8066,6.7599,6.7029,6.6745,6.6769,6.6667,6.6615,6.6641,6.5622,6.5263,6.5733,6.5289,6.4785,6.3807,5.9079,5.5391,5.2358,4.1909,3.4953,3.5427,3.7195,3.5278,3.4906,3.4853,3.4863,3.5099,3.5154,3.5113,3.5152,3.5206,3.5081,3.4907,3.482,3.5312,3.6274,3.6273,3.6422,3.6457,3.6468,3.6492,3.6464,3.6487,3.6474,3.6514,3.6527,3.6527,3.6527,3.6557,3.6531,3.6531,3.6464,3.6289,3.5732,3.5587,3.5587,3.54,3.5144,3.4878,3.482,3.4914,3.5532,3.5986,3.6096,3.5986,3.5697,3.5545,3.5614,3.5585,3.5611,3.5622,3.5769,3.6189,3.6216,8.3094,7.4933,7.2461,7.01,6.7935,6.8249,6.8431,6.8431,6.8431,6.8431,6.8431,6.8431,6.8431,6.8431,6.8431,6.8431,6.8431,6.8431,6.8431,6.8431,6.8431,6.8431,6.8431,6.8431,6.8431,6.8431,6.8431,6.8431,6.8431,6.8431,6.8431,6.8431,6.8431,6.8431,6.8431,6.8431,6.8431,6.8431,6.8431,6.8431,6.8301,6.76,6.7056,6.6951,6.6795,6.6667,6.6691,6.6301,6.6094,6.6094,6.5375,6.4989,6.5185,6.5055,6.3194,5.8983,5.0558,4.3776,3.9765,3.5677,3.371,3.4655,3.4809,3.4812,3.4799,3.4839,3.4864,3.489,3.4903,3.4903,3.4903,3.4903,3.4875,3.4846,3.4839,3.4889,3.5243,3.5275,3.5461,3.5816,3.6243,3.6394,3.5962,3.5855,3.6052,3.6448,3.6557,3.6527,3.657,3.6567,3.6546,3.6546,3.6081,3.5706,3.5376,3.5352,3.5274,3.5073,3.4953,3.479,3.4805,3.4839,3.5175,3.5393,3.5229,3.5175,3.5175,3.5338,3.5406,3.5282,3.5181,3.5092,3.5356,3.5257,3.5312,8.0854,7.2801,7.1229,6.9405,6.7904,6.8222,6.8431,6.8431,6.8431,6.8431,6.8405,6.8171,6.8118,6.8144,6.8327,6.8431,6.8431,6.8431,6.8431,6.8431,6.8431,6.8431,6.8431,6.8431,6.8431,6.8431,6.8431,6.8431,6.8431,6.8431,6.8431,6.8431,6.8431,6.8431,6.8431,6.8431,6.8431,6.8405,6.8197,6.8118,6.7964,6.7184,6.6613,6.6379,6.612,6.594,6.5914,6.5678,6.5496,6.547,6.511,6.4847,6.4613,6.4833,6.2376,5.6739,5.0404,4.4284,3.7947,3.4689,3.3335,3.404,3.407,3.4295,3.4744,3.4826,3.4666,3.4467,3.448,3.4559,3.4559,3.4705,3.4824,3.4797,3.4808,3.4818,3.4818,3.4813,3.497,3.5471,3.5881,3.5921,3.5669,3.558,3.575,3.6062,3.6394,3.6548,3.6561,3.6553,3.6432,3.6144,3.5618,3.5205,3.5088,3.5102,3.5023,3.489,3.4824,3.4824,3.4823,3.4848,3.4818,3.4872,3.4872,3.4872,3.4831,3.5035,3.5156,3.5061,3.488,3.485,3.5081,3.4972,3.485,7.839,7.237,6.8254,6.6899,6.7469,6.8067,6.8327,6.8327,6.8327,6.8327,6.8171,6.7833,6.7651,6.7677,6.7886,6.799,6.799,6.786,6.7808,6.7964,6.8093,6.8223,6.8405,6.8431,6.8431,6.8431,6.8431,6.8431,6.8431,6.8431,6.8431,6.8431,6.8431,6.8431,6.8431,6.8431,6.8431,6.8405,6.791,6.7599,6.7521,6.6925,6.633,6.5857,6.5237,6.4902,6.498,6.4902,6.4951,6.4902,6.4902,6.4665,6.4168,6.45,6.2034,5.6086,5.4961,5.1442,4.3247,3.6715,3.3049,3.3024,3.3115,3.3546,3.454,3.4716,3.4427,3.4005,3.4045,3.4202,3.4176,3.4506,3.4705,3.4812,3.4824,3.4824,3.4797,3.4824,3.4997,3.5438,3.5411,3.5327,3.5416,3.5466,3.5519,3.5558,3.59,3.6161,3.6203,3.6191,3.6014,3.5539,3.5099,3.485,3.481,3.4838,3.4851,3.4851,3.4824,3.4824,3.4824,3.4851,3.4838,3.4809,3.481,3.4823,3.481,3.4838,3.4797,3.485,3.4837,3.481,3.4838,3.4823,3.485,7.6584,6.7553,6.5938,6.5704,6.6377,6.7264,6.7756,6.7807,6.7807,6.7573,6.7184,6.7495,6.7625,6.7495,6.6252,6.5733,6.5447,6.396,6.4142,6.56,6.573,6.6691,6.8275,6.8431,6.8431,6.8431,6.8431,6.8431,6.8431,6.8431,6.8431,6.8431,6.8431,6.8431,6.8431,6.8431,6.8431,6.8379,6.7809,6.729,6.6875,6.6353,6.5756,6.5185,6.4954,6.4902,6.4902,6.4902,6.4902,6.4902,6.4902,6.4361,6.3259,6.3708,6.1086,5.4692,5.0846,4.6291,4.0543,3.5657,3.3044,3.3057,3.3036,3.331,3.3945,3.4064,3.3908,3.3622,3.3781,3.3913,3.3939,3.4176,3.4454,3.48,3.4812,3.4798,3.4824,3.4824,3.4864,3.4904,3.493,3.4957,3.4995,3.5126,3.5203,3.5079,3.5139,3.5202,3.5189,3.517,3.5165,3.4981,3.4876,3.4838,3.4824,3.4824,3.4824,3.4824,3.4824,3.4824,3.4824,3.4824,3.4824,3.4824,3.4824,3.4824,3.4824,3.4824,3.4824,3.4824,3.4824,3.4824,3.4824,3.4824,3.4824,7.5839,6.6278,6.5496,6.5574,6.5938,6.6745,6.7264,6.7469,6.5701,6.4484,6.4098,6.5678,6.6585,6.6767,6.6044,6.5863,6.6094,6.4922,6.5026,6.6195,6.6405,6.721,6.8353,6.8431,6.8431,6.8431,6.8431,6.8431,6.8431,6.8431,6.8431,6.8431,6.8431,6.8431,6.8431,6.8431,6.8431,6.8379,6.6745,6.5655,6.5133,6.3808,6.2895,6.225,6.2484,6.2614,6.2614,6.2354,6.2603,6.336,6.1706,6.1211,6.2135,6.1195,5.7338,5.0054,4.5273,4.0528,3.5508,3.352,3.2682,3.2976,3.3045,3.3176,3.3446,3.3497,3.3446,3.324,3.3491,3.361,3.3454,3.3821,3.4216,3.4757,3.4507,3.4494,3.4719,3.4813,3.4812,3.4811,3.4824,3.4824,3.4824,3.4916,3.49,3.4859,3.4802,3.4852,3.4852,3.483,3.4848,3.4823,3.4824,3.4824,3.4824,3.4824,3.4824,3.4824,3.4824,3.4824,3.4824,3.4824,3.4824,3.4824,3.4824,3.4824,3.4824,3.4824,3.4824,3.4824,3.4824,3.4824,3.4824,3.4824,3.4824,7.5504,6.573,6.5701,6.5493,6.5234,6.5756,6.612,6.6219,6.3228,6.1517,6.1062,6.3553,6.5133,6.5909,6.5938,6.6379,6.7079,6.6687,6.6689,6.7157,6.7625,6.8015,6.8405,6.8431,6.8431,6.8431,6.8431,6.8431,6.8431,6.8431,6.8431,6.8431,6.8431,6.8431,6.8431,6.8431,6.8249,6.7886,6.547,6.4142,6.3956,6.1933,6.04,5.9412,5.9906,5.9939,5.9523,5.9178,5.9403,6.0301,5.74,5.7186,6.0264,5.722,5.2245,4.5371,4.012,3.5512,3.147,3.0997,3.1518,3.2497,3.2886,3.305,3.304,3.3061,3.3054,3.3067,3.3227,3.3243,3.3049,3.3505,3.3885,3.4159,3.3938,3.3926,3.4428,3.4626,3.4839,3.4826,3.4771,3.4718,3.4757,3.4838,3.4797,3.4838,3.4796,3.481,3.4837,3.4824,3.4824,3.4824,3.4824,3.4824,3.4824,3.4824,3.4824,3.4824,3.4824,3.4824,3.4824,3.4824,3.4824,3.4824,3.4824,3.4824,3.4824,3.4824,3.4824,3.4824,3.4824,3.4824,3.4824,3.4824,3.4824,7.4452,6.5152,6.4613,6.3341,6.1607,6.2271,6.1823,6.0731,0.0,0.0,0.0,6.318,6.4528,6.5753,6.3544,6.3336,6.4532,6.1855,6.2135,6.474,6.487,6.612,6.8379,6.8431,6.8431,6.8431,6.8431,6.8431,6.8431,6.8431,6.8431,6.8431,6.8431,6.8431,6.8431,6.8431,6.747,6.5626,6.5055,6.5444,6.6793,6.5964,6.3886,6.0439,6.0952,6.0192,5.7931,5.8095,5.7133,5.4734,5.4838,5.5304,5.578,5.0815,4.7139,4.5454,3.8576,3.4383,3.4418,2.9878,2.8125,3.0609,3.2178,3.3024,3.3038,3.3045,3.3054,3.3054,3.3107,3.2976,3.2638,3.3245,3.3212,3.2045,3.2675,3.3232,3.3401,3.4162,3.4756,3.4759,3.4494,3.4413,3.4731,3.4811,3.4824,3.4824,3.4824,3.4824,3.4824,3.4824,3.4824,3.4824,3.4824,3.4824,3.4824,3.4824,3.4824,3.4824,3.4824,3.4824,3.4824,3.4824,3.4824,3.4811,3.4824,3.4811,3.4824,3.4785,3.4824,3.4824,3.4824,3.4824,3.4824,3.4824,3.4811,7.3041,0.0,6.3341,6.2432,0.0,6.2089,6.0192,5.6527,5.7645,5.845,5.9082,6.0815,6.2375,6.3674,6.2245,6.2531,6.4038,6.2161,6.2453,6.4513,6.5159,6.6198,6.7574,6.8145,6.8275,6.8066,6.8275,6.8431,6.8431,6.8431,6.7808,6.6615,6.6665,6.5938,6.4561,6.4844,6.4428,6.3237,6.4094,6.5,6.5753,6.4406,6.2671,6.0776,6.1263,0.0,0.0,0.0,0.0,0.0,0.0,0.0,0.0,0.0,0.0,4.1269,3.2532,2.7552,2.7811,2.4885,2.4009,2.6271,3.0515,3.1517,2.7949,3.0996,3.2388,3.08,3.1131,3.1596,3.1819,3.2383,3.2087,3.0729,3.2014,3.3052,3.3126,3.38,3.4298,3.4307,3.4084,3.4137,3.448,3.4506,3.4559,3.4744,3.4824,3.4824,3.4824,3.4824,3.4824,3.4824,3.4824,3.4824,3.4824,3.4824,3.4824,3.4824,3.4824,3.4824,3.4824,3.4826,3.4839,3.4826,3.4826,3.4839,3.4786,3.4507,3.4388,3.4693,3.4679,3.448,3.4321,3.4414,3.4519,7.0521,6.2031,6.1913,6.1341,6.0555,6.1465,5.8944,5.4147,5.372,5.4344,5.5716,5.8043,5.9854,6.1075,6.0893,6.1777,6.3466,6.2968,6.3336,6.4513,6.5525,6.6226,6.6693,6.7548,6.791,6.7807,6.8093,6.8301,6.8431,6.8431,6.7444,6.5652,6.56,6.4202,6.1607,0.0,0.0,0.0,6.3289,6.4532,6.487,6.3003,6.1633,6.101,6.1621,0.0,6.1153,6.0718,6.1514,6.3466,5.9813,0.0,0.0,0.0,0.0,0.0,0.0,0.0,0.0,0.0,0.0,0.0,2.5853,2.6961,2.227,2.7875,3.0635,2.7818,2.8942,2.9996,3.0259,3.0537,3.018,2.9229,3.123,3.2716,3.2739,3.3253,3.3698,3.3805,3.3754,3.3834,3.411,3.411,3.4255,3.4493,3.4665,3.4678,3.4612,3.4586,3.4652,3.4786,3.4733,3.4652,3.4612,3.4599,3.4559,3.4612,3.4612,3.4652,3.4733,3.4839,3.4825,3.4441,3.4571,3.4581,3.4581,3.4187,3.4018,3.4507,3.4335,3.4044,3.3755,3.39,3.4229,6.5643,6.0244,6.0173,5.8736,5.6339,5.6511,5.6147,5.5327,5.529,5.5394,5.5586,5.5991,5.7385,5.9326,5.8346,5.9056,6.101,6.0536,6.1159,6.2744,6.3466,6.4818,6.6615,6.6353,6.6951,6.8249,6.7936,6.7988,6.8405,6.8431,6.8275,6.799,6.7964,6.6745,6.4435,6.251,6.1361,6.0802,6.3423,6.5808,6.7782,6.7157,6.5312,6.2333,6.2791,6.1979,5.9542,5.9776,6.1134,6.3251,5.4651,5.2655,5.888,4.1126,3.0931,0.0,2.3842,0.0,0.0,0.0,0.0,0.0,0.0,0.0,0.0,2.3915,2.6818,2.4993,2.7745,2.8797,2.6896,2.6343,2.637,2.7145,2.9779,3.1501,3.1555,3.2462,3.3323,3.3774,3.359,3.3583,3.3768,3.3926,3.3808,3.3847,3.4058,3.4018,3.3913,3.3899,3.4149,3.4728,3.4517,3.4255,3.4031,3.4005,3.4005,3.3939,3.3952,3.4136,3.4636,3.4753,3.445,3.3572,3.3663,3.3925,3.3912,3.3886,3.386,3.3952,3.3886,3.3703,3.3349,3.3493,3.3926,6.339,5.7965,5.7922,5.5716,5.2238,5.2238,5.2576,5.3161,5.2537,5.2641,5.3187,5.2524,5.3368,5.5134,5.4667,5.568,5.7783,5.7307,5.8138,6.0043,6.0997,6.2297,6.3886,6.5237,6.6094,6.6535,6.7548,6.8066,6.8014,6.8275,6.7756,6.6485,6.6485,6.4228,5.9946,6.0354,6.1445,6.2987,6.428,6.6018,6.8301,6.8171,6.7314,6.5808,6.6039,6.5571,6.435,6.4484,6.5181,6.6065,5.8931,5.4186,5.2687,3.877,2.9844,0.0,0.0,0.0,0.0,0.0,0.0,0.0,0.0,0.0,0.0,0.0,2.415,2.1241,2.6042,2.8577,2.6659,2.6261,2.5157,2.2799,2.777,3.1318,3.1319,3.2001,3.272,3.3316,3.2601,3.2143,3.2383,3.2568,3.2886,3.365,3.3094,3.2196,3.1322,3.2417,3.347,3.3816,3.393,3.3965,3.386,3.3808,3.3703,3.3467,3.3402,3.3453,3.3765,3.3785,3.3674,3.3186,3.322,3.3371,3.3378,3.3404,3.3472,3.3568,3.3372,3.3124,3.3036,3.318,3.3349,6.027,5.5275,5.3925,5.1252,4.7957,4.7931,4.8616,4.9614,4.8746,4.885,4.964,4.8746,4.885,4.9707,4.9514,5.0811,5.3121,5.3148,5.4526,5.6952,5.8251,5.9698,6.1283,6.3596,6.4821,6.5263,6.6821,6.7652,6.7807,6.7107,6.5704,6.3631,6.2907,5.9346,5.3189,5.6736,6.0206,6.3131,6.4877,6.6589,6.8353,6.8431,6.8431,6.8431,6.8431,6.8431,6.8431,6.8431,6.8431,6.8225,6.1082,5.4018,4.7532,3.5736,0.0,0.0,0.0,0.0,0.0,0.0,0.0,0.0,0.0,1.4025,2.641,0.0,2.0787,0.0,2.4366,2.7402,2.6343,2.5974,0.0,0.0,2.5027,2.8504,2.7683,2.9654,3.1523,3.2673,3.1241,3.0301,3.0498,3.0854,3.1579,3.2704,3.1064,2.9169,2.8159,3.0745,3.3037,3.3077,3.3058,3.3238,3.3475,3.3413,3.3112,3.3089,3.2932,3.2775,3.2646,3.2636,3.261,3.2627,3.2819,3.2959,3.2857,3.2874,3.2974,3.3088,3.2779,3.2583,3.2743,3.2917,3.3049,5.4422,5.1979,4.6763,4.4064,4.3324,4.3292,4.3974,4.5021,4.4969,4.4969,4.5047,4.4943,4.4137,4.2791,4.2149,0.0,4.6192,4.7661,5.02,5.3552,5.516,5.7368,6.0036,6.0724,6.2697,6.5782,6.5393,6.6301,6.8041,6.4246,6.1283,5.9549,5.7188,5.2192,4.5465,5.1931,5.6382,5.7974,6.4711,6.8223,6.8405,6.8431,6.8431,6.8431,6.8431,6.8431,6.8431,6.8431,6.8431,6.7968,5.5309,4.8099,4.809,0.0,0.0,0.0,0.0,0.0,0.0,0.0,0.0,0.0,0.0,0.0,0.0,0.0,0.0,0.0,2.2983,0.0,2.4472,2.3513,0.0,0.0,0.0,2.0355,1.7153,2.3532,2.9159,3.1826,0.0,0.0,2.8414,2.8955,2.97,3.0503,2.7308,2.5009,2.5472,2.9865,3.3058,3.2773,3.1845,3.1457,3.264,3.2073,3.1667,3.2504,3.2523,3.1868,3.1583,3.1451,3.1402,3.1531,3.233,3.2846,3.2259,3.2267,3.2391,3.1931,3.2149,3.239,3.2241,3.2628,3.2991,4.8522,4.2611,4.0046,3.8854,3.8643,3.8672,3.9894,4.1895,4.1531,4.1162,4.0829,4.0154,3.8698,3.6804,3.657,0.0,0.0,0.0,4.3948,4.7986,4.9955,5.3005,5.683,5.8814,6.077,6.2748,6.4613,6.5808,6.6278,6.5886,5.8355,4.404,0.0,0.0,3.6871,4.6519,5.3103,5.6483,6.428,6.8431,6.8431,6.8431,6.8431,6.8431,6.8431,6.8431,6.8431,6.8431,6.8417,6.826,5.4108,4.1273,0.0,0.0,0.0,0.0,0.0,0.0,0.0,0.0,0.0,0.0,0.0,1.1571,1.8118,0.0,0.0,0.0,2.0026,1.968,2.0556,2.4335,0.0,0.0,0.0,0.0,0.0,0.0,0.0,2.6227,2.6423,2.6623,2.6872,2.7164,2.7404,2.7704,2.5482,2.5311,2.939,0.0,2.8828,2.8831,2.8875,2.9426,3.0685,2.9826,2.9164,2.9797,2.9334,2.9362,3.0851,3.0705,3.0507,3.1043,3.1117,3.1174,3.1937,3.1088,3.0401,3.0771,3.1333,3.1734,3.1664,3.2062,3.2589,4.1453,0.0,0.0,0.0,0.0,3.3217,3.467,3.7011,3.6383,3.589,3.5501,3.4488,0.0,0.0,0.0,0.0,0.0,0.0,3.8675,4.2655,4.6071,4.9629,5.337,5.5607,5.7359,5.8726,6.0633,6.1159,6.0549,6.0078,4.9997,3.1085,0.0,0.0,0.0,0.0,4.6965,5.251,6.1361,6.6763,6.8354,6.8431,6.8431,6.8431,6.8431,6.7661,6.607,6.5011,6.4727,6.4884,4.9115,0.0,0.0,0.0,0.0,0.0,0.0,0.0,0.0,0.0,0.0,0.0,0.0,0.0,0.0,0.0,0.0,0.0,0.0,0.0,1.7577,2.2107,2.2148,0.0,0.0,0.0,0.0,0.0,0.0,0.0,0.0,0.0,2.5133,2.6015,2.6643,0.0,0.0,2.6203,3.0874,2.8124,2.5574,2.5546,2.6734,0.0,2.8234,2.7521,2.7019,2.7317,2.638,2.6746,3.0222,2.98,2.9438,3.0528,2.9847,2.9214,2.9844,2.8506,2.7589,2.8326,2.8995,2.9307,2.9233,2.9902,3.102,0.0,0.0,0.0,0.0,0.0,0.0,0.0,0.0,2.8909,2.868,0.0,2.8074,0.0,0.0,0.0,0.0,0.0,3.1322,0.0,0.0,4.4019,4.7993,4.9617,5.042,5.1966,5.3836,5.2005,5.0642,4.9546,4.2869,0.0,0.0,0.0,0.0,0.0,0.0,3.6635,4.465,5.5111,6.3008,6.82,6.8431,6.8431,6.8431,6.8431,6.5865,6.0585,5.7062,5.5913,5.7075,3.8222,0.0,0.0,0.0,0.0,0.0,0.0,0.0,0.0,0.0,0.0,0.0,0.0,0.0,0.0,0.0,0.0,0.0,0.0,0.0,0.0,1.5027,0.0,0.0,0.0,0.0,0.0,0.0,0.0,0.0,0.0,0.0,2.2765,2.58,2.7935,2.6935,0.0,0.0,0.0,0.0,2.4338,2.4362,2.6007,2.6805,2.5593,2.5585,2.5843,2.6343,0.0,0.0,2.8795,2.8572,2.7999,2.9342,2.8494,2.7277,2.5538,2.4193,2.3447,2.4037,2.4708,2.4703,2.4085,2.5429,2.8015,0.0,0.0,0.0,0.0,0.0,0.0,0.0,0.0,0.0,2.6106,0.0,2.4865,0.0,0.0,0.0,0.0,0.0,0.0,0.0,0.0,3.5003,3.8569,4.1869,4.3981,4.5394,0.0,4.4391,3.9003,0.0,0.0,0.0,0.0,0.0,0.0,0.0,0.0,3.5455,4.3077,5.4223,6.2801,6.8097,6.8431,6.8431,6.8431,6.8431,6.4656,5.6671,4.9814,4.4736,0.0,0.0,0.0,0.0,0.0,0.0,0.0,0.0,0.0,0.0,0.0,0.0,0.0,0.0,0.0,0.0,0.0,0.0,0.0,0.0,0.0,0.0,0.0,1.4049,0.0,0.0,0.0,0.0,0.0,0.0,0.0,0.0,0.0,1.7964,2.132,2.5172,2.8188,2.9273,2.9818,3.0061,0.0,0.0,0.0,0.0,0.0,0.0,0.0,2.3589,2.2631,2.0631,2.0446,2.4347,2.2116,2.0702,2.3386,0.0,0.0,2.4181,2.2235,2.0818,2.1075,2.2618,2.2769,1.9041,2.0747,2.3331,0.0,0.0,0.0,0.0,0.0,0.0,0.0,0.0,0.0,2.2595,2.186,0.0,0.0,0.0,0.0,0.0,0.0,0.0,0.0,0.0,0.0,0.0,3.4881,3.682,0.0,0.0,0.0,0.0,0.0,0.0,0.0,0.0,0.0,0.0,0.0,0.0,3.1874,3.9371,4.9187,5.7964,6.5349,6.3754,6.3651,6.5555,6.5432,6.0969,5.1832,0.0,0.0,0.0,0.0,0.0,0.0,0.0,0.0,0.0,0.0,0.0,0.0,0.0,0.0,0.0,0.0,0.0,0.0,0.0,0.0,0.0,0.0,0.0,0.0,0.0,1.3309,0.0,0.0,0.0,0.0,0.0,0.0,0.0,0.0,0.0,0.0,0.0,2.4504,2.4817,2.2494,2.3322,3.0377,2.7471,2.4834,0.0,0.0,0.0,0.0,0.0,0.0,0.0,0.0,0.0,0.0,0.0,0.0,0.0,0.0,2.2119,2.0837,1.8727,1.6844,1.5877,0.0,0.0,0.0,0.0,0.0,0.0,0.0,0.0,0.0,0.0,0.0,0.0,0.0,0.0,0.0,0.0,0.0,0.0,1.7153,0.0,0.0,0.0,0.0,0.0,0.0,0.0,0.0,0.0,0.0,0.0,0.0,0.0,0.0,0.0,0.0,0.0,0.0,0.0,0.0,0.0,0.0,2.5739,3.3258,4.02,4.8738,5.9298,5.4616,5.4773,5.9943,5.9343,5.4878,4.6138,0.0,0.0,0.0,0.0,0.0,0.0,0.0,0.0,0.0,0.0,0.0,0.0,0.0,0.0,0.0,0.0,0.0,0.0,0.0,0.0,0.0,0.0,0.0,0.0,0.0,0.0,1.2883,1.4395,1.49,0.0,0.0,0.0,0.0,0.0,0.0,0.0,0.0,0.0,0.0,0.6514,0.7767,2.8215,2.8736,2.775,3.0293,2.6751,2.4053,2.5055,2.5658,2.5355,0.0,0.0,0.0,0.0,0.0,0.0,0.0,0.0,0.0,0.0,0.0,0.0,0.0,0.0,0.0,0.0,0.0,0.0,0.0,0.0,0.0,0.0,0.0,0.0,0.0,0.0,0.0,0.0,0.0,0.0,0.0,0.0,0.0,0.0,0.0,0.0,0.0,0.0,0.0,0.0,0.0,0.0,0.0,0.0,0.0,0.0,0.0,0.0,0.0,0.0,0.0,0.0,0.0,0.0,2.5583,3.2794,4.3089,5.0013,5.3464,5.5464,5.7534,5.9446,5.641,5.1067,0.0,0.0,0.0,0.0,0.0,0.0,0.0,0.0,0.0,0.0,0.0,0.0,0.0,0.0,0.0,0.0,0.0,0.0,0.0,0.0,0.0,0.0,0.0,0.0,0.0,0.0,0.0,0.0,1.1221,1.3103,1.5961,0.0,0.0,0.0,0.0,0.0,0.0,0.0,0.0,0.0,0.0,0.7291,2.7164,2.9615,2.8031,2.4437,2.5415,2.6223,2.5379,2.5825,2.5356,2.2582,0.0,0.0,0.0,0.0,0.0,0.0,0.0,0.0,0.0,0.0,0.0,0.0,0.0,0.0,0.0,0.0,0.0,0.0,0.0,0.0,0.0,0.0,0.0,0.0,0.0,0.0,0.0,0.0,0.0,0.0,0.0,0.0,0.0,0.0,0.0,0.0,0.0,0.0,0.0,0.0,0.0,0.0,0.0,0.0,0.0,0.0,0.0,0.0,0.0,0.0,0.0,0.0,0.0,2.4004,2.9453,3.9024,4.5208,4.7708,4.8919,5.0639,5.2847,4.9314,4.3393,0.0,0.0,0.0,0.0,0.0,0.0,0.0,0.0,0.0,0.0,0.0,0.0,0.0,0.0,0.0,0.0,0.0,0.0,0.0,0.0,0.0,0.0,0.0,0.0,0.0,0.0,0.0,0.0,1.0535,1.2875,1.5624,0.0,0.0,0.0,0.0,0.0,0.0,0.0,0.0,0.0,0.0,0.438,1.6469,2.4227,0.0,0.0,2.3076,2.611,2.7045,2.6846,2.5329,2.1704,2.0374,0.0,0.0,0.0,0.0,0.0,0.0,0.0,0.0,0.0,0.0,0.0,0.0,0.0,0.0,0.0,0.0,0.0,0.0,0.0,0.0,0.0,0.0,0.0,0.0,0.0,0.0,0.0,0.0,0.0,0.0,0.0,0.0,0.0,0.0,0.0,0.0,0.0,0.0,0.0,0.0,0.0,0.0,0.0,0.0,0.0,0.0,0.0,0.0,0.0,0.0,0.0,0.0,0.0,2.4235,3.0334,3.6567,4.1964,3.765,3.7415,4.2011,3.978,3.3737,0.0,0.0,0.0,0.0,0.0,0.0,0.0,0.0,0.0,0.0,0.0,0.0,0.0,0.0,0.0,0.0,0.0,0.0,0.0,0.0,0.0,0.0,0.0,0.0,0.0,0.0,0.0,0.0,0.0,0.0,0.0,0.0,0.0,0.0,0.0,0.0,0.0,0.0,0.0,0.0,0.0,0.0,0.0,1.4574,2.3486,0.0,2.0266,2.4326,2.9356,2.8123,2.5027,2.0675,0.0,0.0,0.0,0.0,0.0,0.0,0.0,0.0,0.0,0.0,0.0,0.0,0.0,0.0,0.0,0.0,0.0,0.0,0.0,0.0,0.0,0.0,0.0,0.0,0.0,0.0,0.0,0.0,0.0,0.0,0.0,0.0,0.0,0.0,0.0,0.0,0.0,0.0,0.0,0.0,0.0,0.0,0.0,0.0,0.0,0.0,0.0,0.0,0.0,0.0,0.0,0.0,0.0,0.0,2.2802,3.2585,3.6702,3.4713,3.7221,3.9458,4.0909,3.6032,0.0,0.0,0.0,0.0,0.0,0.0,0.0,0.0,0.0,0.0,0.0,0.0,0.0,0.0,0.0,0.0,0.0,0.0,0.0,0.0,0.0,0.0,0.0,0.0,0.0,0.0,0.0,0.698,0.0,0.0,0.0,0.0,0.0,0.0,0.0,0.0,0.0,0.0,0.0,0.0,0.0,0.0,0.0,0.0,1.1171,1.8661,0.0,0.0,2.4246,2.7894,2.5725,2.2652,0.0,0.0,0.0,0.0,0.0,0.0,0.0,0.0,0.0,0.0,0.0,0.0,0.0,0.0,0.0,0.0,0.0,0.0,0.0,0.0,0.0,0.0,0.0,0.0,0.0,0.0,0.0,0.0,0.0,0.0,0.0,0.0,0.0,0.0,0.0,0.0,0.0,0.0,0.0,0.0,0.0,0.0,0.0,0.0,0.0,0.0,0.0,0.0,0.0,0.0,0.0,0.0,0.0,0.0,1.9102,2.2281,2.99,3.326,3.2,3.4952,3.6567,3.6587,3.1877,2.9255,0.0,0.0,0.0,0.0,0.0,0.0,0.0,0.0,0.0,0.0,0.0,0.0,0.0,0.0,0.0,0.0,0.0,0.0,0.0,0.0,0.0,0.0,0.0,0.0,0.0,0.0,0.0,0.0,0.0,0.0,0.0,0.0,0.0,0.0,0.0,0.0,0.0,0.0,0.0,0.0,0.0,0.0,0.0,0.9479,0.0,0.0,0.0,2.3068,2.5844,0.0,0.0,0.0,0.0,0.0,0.0,0.0,0.0,0.0,0.0,0.0,0.0,0.0,0.0,0.0,0.0,0.0,0.0,0.0,0.0,0.0,0.0,0.0,0.0,0.0,0.0,0.0,0.0,0.0,0.0,0.0,0.0,0.0,0.0,0.0,0.0,0.0,0.0,0.0,0.0,0.0,0.0,0.0,0.0,0.0,0.0,0.0,0.0,0.0,0.0,0.0,0.0,0.0,0.0,0.0,0.0,0.0,2.1861,2.5093,2.8436,3.1622,3.1846,3.1645,3.1086,2.8081,2.5588,0.0,0.0,0.0,0.0,0.0,0.0,0.0,0.0,0.0,0.0,0.0,0.0,0.0,0.0,0.0,0.0,0.0,0.0,0.0,0.0,0.0,0.0,0.0,0.0,0.0,0.0,0.0,0.0,0.0,0.0,0.0,0.0,0.0,0.0,0.0,0.0,0.0,0.0,0.0,0.0,0.0,0.0,0.0,0.8902,1.187,0.0,0.0,2.1392,2.3027,2.0624,0.0,0.0,0.0,0.0,0.0,0.0,0.0,0.0,0.0,0.0,0.0,0.0,0.0,0.0,0.0,0.0,0.0,0.0,0.0,0.0,0.0,0.0,0.0,0.0,0.0,0.0,0.0,0.0,0.0,0.0,0.0,0.0,0.0,0.0,0.0,0.0,0.0,0.0,0.0,0.0,0.0,0.0,0.0,0.0,0.0,0.0,0.0,0.0,0.0,0.0,0.0,0.0,0.0,0.0,0.0,0.0,2.0741,2.4553,2.7778,3.0214,3.0569,3.0424,2.9898,2.7801,2.5697,0.0,0.0,0.0,0.0,0.0,0.0,0.0,0.0,0.0,0.0,0.0,0.0,0.0,0.0,0.0,0.0,0.0,0.0,0.0,0.0,0.0,0.0,0.0,0.0,0.0,0.0,0.0,0.0,0.0,0.0,0.0,0.0,0.0,0.0,0.0,0.0,0.0,0.0,0.0,0.0,0.0,0.0,0.0,0.891,0.0,0.0,0.0,0.0,1.766,1.2557,0.0,0.0,0.0,0.0,0.0,0.0,0.0,0.0,0.0,0.0,0.0,0.0,0.0,0.0,0.0,0.0,0.0,0.0,0.0,0.0,0.0,0.0,0.0,0.0,0.0,0.0,0.0,0.0,0.0,0.0,0.0,0.0,0.0,0.0,0.0,0.0,0.0,0.0,0.0,0.0,0.0,0.0,0.0,0.0,0.0,0.0,0.0,0.0,0.0,0.0,0.0,0.0,0.0,0.0,0.0,0.0,2.0471,2.3341,2.6344,2.9416,2.9825,2.9759,2.9343,2.7478,2.5407,0.0,0.0,0.0,0.0,0.0,0.0,0.0,0.0,0.0,0.0,0.0,0.0,0.0,0.0,0.0,0.0,0.0,0.0,0.0,0.0,0.0,0.0,0.0,0.0,0.0,0.0,0.0,0.0,0.0,0.0,0.0,0.0,0.0,0.0,0.0,0.0,0.0,0.0,0.0,0.0,0.0,0.0,0.0,0.0,0.0,0.0,0.0,0.0,0.0,0.5275,0.2414,0.0,0.0,0.0,0.0,0.0,0.0,0.0,0.0,0.0,0.0,0.0,0.0,0.0,0.0,0.0,0.0,0.0,0.0,0.0,0.0,0.0,0.0,0.0,0.0,0.0,0.0,0.0,0.0,0.0,0.0,0.0,0.0,0.0,0.0,0.0,0.0,0.0,0.0,0.0,0.0,0.0,0.0,0.0,0.0,0.0,0.0,0.0,0.0,0.0,0.0,0.0,0.0,0.0,0.0,0.0,2.0137,2.2004,2.4842,2.8793,2.9317,2.9383,2.896,2.7059,2.4817,2.2243,0.0,0.0,0.0,0.0,0.0,0.0,0.0,0.0,0.0,0.0,0.0,0.0,0.0,0.0,0.0,0.0,0.0,0.0,0.0,0.0,0.0,0.0,0.0,0.0,0.0,0.0,0.0,0.0,0.0,0.0,0.0,0.0,0.0,0.0,0.0,0.0,0.0,0.0,0.0,0.0,0.0,0.0,0.0,0.0,0.0,0.0,0.0,0.0,0.0,0.0,0.0,0.0,0.0,0.0,0.0,0.0,0.0,0.0,0.0,0.0,0.0,0.0,0.0,0.0,0.0,0.0,0.0,0.0,0.0,0.0,0.0,0.0,0.0,0.0,0.0,0.0,0.0,0.0,0.0,0.0,0.0,0.0,0.0,0.0,0.0,0.0,0.0,0.0,0.0,0.0,0.0,0.0,0.0,0.0,0.0,0.0,0.0,0.0,0.0,0.0,0.0,0.0,0.0,0.0,0.0,0.0,2.1202,2.446,2.759,2.8907,2.9185,2.8348,2.6608,2.3824,1.9788,0.0,0.0,0.0,0.0,0.0,0.0,0.0,0.0,0.0,0.0,0.0,0.0,0.0,0.0,0.0,0.0,0.0,0.0,0.0,0.0,0.0,0.0,0.0,0.0,0.0,0.0,0.0,0.0,0.0,0.0,0.0,0.0,0.0,0.0,0.0,0.0,0.0,0.0,0.0,0.0,0.0,0.0,0.0,0.0,0.0,0.0,0.0,0.0,0.0,0.0,0.0,0.0,0.0,0.0,0.0,0.0,0.0,0.0,0.0,0.0,0.0,0.0,0.0,0.0,0.0,0.0,0.0,0.0,0.0,0.0,0.0,0.0,0.0,0.0,0.0,0.0,0.0,0.0,0.0,0.0,0.0,0.0,0.0,0.0,0.0,0.0,0.0,0.0,0.0,0.0,0.0,0.0,0.0,0.0,0.0,0.0,0.0,0.0,0.0,0.0,0.0,0.0,0.0,0.0,0.0,0.0,0.0,2.3757,2.6582,2.823,2.8739,2.8081,2.4987,2.1735,0.0,0.0,0.0,0.0,0.0,0.0,0.0,0.0,0.0,0.0,0.0,0.0,0.0,0.0,0.0,0.0,0.0,0.0,0.0,0.0,0.0,0.0,0.0,0.0,0.0,0.0,0.0,0.0,0.0,0.0,0.0,0.0,0.0,0.0,0.0,0.0,0.0,0.0,0.0,0.0,0.0,0.0,0.0,0.0,0.0,0.0,0.0,0.0,0.0,0.0,0.0,0.0,0.0,0.0,0.0,0.0,0.0,0.0,0.0,0.0,0.0,0.0,0.0,0.0,0.0,0.0,0.0,0.0,0.0,0.0,0.0,0.0,0.0,0.0,0.0,0.0,0.0,0.0,0.0,0.0,0.0,0.0,0.0,0.0,0.0,0.0,0.0,0.0,0.0,0.0,0.0,0.0,0.0,0.0,0.0,0.0,0.0,0.0,0.0,0.0,0.0,0.0,0.0,0.0,0.0,0.0,0.0,0.0,2.2811,2.5434,2.7396,2.8199,2.7699,2.3276,1.9721,0.0,0.0,0.0,0.0,0.0,0.0,0.0,0.0,0.0,0.0,0.0,0.0,0.0,0.0,0.0,0.0,0.0,0.0,0.0,0.0,0.0,0.0,0.0,0.0,0.0,0.0,0.0,0.0,0.0,0.0,0.0,0.0,0.0,0.0,0.0,0.0,0.0,0.0,0.0,0.0,0.0,0.0,0.0,0.0,0.0,0.0,0.0,0.0,0.0,0.0,0.0,0.0,0.0,0.0,0.0,0.0,0.0,0.0,0.0,0.0,0.0,0.0,0.0,0.0,0.0,0.0,0.0,0.0,0.0,0.0,0.0,0.0,0.0,0.0,0.0,0.0,0.0,0.0,0.0,0.0,0.0,0.0,0.0,0.0,0.0,0.0,0.0,0.0,0.0,0.0,0.0,0.0,0.0,0.0,0.0,0.0,0.0,0.0,0.0,0.0,0.0,0.0,0.0,0.0,0.0,0.0,0.0,0.0,2.1835,2.3744,2.645,2.7373,2.6199,2.2054,1.8409,0.0,0.0,0.0,0.0,0.0,0.0,0.0,0.0,0.0,0.0,0.0,0.0,0.0,0.0,0.0,0.0,0.0,0.0,0.0,0.0,0.0,0.0,0.0,0.0,0.0,0.0,0.0,0.0,0.0,0.0,0.0,0.0,0.0,0.0,0.0,0.0,0.0,0.0,0.0,0.0,0.0,0.0,0.0,0.0,0.0,0.0,0.0,0.0,0.0,0.0,0.0,0.0,0.0,0.0,0.0,0.0,0.0,0.0,0.0,0.0,0.0,0.0,0.0,0.0,0.0,0.0,0.0,0.0,0.0,0.0,0.0,0.0,0.0,0.0,0.0,0.0,0.0,0.0,0.0,0.0,0.0,0.0,0.0,0.0,0.0,0.0,0.0,0.0,0.0,0.0,0.0,0.0,0.0,0.0,0.0,0.0,0.0,0.0,0.0,0.0,0.0,0.0,0.0,0.0,0.0,0.0,0.0,0.0,1.9439,2.2117,2.4393,2.4577,2.2621,1.9119,1.6455,0.0,0.0,0.0,0.0,0.0,0.0,0.0,0.0,0.0,0.0,0.0,0.0,0.0,0.0,0.0,0.0,0.0,0.0,0.0,0.0,0.0,0.0,0.0,0.0,0.0,0.0,0.0,0.0,0.0,0.0,0.0,0.0,0.0,0.0,0.0,0.0,0.0,0.0,0.0,0.0,0.0,0.0,0.0,0.0,0.0,0.0,0.0,0.0,0.0,0.0,0.0,0.0,0.0,0.0,0.0,0.0,0.0,0.0,0.0,0.0,0.0,0.0,0.0,0.0,0.0,0.0,0.0,0.0,0.0,0.0,0.0,0.0,0.0,0.0,0.0,0.0,0.0,0.0,0.0,0.0,0.0,0.0,0.0,0.0,0.0,0.0,0.0,0.0,0.0,0.0,0.0,0.0,0.0,0.0,0.0,0.0,0.0,0.0,0.0,0.0,0.0,0.0,0.0,0.0,0.0,0.0,0.0,0.0,0.0,1.9993,2.1545,2.1301,1.9135,1.6588,1.4653,0.0,0.0,0.0,0.0,0.0,0.0,0.0,0.0,0.0,0.0,0.0,0.0,0.0,0.0,0.0,0.0,0.0,0.0,0.0,0.0,0.0,0.0,0.0,0.0,0.0,0.0,0.0,0.0,0.0,0.0,0.0,0.0,0.0,0.0,0.0,0.0,0.0,0.0,0.0,0.0,0.0,0.0,0.0,0.0,0.0,0.0,0.0,0.0,0.0,0.0,0.0,0.0,0.0,0.0,0.0,0.0,0.0,0.0,0.0,0.0,0.0,0.0,0.0,0.0,0.0,0.0,0.0,0.0,0.0,0.0,0.0,0.0,0.0,0.0,0.0,0.0,0.0,0.0,0.0,0.0,0.0,0.0,0.0,0.0,0.0,0.0,0.0,0.0,0.0,0.0,0.0,0.0,0.0,0.0,0.0,0.0,0.0,0.0,0.0,0.0,0.0,0.0,0.0,0.0,0.0,0.0,0.0,0.0,0.0,1.7141,1.7855,1.775,1.6744,1.5236,1.3286,0.0,0.0,0.0,0.0,0.0,0.0,0.0,0.0,0.0,0.0,0.0,0.0,0.0,0.0,0.0,0.0,0.0,0.0,0.0,0.0,0.0,0.0,0.0,0.0,0.0,0.0,0.0,0.0,0.0,0.0,0.0,0.0,0.0,0.0,0.0,0.0,0.0,0.0,0.0,0.0,0.0,0.0,0.0,0.0,0.0,0.0,0.0,0.0,0.0,0.0,0.0,0.0,0.0,0.0,0.0,0.0,0.0,0.0,0.0,0.0,0.0,0.0,0.0,0.0,0.0,0.0,0.0,0.0,0.0,0.0,0.0,0.0,0.0,0.0,0.0,0.0,0.0,0.0,0.0,0.0,0.0,0.0,0.0,0.0,0.0,0.0,0.0,0.0,0.0,0.0,0.0,0.0,0.0,0.0,0.0,0.0,0.0,0.0,0.0,0.0,0.0,0.0,0.0,0.0,0.0,0.0,0.0,0.0,0.0,1.2962,1.3843,1.4416,1.4583,1.2849,1.1648,1.0961,0.0,0.0,0.0,0.0,0.0,0.0,0.0,0.0,0.0,0.0,0.0,0.0,0.0,0.0,0.0,0.0,0.0,0.0,0.0,0.0,0.0,0.0,0.0,0.0,0.0,0.0,0.0,0.0,0.0,0.0,0.0,0.0,0.0,0.0,0.0,0.0,0.0,0.0,0.0,0.0,0.0,0.0,0.0,0.0,0.0,0.0,0.0,0.0,0.0,0.0,0.0,0.0,0.0,0.0,0.0,0.0,0.0,0.0,0.0,0.0,0.0,0.0,0.0,0.0,0.0,0.0,0.0,0.0,0.0,0.0,0.0,0.0,0.0,0.0,0.0,0.0,0.0,0.0,0.0,0.0,0.0,0.0,0.0,0.0,0.0,0.0,0.0,0.0,0.0,0.0,0.0,0.0,0.0,0.0,0.0,0.0,0.0,0.0,0.0,0.0,0.0,0.0,0.0,0.0,0.0,0.0,0.0,0.0,1.0902,1.1991,1.2704,1.2809,1.155,1.0753,0.0,0.0,0.0,0.0,0.0,0.0,0.0,0.0,0.0,0.0,0.0,0.0,0.0,0.0,0.0,0.0,0.0,0.0,0.0,0.0,0.0,0.0,0.0,0.0,0.0,0.0,0.0,0.0,0.0,0.0,0.0,0.0,0.0,0.0,0.0,0.0,0.0,0.0,0.0,0.0,0.0,0.0,0.0,0.0,0.0,0.0,0.0,0.0,0.0,0.0,0.0,0.0,0.0,0.0,0.0,0.0,0.0,0.0,0.0,0.0,0.0,0.0,0.0,0.0,0.0,0.0,0.0,0.0,0.0,0.0,0.0,0.0,0.0,0.0,0.0,0.0,0.0,0.0,0.0,0.0,0.0,0.0,0.0,0.0,0.0,0.0,0.0,0.0,0.0,0.0,0.0,0.0,0.0,0.0,0.0,0.0,0.0,0.0,0.0,0.0,0.0,0.0,0.0,0.0,0.0,0.0,0.0,0.0,0.9718,1.1549,1.2711,1.273,1.1746,1.1633,1.0716,0.0,0.0,0.0,0.0,0.0,0.0,0.0,0.0,0.0,0.0,0.0,0.0,0.0,0.0,0.0,0.0,0.0,0.0,0.0,0.0,0.0,0.0,0.0,0.0,0.0,0.0,0.0,0.0,0.0,0.0,0.0,0.0,0.0,0.0,0.0,0.0,0.0,0.0,0.0,0.0,0.0,0.0,0.0,0.0,0.0,0.0,0.0,0.0,0.0,0.0,0.0,0.0,0.0,0.0,0.0,0.0,0.0,0.0,0.0,0.0,0.0,0.0,0.0,0.0,0.0,0.0,0.0,0.0,0.0,0.0,0.0,0.0,0.0,0.0,0.0,0.0,0.0,0.0,0.0,0.0,0.0,0.0,0.0,0.0,0.0,0.0,0.0,0.0,0.0,0.0,0.0,0.0,0.0,0.0,0.0,0.0,0.0,0.0,0.0,0.0,0.0,0.0,0.0,0.0,0.0,0.0,0.0,0.0,0.0,0.9693,0.0,1.1278,0.0,1.0949,1.02,0.0,0.0,0.0,0.0,0.0,0.0,0.0,0.0,0.0,0.0,0.0,0.0,0.0,0.0,0.0,0.0,0.0,0.0,0.0,0.0,0.0,0.0,0.0,0.0,0.0,0.0,0.0,0.0,0.0,0.0,0.0,0.0,0.0,0.0,0.0,0.0,0.0,0.0,0.0,0.0,0.0,0.0,0.0,0.0,0.0,0.0,0.0,0.0,0.0,0.0,0.0,0.0,0.0,0.0,0.0,0.0,0.0,0.0,0.0,0.0,0.0,0.0,0.0,0.0,0.0,0.0,0.0,0.0,0.0,0.0,0.0,0.0,0.0,0.0,0.0,0.0,0.0,0.0,0.0,0.0,0.0,0.0,0.0,0.0,0.0,0.0,0.0,0.0,0.0,0.0,0.0,0.0,0.0,0.0,0.0,0.0,0.0,0.0,0.0,0.0,0.0,0.0,0.0,0.0,0.0,0.0,0.0,0.0,0.0,0.9744,0.9831,1.0588,1.1872,1.0812,1.0229,0.0,0.0,0.0,0.0,0.0,0.0,0.0,0.0,0.0,0.0,0.0,0.0,0.0,0.0,0.0,0.0,0.0,0.0,0.0,0.0,0.0,0.0,0.0,0.0,0.0,0.0,0.0,0.0,0.0,0.0,0.0,0.0,0.0,0.0,0.0,0.0,0.0,0.0,0.0,0.0,0.0,0.0,0.0,0.0,0.0,0.0,0.0,0.0,0.0,0.0,0.0,0.0,0.0,0.0,0.0,0.0,0.0,0.0,0.0,0.0,0.0,0.0,0.0,0.0,0.0,0.0,0.0,0.0,0.0,0.0,0.0,0.0,0.0,0.0,0.0,0.0,0.0,0.0,0.0,0.0,0.0,0.0,0.0,0.0,0.0,0.0,0.0,0.0,0.0,0.0,0.0,0.0,0.0,0.0,0.0,0.0,0.0,0.0,0.0,0.0,0.0,0.0,0.0,0.0,0.0,0.0,0.0,0.0,0.0,0.0,1.0811,1.0573,1.0832,1.1097,1.0677,0.0,0.0,0.0,0.0,0.0,0.0,0.0,0.0,0.0,0.0,0.0,0.0,0.0,0.0,0.0,0.0,0.0,0.0,0.0,0.0,0.0,0.0,0.0,0.0,0.0,0.0,0.0,0.0,0.0,0.0,0.0,0.0,0.0,0.0,0.0,0.0,0.0,0.0,0.0,0.0,0.0,0.0,0.0,0.0,0.0,0.0,0.0,0.0,0.0,0.0,0.0,0.0,0.0,0.0,0.0,0.0,0.0,0.0,0.0,0.0,0.0,0.0,0.0,0.0,0.0,0.0,0.0,0.0,0.0,0.0,0.0,0.0,0.0,0.0,0.0,0.0,0.0,0.0,0.0,0.0,0.0,0.0,0.0,0.0,0.0,0.0,0.0,0.0,0.0,0.0,0.0,0.0,0.0,0.0,0.0,0.0,0.0,0.0,0.0,0.0,0.0,0.0,0.0,0.0,0.0,0.0,0.0,0.0,0.0,0.0,0.9891,0.0,1.0186,1.0054,0.995,0.9802,0.0,0.0,0.0,0.0,0.0,0.0,0.0,0.0,0.0,0.0,0.0,0.0,0.0,0.0,0.0,0.0,0.0,0.0,0.0,0.0,0.0,0.0,0.0,0.0,0.0,0.0,0.0,0.0,0.0,0.0,0.0,0.0,0.0,0.0,0.0,0.0,0.0,0.0,0.0,0.0,0.0,0.0,0.0,0.0,0.0,0.0,0.0,0.0,0.0,0.0,0.0,0.0,0.0,0.0,0.0,0.0,0.0,0.0,0.0,0.0,0.0,0.0,0.0,0.0,0.0,0.0,0.0,0.0,0.0,0.0,0.0,0.0,0.0,0.0,0.0,0.0,0.0,0.0,0.0,0.0,0.0,0.0,0.0,0.0,0.0,0.0,0.0,0.0,0.0,0.0,0.0,0.0,0.0,0.0,0.0,0.0,0.0,0.0,0.0,0.0,0.0,0.0,0.0,0.0,0.0,0.0,0.0,0.0,0.0,0.0,0.0,0.9881,0.9647,0.9594,0.0,0.0,0.0,0.0,0.0,0.0,0.0,0.0,0.0,0.0,0.0,0.0,0.0,0.0,0.0,0.0,0.0,0.0,0.0,0.0,0.0,0.0,0.0,0.0,0.0,0.0,0.0,0.0,0.0,0.0,0.0,0.0,0.0,0.0,0.0,0.0,0.0,0.0,0.0,0.0,0.0,0.0,0.0,0.0,0.0,0.0,0.0,0.0,0.0,0.0,0.0,0.0,0.0,0.0,0.0,0.0,0.0,0.0,0.0,0.0,0.0,0.0,0.0,0.0,0.0,0.0,0.0,0.0,0.0,0.0,0.0,0.0,0.0,0.0,0.0,0.0,0.0,0.0,0.0,0.0,0.0,0.0,0.0,0.0,0.0,0.0,0.0,0.0,0.0,0.0,0.0,0.0,0.0,0.0,0.0,0.0,0.0,0.0,0.0,0.0,0.0,0.0,0.0,0.0,0.0,0.0,0.0,0.0,0.0,0.0,0.0,0.7109,0.9698,0.9605,0.0,0.9464,0.0,0.0,0.0,0.0,0.0,0.0,0.0,0.0,0.0,0.0,0.0,0.0,0.0,0.0,0.0,0.0,0.0,0.0,0.0,0.0,0.0,0.0,0.0,0.0,0.0,0.0,0.0,0.0,0.0,0.0,0.0,0.0,0.0,0.0,0.0,0.0,0.0,0.0,0.0,0.0,0.0,0.0,0.0,0.0,0.0,0.0,0.0,0.0,0.0,0.0,0.0,0.0,0.0,0.0,0.0,0.0,0.0,0.0,0.0,0.0,0.0,0.0,0.0,0.0,0.0,0.0,0.0,0.0,0.0,0.0,0.0,0.0,0.0,0.0,0.0,0.0,0.0,0.0,0.0,0.0,0.0,0.0,0.0,0.0,0.0,0.0,0.0,0.0,0.0,0.0,0.0,0.0,0.0,0.0,0.0,0.0,0.0,0.0,0.0,0.0,0.0,0.0,0.0,0.0,0.0,0.0,0.0,0.0,0.0,0.0,0.0,0.0,0.9246,0.9231,0.8928,0.0,0.0,0.0,0.0,0.0,0.0,0.0,0.0,0.0,0.0,0.0,0.0,0.0,0.0,0.0,0.0,0.0,0.0,0.0,0.0,0.0,0.0,0.0,0.0,0.0,0.0,0.0,0.0,0.0,0.0,0.0,0.0,0.0,0.0,0.0,0.0,0.0,0.0,0.0,0.0,0.0,0.0,0.0,0.0,0.0,0.0,0.0,0.0,0.0,0.0,0.0,0.0,0.0,0.0,0.0,0.0,0.0,0.0,0.0,0.0,0.0,0.0,0.0,0.0,0.0,0.0,0.0,0.0,0.0,0.0,0.0,0.0,0.0,0.0,0.0,0.0,0.0,0.0,0.0,0.0,0.0,0.0,0.0,0.0,0.0,0.0,0.0,0.0,0.0,0.0,0.0,0.0,0.0,0.0,0.0,0.0,0.0,0.0,0.0,0.0,0.0,0.0,0.0,0.0,0.0,0.0,0.0,0.0,0.0,0.0,0.7384,0.7407,0.8614,0.9013,0.8531,0.0,0.0,0.0,0.0,0.0,0.0,0.0,0.0,0.0,0.0,0.0,0.0,0.0,0.0,0.0,0.0,0.0,0.0,0.0,0.0,0.0,0.0,0.0,0.0,0.0,0.0,0.0,0.0,0.0,0.0,0.0,0.0,0.0,0.0,0.0,0.0,0.0,0.0,0.0,0.0,0.0,0.0,0.0,0.0,0.0,0.0,0.0,0.0,0.0,0.0,0.0,0.0,0.0,0.0,0.0,0.0,0.0,0.0,0.0,0.0,0.0,0.0,0.0,0.0,0.0,0.0,0.0,0.0,0.0,0.0,0.0,0.0,0.0,0.0,0.0,0.0,0.0,0.0,0.0,0.0,0.0,0.0,0.0,0.0,0.0,0.0,0.0,0.0,0.0,0.0,0.0,0.0,0.0,0.0,0.0,0.0,0.0,0.0,0.0,0.0,0.0,0.0,0.0,0.0,0.0,0.0,0.0,0.0,0.0,0.0,0.0,0.0,0.0,0.0,0.8295,0.0,0.0,0.0,0.0,0.0,0.0,0.0,0.0,0.0,0.0,0.0,0.0,0.0,0.0,0.0,0.0,0.0,0.0,0.0,0.0,0.0,0.0,0.0,0.0,0.0,0.0,0.0,0.0,0.0,0.0,0.0,0.0,0.0,0.0,0.0,0.0,0.0,0.0,0.0,0.0,0.0,0.0,0.0,0.0,0.0,0.0,0.0,0.0,0.0,0.0,0.0,0.0,0.0,0.0,0.0,0.0,0.0,0.0,0.0,0.0,0.0,0.0,0.0,0.0,0.0,0.0,0.0,0.0,0.0,0.0,0.0,0.0,0.0,0.0,0.0,0.0,0.0,0.0,0.0,0.0,0.0,0.0,0.0,0.0,0.0,0.0,0.0,0.0,0.0,0.0,0.0,0.0,0.0,0.0,0.0,0.0,0.0,0.0,0.0,0.0,0.0,0.0,0.0,0.0,0.0,0.0,0.0,0.0,0.0,0.0,0.0,0.0,0.0,0.0,0.0,0.0,0.0,0.0,0.0,0.0,0.0,0.0,0.0,0.0,0.0,0.0,0.0,0.0,0.0,0.0,0.0,0.0,0.0,0.0,0.0,0.0,0.0,0.0,0.0,0.0,0.0,0.0,0.0,0.0,0.0,0.0,0.0,0.0,0.0,0.0,0.0,0.0,0.0,0.0,0.0,0.0,0.0,0.0,0.0,0.0,0.0,0.0,0.0,0.0,0.0,0.0,0.0,0.0,0.0,0.0,0.0,0.0,0.0,0.0,0.0,0.0,0.0,0.0,0.0,0.0,0.0,0.0,0.0,0.0,0.0,0.0,0.0,0.0,0.0,0.0,0.0,0.0,0.0,0.0,0.0,0.0,0.0,0.0,0.0,0.0,0.0,0.0,0.0,0.0,0.0,0.0,0.0,0.0,0.0,0.0,0.0,0.0,0.0,0.0,0.0,0.0,0.0,0.0,0.0,0.0,0.0,0.0,0.0,0.0,0.0,0.0,0.0,0.0,0.0,0.0,0.0,0.0,0.0,0.0,0.0,0.0,0.0,0.0,0.0,0.0,0.0,0.0,0.0,0.0,0.0,0.0,0.0,0.0,0.0,0.0,0.0,0.0,0.0,0.0,0.0,0.0,0.0,0.0,0.0,0.0,0.0,0.0,0.0,0.0,0.0,0.0,0.0,0.0,0.0,0.0,0.0,0.0,0.0,0.0,0.0,0.0,0.0,0.0,0.0,0.0,0.0,0.0,0.0,0.0,0.0,0.0,0.0,0.0,0.0,0.0,0.0,0.0,0.0,0.0,0.0,0.0,0.0,0.0,0.0,0.0,0.0,0.0,0.0,0.0,0.0,0.0,0.0,0.0,0.0,0.0,0.0,0.0,0.0,0.0,0.0,0.0,0.0,0.0,0.0,0.0,0.0,0.0,0.0,0.0,0.0,0.0,0.0,0.0,0.0,0.0,0.0,0.0,0.0,0.0,0.0,0.0,0.0,0.0,0.0,0.0,0.0,0.0,0.0,0.0,0.0,0.0,0.0,0.0,0.0,0.0,0.0,0.0,0.0,0.0,0.0,0.0,0.0,0.0,0.0,0.0,0.0,0.0,0.0,0.0,0.0,0.0,0.0,0.0,0.0,0.0,0.0,0.0,0.0,0.0,0.0,0.0,0.0,0.0,0.0,0.0,0.0,0.0,0.0,0.0,0.0,0.0,0.0,0.0,0.0,0.0,0.0,0.0,0.0,0.0,0.0,0.0,0.0,0.0,0.0,0.0,0.0,0.0,0.0,0.0,0.0,0.0,0.0,0.0,0.0,0.0,0.0,0.0,0.0,0.0,0.0,0.0,0.0,0.0,0.0,0.0,0.0,0.0,0.0,0.0,0.0,0.0,0.0,0.0,0.0,0.0,0.0,0.0,0.0,0.0,0.0,0.0,0.0,0.0,0.0,0.0,0.0,0.0,0.0,0.0,0.0,0.0,0.0,0.0,0.0,0.0,0.0,0.0,0.0,0.0,0.0,0.0,0.0,0.0,0.0,0.0,0.0,0.0,0.0,0.0,0.0,0.0,0.0,0.0,0.0,0.0,0.0,0.0,0.0,0.0,0.0,0.0,0.0,0.0,0.0,0.0,0.0,0.0,0.0,0.0,0.0,0.0,0.0,0.0,0.0,0.0,0.0,0.0,0.0,0.0,0.0,0.0,0.0,0.0,0.0,0.0,0.0,0.0,0.0,0.0,0.0,0.0,0.0,0.0,0.0,0.0,0.0,0.0,0.0,0.0,0.0,0.0,0.0,0.0,0.0,0.0,0.0,0.0,0.0,0.0,0.0,0.0,0.0,0.0,0.0,0.0,0.0,0.0,0.0,0.0,0.0,0.0,0.0,0.0,0.0,0.0,0.0,0.0,0.0,0.0,0.0,0.0,0.0,0.0,0.0,0.0,0.0,0.0,0.0,0.0,0.0,0.0,0.0,0.0,0.0,0.0,0.0,0.0,0.0,0.0,0.0,0.0,0.0,0.0,0.0,0.0,0.0,0.0,0.0,0.0,0.0,0.0,0.0,0.0,0.0,0.0,0.0,0.0,0.0,0.0,0.0,0.0,0.0,0.0,0.0,0.0,0.0,0.0,0.0,0.0,0.0,0.0,0.0,0.0,0.0,0.0,0.0,0.0,0.0,0.0,0.0,0.0,0.0,0.0,0.0,0.0,0.0,0.0,0.0,0.0,0.0,0.0,0.0,0.0,0.0,0.0,0.0,0.0,0.0,0.0,0.0,0.0,0.0,0.0,0.0,0.0,0.0,0.0,0.0,0.0,0.0,0.0,0.0,0.0,0.0,0.0,0.0,0.0,0.0,0.0,0.0,0.0,0.0,0.0,0.0,0.0,0.0,0.0,0.0,0.0,0.0,0.0,0.0,0.0,0.0,0.0,0.0,0.0,0.0,0.0,0.0,0.0,0.0,0.0,0.0,0.0,0.0,0.0,0.0,0.0,0.0,0.0,0.0,0.0,0.0,0.0,0.0,0.0,0.0,0.0,0.0,0.0,0.0,0.0,0.0,0.0,0.0,0.0,0.0,0.0,0.0,0.0,0.0,0.0,0.0,0.0,0.0,0.0,0.0,0.0,0.0,0.0,0.0,0.0,0.0,0.0,0.0,0.0,0.0,0.0,0.0,0.0,0.0,0.0,0.0,0.0,0.0,0.0,0.0,0.0,0.0,0.0,0.0,0.0,0.0,0.0,0.0,0.0,0.0,0.0,0.0,0.0,0.0,0.0,0.0,0.0,0.0,0.0,0.0,0.0,0.0,0.0,0.0,0.0,0.0,0.0,0.0,0.0,0.0,0.0,0.0,0.0,0.0,0.0,0.0,0.0,0.0,0.0,0.0,0.0,0.0,0.0,0.0,0.0,0.0,0.0,0.0,0.0,0.0,0.0,0.0,0.0,0.0,0.0,0.0,0.0,0.0,0.0,0.0,0.0,0.0,0.0,0.0,0.0,0.0,0.0,0.0,0.0,0.0,0.0,0.0,0.0,0.0,0.0,0.0,0.0,0.0,0.0,0.0,0.0,0.0,0.0,0.0,0.0,0.0,0.0,0.0,0.0,0.0,0.0,0.0,0.0,0.0,0.0,0.0,0.0,0.0,0.0,0.0,0.0,0.0,0.0,0.0,0.0,0.0,0.0,0.0,0.0,0.0,0.0,0.0,0.0,0.0,0.0,0.0,0.0,0.0,0.0,0.0,0.0,0.0,0.0,0.0,0.0,0.0,0.0,0.0,0.0,0.0,0.0,0.0,0.0,0.0,0.0,0.0,0.0,0.0,0.0,0.0,0.0,0.0,0.0,0.0,0.0,0.0,0.0,0.0,0.0,0.0,0.0,0.0,0.0,0.0,0.0,0.0,0.0,0.0,0.0,0.0,0.0,0.0,0.0,0.0,0.0,0.0,0.0,0.0,0.0,0.0,0.0,0.0,0.0,0.0,0.0,0.0,0.0,0.0,0.0,0.0,0.0,0.0,0.0,0.0,0.0,0.0,0.0,0.0,0.0,0.0,0.0,0.0,0.0,0.0,0.0,0.0,0.0,0.0,0.0,0.0,0.0,0.0,0.0,0.0,0.0,0.0,0.0,0.0,0.0,0.0,0.0,0.0,0.0,0.0,0.0,0.0,0.0,0.0,0.0,0.0,0.0,0.0,0.0,0.0,0.0,0.0,0.0,0.0,0.0,0.0,0.0,0.0,0.0,0.0,0.0,0.0,0.0,0.0,0.0,0.0,0.0,0.0,0.0,0.0,0.0,0.0,0.0,0.0,0.0,0.0,0.0,0.0,0.0,0.0,0.0,0.0,0.0,0.0,0.0,0.0,0.0,0.0,0.0,0.0,0.0]}]]]